<?xml version="1.0" encoding="UTF-8" standalone="no" ?>
<gpx xmlns="http://www.topografix.com/GPX/1/1" xmlns:xsi="http://www.w3.org/2001/XMLSchema-instance" xsi:schemaLocation="http://www.topografix.com/GPX/1/1 http://www.topografix.com/GPX/1/1/gpx.xsd" version="1.1" creator="VisuGPX - https://www.visugpx.com">
  <metadata>
    <name>Revel-chamrousse-St Martin-revel </name>
    <desc><![CDATA[File with points/tracks from Locus Map/3.38.3]]></desc>
  </metadata>
  <trk>
    <name><![CDATA[2019-06-03 09:27:00]]></name>
    <desc><![CDATA[Chamr]]></desc>
    <trkseg>
      <trkpt lat="45.18427" lon="5.87387">
        <ele>755.42</ele>
        <time>2019-06-03T07:27:02.000Z</time>
      </trkpt>
      <trkpt lat="45.18409" lon="5.87378">
        <ele>752.95</ele>
        <time>2019-06-03T07:27:19.000Z</time>
      </trkpt>
      <trkpt lat="45.184" lon="5.87375">
        <ele>738.19</ele>
        <time>2019-06-03T07:27:30.000Z</time>
      </trkpt>
      <trkpt lat="45.1839" lon="5.87376">
        <ele>724.5</ele>
        <time>2019-06-03T07:27:58.000Z</time>
      </trkpt>
      <trkpt lat="45.18392" lon="5.87393">
        <ele>721.75</ele>
        <time>2019-06-03T07:28:07.000Z</time>
      </trkpt>
      <trkpt lat="45.18387" lon="5.87411">
        <ele>717.56</ele>
        <time>2019-06-03T07:28:12.000Z</time>
      </trkpt>
      <trkpt lat="45.18377" lon="5.87426">
        <ele>714.64</ele>
        <time>2019-06-03T07:28:17.000Z</time>
      </trkpt>
      <trkpt lat="45.18369" lon="5.87448">
        <ele>708.89</ele>
        <time>2019-06-03T07:28:22.000Z</time>
      </trkpt>
      <trkpt lat="45.18357" lon="5.87468">
        <ele>701.71</ele>
        <time>2019-06-03T07:28:27.000Z</time>
      </trkpt>
      <trkpt lat="45.18349" lon="5.87486">
        <ele>705.78</ele>
        <time>2019-06-03T07:28:32.000Z</time>
      </trkpt>
      <trkpt lat="45.18343" lon="5.87507">
        <ele>706.57</ele>
        <time>2019-06-03T07:28:37.000Z</time>
      </trkpt>
      <trkpt lat="45.18335" lon="5.87526">
        <ele>707.45</ele>
        <time>2019-06-03T07:28:42.000Z</time>
      </trkpt>
      <trkpt lat="45.18329" lon="5.87549">
        <ele>707.97</ele>
        <time>2019-06-03T07:28:47.000Z</time>
      </trkpt>
      <trkpt lat="45.18323" lon="5.87571">
        <ele>709.43</ele>
        <time>2019-06-03T07:28:52.000Z</time>
      </trkpt>
      <trkpt lat="45.18317" lon="5.87591">
        <ele>710.98</ele>
        <time>2019-06-03T07:28:57.000Z</time>
      </trkpt>
      <trkpt lat="45.1831" lon="5.87611">
        <ele>714.47</ele>
        <time>2019-06-03T07:29:02.000Z</time>
      </trkpt>
      <trkpt lat="45.18303" lon="5.87632">
        <ele>712.13</ele>
        <time>2019-06-03T07:29:07.000Z</time>
      </trkpt>
      <trkpt lat="45.18297" lon="5.87655">
        <ele>714.87</ele>
        <time>2019-06-03T07:29:12.000Z</time>
      </trkpt>
      <trkpt lat="45.18294" lon="5.87675">
        <ele>718.81</ele>
        <time>2019-06-03T07:29:17.000Z</time>
      </trkpt>
      <trkpt lat="45.18292" lon="5.87691">
        <ele>723.56</ele>
        <time>2019-06-03T07:29:22.000Z</time>
      </trkpt>
      <trkpt lat="45.18292" lon="5.87708">
        <ele>725.67</ele>
        <time>2019-06-03T07:29:27.000Z</time>
      </trkpt>
      <trkpt lat="45.18288" lon="5.87727">
        <ele>725.95</ele>
        <time>2019-06-03T07:29:32.000Z</time>
      </trkpt>
      <trkpt lat="45.18283" lon="5.87742">
        <ele>724.14</ele>
        <time>2019-06-03T07:29:37.000Z</time>
      </trkpt>
      <trkpt lat="45.18279" lon="5.87764">
        <ele>723.52</ele>
        <time>2019-06-03T07:29:42.000Z</time>
      </trkpt>
      <trkpt lat="45.18275" lon="5.87785">
        <ele>724.92</ele>
        <time>2019-06-03T07:29:47.000Z</time>
      </trkpt>
      <trkpt lat="45.18271" lon="5.87806">
        <ele>725.14</ele>
        <time>2019-06-03T07:29:52.000Z</time>
      </trkpt>
      <trkpt lat="45.18266" lon="5.87826">
        <ele>726.21</ele>
        <time>2019-06-03T07:29:57.000Z</time>
      </trkpt>
      <trkpt lat="45.18261" lon="5.8785">
        <ele>725.72</ele>
        <time>2019-06-03T07:30:02.000Z</time>
      </trkpt>
      <trkpt lat="45.18257" lon="5.87872">
        <ele>729.33</ele>
        <time>2019-06-03T07:30:07.000Z</time>
      </trkpt>
      <trkpt lat="45.18253" lon="5.87893">
        <ele>735.63</ele>
        <time>2019-06-03T07:30:12.000Z</time>
      </trkpt>
      <trkpt lat="45.18253" lon="5.87914">
        <ele>738.73</ele>
        <time>2019-06-03T07:30:17.000Z</time>
      </trkpt>
      <trkpt lat="45.18256" lon="5.87934">
        <ele>743.89</ele>
        <time>2019-06-03T07:30:22.000Z</time>
      </trkpt>
      <trkpt lat="45.18259" lon="5.87954">
        <ele>742.65</ele>
        <time>2019-06-03T07:30:27.000Z</time>
      </trkpt>
      <trkpt lat="45.18253" lon="5.87978">
        <ele>748.76</ele>
        <time>2019-06-03T07:30:32.000Z</time>
      </trkpt>
      <trkpt lat="45.1824" lon="5.87998">
        <ele>746.81</ele>
        <time>2019-06-03T07:30:37.000Z</time>
      </trkpt>
      <trkpt lat="45.18234" lon="5.88021">
        <ele>748.79</ele>
        <time>2019-06-03T07:30:42.000Z</time>
      </trkpt>
      <trkpt lat="45.18227" lon="5.88043">
        <ele>751.97</ele>
        <time>2019-06-03T07:30:47.000Z</time>
      </trkpt>
      <trkpt lat="45.18213" lon="5.88064">
        <ele>749.26</ele>
        <time>2019-06-03T07:30:52.000Z</time>
      </trkpt>
      <trkpt lat="45.18198" lon="5.88084">
        <ele>750.92</ele>
        <time>2019-06-03T07:30:57.000Z</time>
      </trkpt>
      <trkpt lat="45.18182" lon="5.88111">
        <ele>749.86</ele>
        <time>2019-06-03T07:31:02.000Z</time>
      </trkpt>
      <trkpt lat="45.1816" lon="5.88138">
        <ele>747.33</ele>
        <time>2019-06-03T07:31:07.000Z</time>
      </trkpt>
      <trkpt lat="45.18142" lon="5.88168">
        <ele>743.6</ele>
        <time>2019-06-03T07:31:12.000Z</time>
      </trkpt>
      <trkpt lat="45.18125" lon="5.88195">
        <ele>747.5</ele>
        <time>2019-06-03T07:31:17.000Z</time>
      </trkpt>
      <trkpt lat="45.18109" lon="5.8822">
        <ele>747.24</ele>
        <time>2019-06-03T07:31:22.000Z</time>
      </trkpt>
      <trkpt lat="45.18094" lon="5.88248">
        <ele>744.13</ele>
        <time>2019-06-03T07:31:27.000Z</time>
      </trkpt>
      <trkpt lat="45.1808" lon="5.8827">
        <ele>746.09</ele>
        <time>2019-06-03T07:31:32.000Z</time>
      </trkpt>
      <trkpt lat="45.18069" lon="5.88297">
        <ele>751.31</ele>
        <time>2019-06-03T07:31:37.000Z</time>
      </trkpt>
      <trkpt lat="45.18059" lon="5.88328">
        <ele>751.95</ele>
        <time>2019-06-03T07:31:42.000Z</time>
      </trkpt>
      <trkpt lat="45.18049" lon="5.8836">
        <ele>753.73</ele>
        <time>2019-06-03T07:31:47.000Z</time>
      </trkpt>
      <trkpt lat="45.18039" lon="5.88391">
        <ele>752.4</ele>
        <time>2019-06-03T07:31:52.000Z</time>
      </trkpt>
      <trkpt lat="45.18023" lon="5.88419">
        <ele>750.46</ele>
        <time>2019-06-03T07:31:57.000Z</time>
      </trkpt>
      <trkpt lat="45.17998" lon="5.88433">
        <ele>749.41</ele>
        <time>2019-06-03T07:32:02.000Z</time>
      </trkpt>
      <trkpt lat="45.17975" lon="5.88452">
        <ele>749.62</ele>
        <time>2019-06-03T07:32:07.000Z</time>
      </trkpt>
      <trkpt lat="45.17947" lon="5.88466">
        <ele>747.36</ele>
        <time>2019-06-03T07:32:12.000Z</time>
      </trkpt>
      <trkpt lat="45.17926" lon="5.88478">
        <ele>755.6</ele>
        <time>2019-06-03T07:32:17.000Z</time>
      </trkpt>
      <trkpt lat="45.17904" lon="5.88491">
        <ele>759.2</ele>
        <time>2019-06-03T07:32:22.000Z</time>
      </trkpt>
      <trkpt lat="45.17883" lon="5.88509">
        <ele>760.37</ele>
        <time>2019-06-03T07:32:27.000Z</time>
      </trkpt>
      <trkpt lat="45.17861" lon="5.88518">
        <ele>760.52</ele>
        <time>2019-06-03T07:32:32.000Z</time>
      </trkpt>
      <trkpt lat="45.17833" lon="5.88533">
        <ele>759.45</ele>
        <time>2019-06-03T07:32:37.000Z</time>
      </trkpt>
      <trkpt lat="45.17805" lon="5.88541">
        <ele>757.68</ele>
        <time>2019-06-03T07:32:42.000Z</time>
      </trkpt>
      <trkpt lat="45.17779" lon="5.88542">
        <ele>759.12</ele>
        <time>2019-06-03T07:32:47.000Z</time>
      </trkpt>
      <trkpt lat="45.17751" lon="5.88536">
        <ele>761.75</ele>
        <time>2019-06-03T07:32:52.000Z</time>
      </trkpt>
      <trkpt lat="45.17725" lon="5.88528">
        <ele>764.92</ele>
        <time>2019-06-03T07:32:57.000Z</time>
      </trkpt>
      <trkpt lat="45.17696" lon="5.88515">
        <ele>767.22</ele>
        <time>2019-06-03T07:33:02.000Z</time>
      </trkpt>
      <trkpt lat="45.1767" lon="5.88501">
        <ele>765.3</ele>
        <time>2019-06-03T07:33:07.000Z</time>
      </trkpt>
      <trkpt lat="45.17647" lon="5.88487">
        <ele>765.39</ele>
        <time>2019-06-03T07:33:12.000Z</time>
      </trkpt>
      <trkpt lat="45.17625" lon="5.8848">
        <ele>769.28</ele>
        <time>2019-06-03T07:33:17.000Z</time>
      </trkpt>
      <trkpt lat="45.17603" lon="5.88482">
        <ele>768.62</ele>
        <time>2019-06-03T07:33:22.000Z</time>
      </trkpt>
      <trkpt lat="45.1758" lon="5.88497">
        <ele>766.68</ele>
        <time>2019-06-03T07:33:27.000Z</time>
      </trkpt>
      <trkpt lat="45.17563" lon="5.88518">
        <ele>770.64</ele>
        <time>2019-06-03T07:33:32.000Z</time>
      </trkpt>
      <trkpt lat="45.17545" lon="5.88542">
        <ele>773.21</ele>
        <time>2019-06-03T07:33:37.000Z</time>
      </trkpt>
      <trkpt lat="45.17527" lon="5.88564">
        <ele>775.34</ele>
        <time>2019-06-03T07:33:42.000Z</time>
      </trkpt>
      <trkpt lat="45.17503" lon="5.88579">
        <ele>776.08</ele>
        <time>2019-06-03T07:33:47.000Z</time>
      </trkpt>
      <trkpt lat="45.1748" lon="5.88584">
        <ele>777.19</ele>
        <time>2019-06-03T07:33:52.000Z</time>
      </trkpt>
      <trkpt lat="45.17453" lon="5.8859">
        <ele>770.27</ele>
        <time>2019-06-03T07:33:57.000Z</time>
      </trkpt>
      <trkpt lat="45.1743" lon="5.88585">
        <ele>767.41</ele>
        <time>2019-06-03T07:34:02.000Z</time>
      </trkpt>
      <trkpt lat="45.17409" lon="5.88579">
        <ele>772.88</ele>
        <time>2019-06-03T07:34:07.000Z</time>
      </trkpt>
      <trkpt lat="45.17384" lon="5.88575">
        <ele>776.49</ele>
        <time>2019-06-03T07:34:12.000Z</time>
      </trkpt>
      <trkpt lat="45.17361" lon="5.88573">
        <ele>778.83</ele>
        <time>2019-06-03T07:34:17.000Z</time>
      </trkpt>
      <trkpt lat="45.17336" lon="5.88571">
        <ele>779.09</ele>
        <time>2019-06-03T07:34:22.000Z</time>
      </trkpt>
      <trkpt lat="45.17307" lon="5.88569">
        <ele>779.89</ele>
        <time>2019-06-03T07:34:27.000Z</time>
      </trkpt>
      <trkpt lat="45.17283" lon="5.88569">
        <ele>783.72</ele>
        <time>2019-06-03T07:34:32.000Z</time>
      </trkpt>
      <trkpt lat="45.17259" lon="5.88567">
        <ele>785.79</ele>
        <time>2019-06-03T07:34:37.000Z</time>
      </trkpt>
      <trkpt lat="45.17236" lon="5.88575">
        <ele>788.3</ele>
        <time>2019-06-03T07:34:42.000Z</time>
      </trkpt>
      <trkpt lat="45.17211" lon="5.88597">
        <ele>785.94</ele>
        <time>2019-06-03T07:34:47.000Z</time>
      </trkpt>
      <trkpt lat="45.17194" lon="5.88625">
        <ele>787.63</ele>
        <time>2019-06-03T07:34:52.000Z</time>
      </trkpt>
      <trkpt lat="45.17173" lon="5.88667">
        <ele>782.26</ele>
        <time>2019-06-03T07:34:57.000Z</time>
      </trkpt>
      <trkpt lat="45.17149" lon="5.88687">
        <ele>783.92</ele>
        <time>2019-06-03T07:35:02.000Z</time>
      </trkpt>
      <trkpt lat="45.17127" lon="5.88705">
        <ele>785.88</ele>
        <time>2019-06-03T07:35:07.000Z</time>
      </trkpt>
      <trkpt lat="45.17107" lon="5.88716">
        <ele>783.82</ele>
        <time>2019-06-03T07:35:12.000Z</time>
      </trkpt>
      <trkpt lat="45.17077" lon="5.88712">
        <ele>784.53</ele>
        <time>2019-06-03T07:35:17.000Z</time>
      </trkpt>
      <trkpt lat="45.17056" lon="5.88685">
        <ele>786.38</ele>
        <time>2019-06-03T07:35:22.000Z</time>
      </trkpt>
      <trkpt lat="45.17034" lon="5.88664">
        <ele>788.34</ele>
        <time>2019-06-03T07:35:27.000Z</time>
      </trkpt>
      <trkpt lat="45.17007" lon="5.88661">
        <ele>788.24</ele>
        <time>2019-06-03T07:35:32.000Z</time>
      </trkpt>
      <trkpt lat="45.16979" lon="5.88673">
        <ele>789.66</ele>
        <time>2019-06-03T07:35:37.000Z</time>
      </trkpt>
      <trkpt lat="45.16951" lon="5.88692">
        <ele>789.6</ele>
        <time>2019-06-03T07:35:42.000Z</time>
      </trkpt>
      <trkpt lat="45.16923" lon="5.887">
        <ele>787.35</ele>
        <time>2019-06-03T07:35:47.000Z</time>
      </trkpt>
      <trkpt lat="45.16894" lon="5.88703">
        <ele>788.94</ele>
        <time>2019-06-03T07:35:52.000Z</time>
      </trkpt>
      <trkpt lat="45.16863" lon="5.88709">
        <ele>789.59</ele>
        <time>2019-06-03T07:35:57.000Z</time>
      </trkpt>
      <trkpt lat="45.16835" lon="5.88707">
        <ele>791.73</ele>
        <time>2019-06-03T07:36:02.000Z</time>
      </trkpt>
      <trkpt lat="45.1681" lon="5.88715">
        <ele>790.13</ele>
        <time>2019-06-03T07:36:07.000Z</time>
      </trkpt>
      <trkpt lat="45.1679" lon="5.88726">
        <ele>791.79</ele>
        <time>2019-06-03T07:36:12.000Z</time>
      </trkpt>
      <trkpt lat="45.16757" lon="5.88733">
        <ele>790.28</ele>
        <time>2019-06-03T07:36:17.000Z</time>
      </trkpt>
      <trkpt lat="45.16717" lon="5.88743">
        <ele>793.38</ele>
        <time>2019-06-03T07:36:22.000Z</time>
      </trkpt>
      <trkpt lat="45.16686" lon="5.88745">
        <ele>794.29</ele>
        <time>2019-06-03T07:36:27.000Z</time>
      </trkpt>
      <trkpt lat="45.16652" lon="5.88732">
        <ele>792.46</ele>
        <time>2019-06-03T07:36:32.000Z</time>
      </trkpt>
      <trkpt lat="45.16609" lon="5.88727">
        <ele>788.94</ele>
        <time>2019-06-03T07:36:37.000Z</time>
      </trkpt>
      <trkpt lat="45.16561" lon="5.88717">
        <ele>789.28</ele>
        <time>2019-06-03T07:36:42.000Z</time>
      </trkpt>
      <trkpt lat="45.16525" lon="5.8869">
        <ele>789.88</ele>
        <time>2019-06-03T07:36:47.000Z</time>
      </trkpt>
      <trkpt lat="45.16511" lon="5.88616">
        <ele>786.83</ele>
        <time>2019-06-03T07:36:52.000Z</time>
      </trkpt>
      <trkpt lat="45.16513" lon="5.88558">
        <ele>785.78</ele>
        <time>2019-06-03T07:36:57.000Z</time>
      </trkpt>
      <trkpt lat="45.16532" lon="5.88515">
        <ele>782.78</ele>
        <time>2019-06-03T07:37:02.000Z</time>
      </trkpt>
      <trkpt lat="45.16553" lon="5.88507">
        <ele>782.67</ele>
        <time>2019-06-03T07:37:07.000Z</time>
      </trkpt>
      <trkpt lat="45.16571" lon="5.885">
        <ele>783.41</ele>
        <time>2019-06-03T07:37:12.000Z</time>
      </trkpt>
      <trkpt lat="45.16585" lon="5.88494">
        <ele>780.98</ele>
        <time>2019-06-03T07:37:17.000Z</time>
      </trkpt>
      <trkpt lat="45.16611" lon="5.88475">
        <ele>779.31</ele>
        <time>2019-06-03T07:37:22.000Z</time>
      </trkpt>
      <trkpt lat="45.16637" lon="5.88469">
        <ele>781.49</ele>
        <time>2019-06-03T07:37:27.000Z</time>
      </trkpt>
      <trkpt lat="45.16663" lon="5.88466">
        <ele>783.3</ele>
        <time>2019-06-03T07:37:32.000Z</time>
      </trkpt>
      <trkpt lat="45.16696" lon="5.88468">
        <ele>789.76</ele>
        <time>2019-06-03T07:37:37.000Z</time>
      </trkpt>
      <trkpt lat="45.16724" lon="5.88468">
        <ele>794.32</ele>
        <time>2019-06-03T07:37:42.000Z</time>
      </trkpt>
      <trkpt lat="45.16757" lon="5.88463">
        <ele>793.42</ele>
        <time>2019-06-03T07:37:47.000Z</time>
      </trkpt>
      <trkpt lat="45.16776" lon="5.88423">
        <ele>793.98</ele>
        <time>2019-06-03T07:37:52.000Z</time>
      </trkpt>
      <trkpt lat="45.16793" lon="5.88384">
        <ele>796.23</ele>
        <time>2019-06-03T07:37:57.000Z</time>
      </trkpt>
      <trkpt lat="45.16813" lon="5.88352">
        <ele>797.49</ele>
        <time>2019-06-03T07:38:02.000Z</time>
      </trkpt>
      <trkpt lat="45.16825" lon="5.88331">
        <ele>798.21</ele>
        <time>2019-06-03T07:38:07.000Z</time>
      </trkpt>
      <trkpt lat="45.16836" lon="5.88312">
        <ele>799.21</ele>
        <time>2019-06-03T07:38:12.000Z</time>
      </trkpt>
      <trkpt lat="45.16844" lon="5.88298">
        <ele>802.04</ele>
        <time>2019-06-03T07:38:17.000Z</time>
      </trkpt>
      <trkpt lat="45.16858" lon="5.88281">
        <ele>804.48</ele>
        <time>2019-06-03T07:38:22.000Z</time>
      </trkpt>
      <trkpt lat="45.16872" lon="5.88263">
        <ele>805.3</ele>
        <time>2019-06-03T07:38:27.000Z</time>
      </trkpt>
      <trkpt lat="45.16893" lon="5.88246">
        <ele>800.92</ele>
        <time>2019-06-03T07:38:32.000Z</time>
      </trkpt>
      <trkpt lat="45.16909" lon="5.88242">
        <ele>802.04</ele>
        <time>2019-06-03T07:38:37.000Z</time>
      </trkpt>
      <trkpt lat="45.16921" lon="5.88229">
        <ele>803.38</ele>
        <time>2019-06-03T07:38:42.000Z</time>
      </trkpt>
      <trkpt lat="45.16946" lon="5.88216">
        <ele>802.68</ele>
        <time>2019-06-03T07:38:47.000Z</time>
      </trkpt>
      <trkpt lat="45.1696" lon="5.88205">
        <ele>802.92</ele>
        <time>2019-06-03T07:38:52.000Z</time>
      </trkpt>
      <trkpt lat="45.16977" lon="5.88191">
        <ele>802.86</ele>
        <time>2019-06-03T07:38:57.000Z</time>
      </trkpt>
      <trkpt lat="45.16994" lon="5.8818">
        <ele>805.71</ele>
        <time>2019-06-03T07:39:02.000Z</time>
      </trkpt>
      <trkpt lat="45.1701" lon="5.8817">
        <ele>806.86</ele>
        <time>2019-06-03T07:39:07.000Z</time>
      </trkpt>
      <trkpt lat="45.17028" lon="5.88159">
        <ele>813.25</ele>
        <time>2019-06-03T07:39:12.000Z</time>
      </trkpt>
      <trkpt lat="45.17051" lon="5.88143">
        <ele>817.33</ele>
        <time>2019-06-03T07:39:17.000Z</time>
      </trkpt>
      <trkpt lat="45.17075" lon="5.88125">
        <ele>818.5</ele>
        <time>2019-06-03T07:39:22.000Z</time>
      </trkpt>
      <trkpt lat="45.17094" lon="5.88109">
        <ele>821.78</ele>
        <time>2019-06-03T07:39:27.000Z</time>
      </trkpt>
      <trkpt lat="45.1711" lon="5.88084">
        <ele>820.88</ele>
        <time>2019-06-03T07:39:32.000Z</time>
      </trkpt>
      <trkpt lat="45.17124" lon="5.8806">
        <ele>824.01</ele>
        <time>2019-06-03T07:39:37.000Z</time>
      </trkpt>
      <trkpt lat="45.17144" lon="5.88041">
        <ele>827.05</ele>
        <time>2019-06-03T07:39:42.000Z</time>
      </trkpt>
      <trkpt lat="45.17155" lon="5.88018">
        <ele>828.3</ele>
        <time>2019-06-03T07:39:47.000Z</time>
      </trkpt>
      <trkpt lat="45.17164" lon="5.87994">
        <ele>830.58</ele>
        <time>2019-06-03T07:39:52.000Z</time>
      </trkpt>
      <trkpt lat="45.17172" lon="5.87969">
        <ele>826.75</ele>
        <time>2019-06-03T07:39:57.000Z</time>
      </trkpt>
      <trkpt lat="45.17186" lon="5.87942">
        <ele>828.13</ele>
        <time>2019-06-03T07:40:02.000Z</time>
      </trkpt>
      <trkpt lat="45.17207" lon="5.87918">
        <ele>834.07</ele>
        <time>2019-06-03T07:40:07.000Z</time>
      </trkpt>
      <trkpt lat="45.17229" lon="5.87895">
        <ele>839.82</ele>
        <time>2019-06-03T07:40:12.000Z</time>
      </trkpt>
      <trkpt lat="45.17245" lon="5.87873">
        <ele>842.94</ele>
        <time>2019-06-03T07:40:17.000Z</time>
      </trkpt>
      <trkpt lat="45.17262" lon="5.87849">
        <ele>843.3</ele>
        <time>2019-06-03T07:40:22.000Z</time>
      </trkpt>
      <trkpt lat="45.1728" lon="5.87823">
        <ele>843.55</ele>
        <time>2019-06-03T07:40:27.000Z</time>
      </trkpt>
      <trkpt lat="45.173" lon="5.8779">
        <ele>847</ele>
        <time>2019-06-03T07:40:32.000Z</time>
      </trkpt>
      <trkpt lat="45.17318" lon="5.87754">
        <ele>846.16</ele>
        <time>2019-06-03T07:40:37.000Z</time>
      </trkpt>
      <trkpt lat="45.17338" lon="5.87719">
        <ele>846.27</ele>
        <time>2019-06-03T07:40:42.000Z</time>
      </trkpt>
      <trkpt lat="45.17355" lon="5.87691">
        <ele>847.98</ele>
        <time>2019-06-03T07:40:47.000Z</time>
      </trkpt>
      <trkpt lat="45.17365" lon="5.8766">
        <ele>844.03</ele>
        <time>2019-06-03T07:40:52.000Z</time>
      </trkpt>
      <trkpt lat="45.17372" lon="5.87636">
        <ele>843.98</ele>
        <time>2019-06-03T07:40:57.000Z</time>
      </trkpt>
      <trkpt lat="45.17369" lon="5.87596">
        <ele>844.29</ele>
        <time>2019-06-03T07:41:02.000Z</time>
      </trkpt>
      <trkpt lat="45.17358" lon="5.87552">
        <ele>842.79</ele>
        <time>2019-06-03T07:41:07.000Z</time>
      </trkpt>
      <trkpt lat="45.17345" lon="5.8751">
        <ele>842.05</ele>
        <time>2019-06-03T07:41:12.000Z</time>
      </trkpt>
      <trkpt lat="45.17321" lon="5.87467">
        <ele>844.03</ele>
        <time>2019-06-03T07:41:17.000Z</time>
      </trkpt>
      <trkpt lat="45.17292" lon="5.87444">
        <ele>841.79</ele>
        <time>2019-06-03T07:41:22.000Z</time>
      </trkpt>
      <trkpt lat="45.17258" lon="5.87417">
        <ele>838.81</ele>
        <time>2019-06-03T07:41:27.000Z</time>
      </trkpt>
      <trkpt lat="45.17227" lon="5.87371">
        <ele>835.79</ele>
        <time>2019-06-03T07:41:32.000Z</time>
      </trkpt>
      <trkpt lat="45.17203" lon="5.87314">
        <ele>831.78</ele>
        <time>2019-06-03T07:41:37.000Z</time>
      </trkpt>
      <trkpt lat="45.17197" lon="5.87253">
        <ele>828.3</ele>
        <time>2019-06-03T07:41:42.000Z</time>
      </trkpt>
      <trkpt lat="45.17188" lon="5.87198">
        <ele>826.03</ele>
        <time>2019-06-03T07:41:47.000Z</time>
      </trkpt>
      <trkpt lat="45.17173" lon="5.87143">
        <ele>825.53</ele>
        <time>2019-06-03T07:41:52.000Z</time>
      </trkpt>
      <trkpt lat="45.17151" lon="5.8709">
        <ele>822.33</ele>
        <time>2019-06-03T07:41:57.000Z</time>
      </trkpt>
      <trkpt lat="45.17129" lon="5.87027">
        <ele>820.58</ele>
        <time>2019-06-03T07:42:02.000Z</time>
      </trkpt>
      <trkpt lat="45.17104" lon="5.86963">
        <ele>823.31</ele>
        <time>2019-06-03T07:42:07.000Z</time>
      </trkpt>
      <trkpt lat="45.17066" lon="5.86911">
        <ele>817.7</ele>
        <time>2019-06-03T07:42:12.000Z</time>
      </trkpt>
      <trkpt lat="45.1704" lon="5.86856">
        <ele>815.56</ele>
        <time>2019-06-03T07:42:17.000Z</time>
      </trkpt>
      <trkpt lat="45.17012" lon="5.86802">
        <ele>814.68</ele>
        <time>2019-06-03T07:42:22.000Z</time>
      </trkpt>
      <trkpt lat="45.16984" lon="5.86743">
        <ele>809.21</ele>
        <time>2019-06-03T07:42:27.000Z</time>
      </trkpt>
      <trkpt lat="45.16961" lon="5.86689">
        <ele>808.86</ele>
        <time>2019-06-03T07:42:32.000Z</time>
      </trkpt>
      <trkpt lat="45.16938" lon="5.86641">
        <ele>807.97</ele>
        <time>2019-06-03T07:42:37.000Z</time>
      </trkpt>
      <trkpt lat="45.16911" lon="5.86599">
        <ele>810.31</ele>
        <time>2019-06-03T07:42:42.000Z</time>
      </trkpt>
      <trkpt lat="45.16901" lon="5.86541">
        <ele>814.61</ele>
        <time>2019-06-03T07:42:47.000Z</time>
      </trkpt>
      <trkpt lat="45.1689" lon="5.86489">
        <ele>815.38</ele>
        <time>2019-06-03T07:42:52.000Z</time>
      </trkpt>
      <trkpt lat="45.16878" lon="5.86437">
        <ele>813.85</ele>
        <time>2019-06-03T07:42:57.000Z</time>
      </trkpt>
      <trkpt lat="45.1686" lon="5.86387">
        <ele>813.99</ele>
        <time>2019-06-03T07:43:02.000Z</time>
      </trkpt>
      <trkpt lat="45.16836" lon="5.86347">
        <ele>812.55</ele>
        <time>2019-06-03T07:43:07.000Z</time>
      </trkpt>
      <trkpt lat="45.16804" lon="5.86308">
        <ele>812.22</ele>
        <time>2019-06-03T07:43:12.000Z</time>
      </trkpt>
      <trkpt lat="45.16773" lon="5.86268">
        <ele>812.45</ele>
        <time>2019-06-03T07:43:17.000Z</time>
      </trkpt>
      <trkpt lat="45.16765" lon="5.86215">
        <ele>811.33</ele>
        <time>2019-06-03T07:43:22.000Z</time>
      </trkpt>
      <trkpt lat="45.1677" lon="5.86171">
        <ele>810.6</ele>
        <time>2019-06-03T07:43:27.000Z</time>
      </trkpt>
      <trkpt lat="45.16776" lon="5.86119">
        <ele>808.28</ele>
        <time>2019-06-03T07:43:32.000Z</time>
      </trkpt>
      <trkpt lat="45.16782" lon="5.86066">
        <ele>802.9</ele>
        <time>2019-06-03T07:43:37.000Z</time>
      </trkpt>
      <trkpt lat="45.16786" lon="5.86011">
        <ele>800.94</ele>
        <time>2019-06-03T07:43:42.000Z</time>
      </trkpt>
      <trkpt lat="45.16783" lon="5.8595">
        <ele>799.39</ele>
        <time>2019-06-03T07:43:47.000Z</time>
      </trkpt>
      <trkpt lat="45.16765" lon="5.85894">
        <ele>798.49</ele>
        <time>2019-06-03T07:43:52.000Z</time>
      </trkpt>
      <trkpt lat="45.16753" lon="5.85829">
        <ele>796.35</ele>
        <time>2019-06-03T07:43:57.000Z</time>
      </trkpt>
      <trkpt lat="45.16751" lon="5.85754">
        <ele>792.16</ele>
        <time>2019-06-03T07:44:02.000Z</time>
      </trkpt>
      <trkpt lat="45.1676" lon="5.85681">
        <ele>791.25</ele>
        <time>2019-06-03T07:44:07.000Z</time>
      </trkpt>
      <trkpt lat="45.16751" lon="5.85615">
        <ele>790.15</ele>
        <time>2019-06-03T07:44:12.000Z</time>
      </trkpt>
      <trkpt lat="45.1673" lon="5.85556">
        <ele>784.26</ele>
        <time>2019-06-03T07:44:17.000Z</time>
      </trkpt>
      <trkpt lat="45.16718" lon="5.85494">
        <ele>787.62</ele>
        <time>2019-06-03T07:44:22.000Z</time>
      </trkpt>
      <trkpt lat="45.16711" lon="5.8543">
        <ele>791.33</ele>
        <time>2019-06-03T07:44:27.000Z</time>
      </trkpt>
      <trkpt lat="45.16701" lon="5.85389">
        <ele>788.41</ele>
        <time>2019-06-03T07:44:32.000Z</time>
      </trkpt>
      <trkpt lat="45.16692" lon="5.85349">
        <ele>790.96</ele>
        <time>2019-06-03T07:44:37.000Z</time>
      </trkpt>
      <trkpt lat="45.16675" lon="5.85317">
        <ele>787.72</ele>
        <time>2019-06-03T07:44:42.000Z</time>
      </trkpt>
      <trkpt lat="45.16658" lon="5.85285">
        <ele>790.29</ele>
        <time>2019-06-03T07:44:47.000Z</time>
      </trkpt>
      <trkpt lat="45.16643" lon="5.85266">
        <ele>786.62</ele>
        <time>2019-06-03T07:44:52.000Z</time>
      </trkpt>
      <trkpt lat="45.1663" lon="5.85239">
        <ele>787.21</ele>
        <time>2019-06-03T07:44:57.000Z</time>
      </trkpt>
      <trkpt lat="45.16613" lon="5.85215">
        <ele>784.62</ele>
        <time>2019-06-03T07:45:02.000Z</time>
      </trkpt>
      <trkpt lat="45.16597" lon="5.85187">
        <ele>787.43</ele>
        <time>2019-06-03T07:45:07.000Z</time>
      </trkpt>
      <trkpt lat="45.16581" lon="5.85155">
        <ele>791.61</ele>
        <time>2019-06-03T07:45:12.000Z</time>
      </trkpt>
      <trkpt lat="45.16561" lon="5.85119">
        <ele>794.15</ele>
        <time>2019-06-03T07:45:17.000Z</time>
      </trkpt>
      <trkpt lat="45.16547" lon="5.85088">
        <ele>799.42</ele>
        <time>2019-06-03T07:45:22.000Z</time>
      </trkpt>
      <trkpt lat="45.1654" lon="5.8505">
        <ele>797.9</ele>
        <time>2019-06-03T07:45:27.000Z</time>
      </trkpt>
      <trkpt lat="45.16534" lon="5.85013">
        <ele>793.79</ele>
        <time>2019-06-03T07:45:32.000Z</time>
      </trkpt>
      <trkpt lat="45.16529" lon="5.8498">
        <ele>798.87</ele>
        <time>2019-06-03T07:45:37.000Z</time>
      </trkpt>
      <trkpt lat="45.16511" lon="5.8498">
        <ele>798.36</ele>
        <time>2019-06-03T07:45:42.000Z</time>
      </trkpt>
      <trkpt lat="45.16503" lon="5.85015">
        <ele>799.29</ele>
        <time>2019-06-03T07:45:47.000Z</time>
      </trkpt>
      <trkpt lat="45.16497" lon="5.85042">
        <ele>805.5</ele>
        <time>2019-06-03T07:45:52.000Z</time>
      </trkpt>
      <trkpt lat="45.16491" lon="5.8507">
        <ele>809.63</ele>
        <time>2019-06-03T07:45:57.000Z</time>
      </trkpt>
      <trkpt lat="45.16485" lon="5.85098">
        <ele>810.6</ele>
        <time>2019-06-03T07:46:02.000Z</time>
      </trkpt>
      <trkpt lat="45.16482" lon="5.85126">
        <ele>813.48</ele>
        <time>2019-06-03T07:46:07.000Z</time>
      </trkpt>
      <trkpt lat="45.1648" lon="5.85149">
        <ele>815.19</ele>
        <time>2019-06-03T07:46:12.000Z</time>
      </trkpt>
      <trkpt lat="45.16478" lon="5.85174">
        <ele>815.54</ele>
        <time>2019-06-03T07:46:17.000Z</time>
      </trkpt>
      <trkpt lat="45.1648" lon="5.852">
        <ele>816.48</ele>
        <time>2019-06-03T07:46:22.000Z</time>
      </trkpt>
      <trkpt lat="45.16485" lon="5.85225">
        <ele>817.3</ele>
        <time>2019-06-03T07:46:27.000Z</time>
      </trkpt>
      <trkpt lat="45.16486" lon="5.85247">
        <ele>820.75</ele>
        <time>2019-06-03T07:46:32.000Z</time>
      </trkpt>
      <trkpt lat="45.16488" lon="5.85274">
        <ele>822.51</ele>
        <time>2019-06-03T07:46:37.000Z</time>
      </trkpt>
      <trkpt lat="45.16484" lon="5.85305">
        <ele>826.57</ele>
        <time>2019-06-03T07:46:42.000Z</time>
      </trkpt>
      <trkpt lat="45.16478" lon="5.85336">
        <ele>827.85</ele>
        <time>2019-06-03T07:46:47.000Z</time>
      </trkpt>
      <trkpt lat="45.16475" lon="5.85368">
        <ele>829.28</ele>
        <time>2019-06-03T07:46:52.000Z</time>
      </trkpt>
      <trkpt lat="45.16475" lon="5.85404">
        <ele>828.31</ele>
        <time>2019-06-03T07:46:57.000Z</time>
      </trkpt>
      <trkpt lat="45.16484" lon="5.85436">
        <ele>829.46</ele>
        <time>2019-06-03T07:47:02.000Z</time>
      </trkpt>
      <trkpt lat="45.16499" lon="5.85488">
        <ele>827.52</ele>
        <time>2019-06-03T07:47:07.000Z</time>
      </trkpt>
      <trkpt lat="45.16509" lon="5.85522">
        <ele>828.13</ele>
        <time>2019-06-03T07:47:12.000Z</time>
      </trkpt>
      <trkpt lat="45.16524" lon="5.85555">
        <ele>827.6</ele>
        <time>2019-06-03T07:47:17.000Z</time>
      </trkpt>
      <trkpt lat="45.16538" lon="5.85603">
        <ele>834.36</ele>
        <time>2019-06-03T07:47:22.000Z</time>
      </trkpt>
      <trkpt lat="45.16548" lon="5.85629">
        <ele>836.46</ele>
        <time>2019-06-03T07:47:27.000Z</time>
      </trkpt>
      <trkpt lat="45.16561" lon="5.8566">
        <ele>834.3</ele>
        <time>2019-06-03T07:47:32.000Z</time>
      </trkpt>
      <trkpt lat="45.16573" lon="5.85691">
        <ele>834</ele>
        <time>2019-06-03T07:47:37.000Z</time>
      </trkpt>
      <trkpt lat="45.16578" lon="5.85728">
        <ele>836.93</ele>
        <time>2019-06-03T07:47:42.000Z</time>
      </trkpt>
      <trkpt lat="45.16583" lon="5.85762">
        <ele>839.77</ele>
        <time>2019-06-03T07:47:47.000Z</time>
      </trkpt>
      <trkpt lat="45.16589" lon="5.85796">
        <ele>842.19</ele>
        <time>2019-06-03T07:47:52.000Z</time>
      </trkpt>
      <trkpt lat="45.16593" lon="5.85827">
        <ele>841.93</ele>
        <time>2019-06-03T07:47:57.000Z</time>
      </trkpt>
      <trkpt lat="45.16601" lon="5.85854">
        <ele>838.96</ele>
        <time>2019-06-03T07:48:02.000Z</time>
      </trkpt>
      <trkpt lat="45.16611" lon="5.8588">
        <ele>841.91</ele>
        <time>2019-06-03T07:48:07.000Z</time>
      </trkpt>
      <trkpt lat="45.1662" lon="5.85908">
        <ele>844.58</ele>
        <time>2019-06-03T07:48:12.000Z</time>
      </trkpt>
      <trkpt lat="45.16626" lon="5.85936">
        <ele>847.78</ele>
        <time>2019-06-03T07:48:17.000Z</time>
      </trkpt>
      <trkpt lat="45.16634" lon="5.85964">
        <ele>851.01</ele>
        <time>2019-06-03T07:48:22.000Z</time>
      </trkpt>
      <trkpt lat="45.16634" lon="5.85994">
        <ele>852.7</ele>
        <time>2019-06-03T07:48:27.000Z</time>
      </trkpt>
      <trkpt lat="45.16633" lon="5.86025">
        <ele>855.22</ele>
        <time>2019-06-03T07:48:32.000Z</time>
      </trkpt>
      <trkpt lat="45.16629" lon="5.86047">
        <ele>855.74</ele>
        <time>2019-06-03T07:48:37.000Z</time>
      </trkpt>
      <trkpt lat="45.16621" lon="5.86074">
        <ele>856.8</ele>
        <time>2019-06-03T07:48:42.000Z</time>
      </trkpt>
      <trkpt lat="45.16611" lon="5.86109">
        <ele>856.58</ele>
        <time>2019-06-03T07:48:47.000Z</time>
      </trkpt>
      <trkpt lat="45.16605" lon="5.86141">
        <ele>858.17</ele>
        <time>2019-06-03T07:48:52.000Z</time>
      </trkpt>
      <trkpt lat="45.16601" lon="5.86173">
        <ele>860.62</ele>
        <time>2019-06-03T07:48:57.000Z</time>
      </trkpt>
      <trkpt lat="45.16592" lon="5.862">
        <ele>862.61</ele>
        <time>2019-06-03T07:49:02.000Z</time>
      </trkpt>
      <trkpt lat="45.16584" lon="5.86227">
        <ele>867.22</ele>
        <time>2019-06-03T07:49:07.000Z</time>
      </trkpt>
      <trkpt lat="45.16574" lon="5.8625">
        <ele>873.06</ele>
        <time>2019-06-03T07:49:12.000Z</time>
      </trkpt>
      <trkpt lat="45.16563" lon="5.86275">
        <ele>872.44</ele>
        <time>2019-06-03T07:49:17.000Z</time>
      </trkpt>
      <trkpt lat="45.16552" lon="5.86301">
        <ele>872.06</ele>
        <time>2019-06-03T07:49:22.000Z</time>
      </trkpt>
      <trkpt lat="45.16544" lon="5.86329">
        <ele>872.26</ele>
        <time>2019-06-03T07:49:27.000Z</time>
      </trkpt>
      <trkpt lat="45.16537" lon="5.86357">
        <ele>873.47</ele>
        <time>2019-06-03T07:49:32.000Z</time>
      </trkpt>
      <trkpt lat="45.16539" lon="5.86383">
        <ele>875.92</ele>
        <time>2019-06-03T07:49:37.000Z</time>
      </trkpt>
      <trkpt lat="45.16549" lon="5.86395">
        <ele>874.68</ele>
        <time>2019-06-03T07:49:42.000Z</time>
      </trkpt>
      <trkpt lat="45.16558" lon="5.86439">
        <ele>879.02</ele>
        <time>2019-06-03T07:49:47.000Z</time>
      </trkpt>
      <trkpt lat="45.16564" lon="5.86465">
        <ele>883.91</ele>
        <time>2019-06-03T07:49:52.000Z</time>
      </trkpt>
      <trkpt lat="45.16569" lon="5.86487">
        <ele>887.08</ele>
        <time>2019-06-03T07:49:57.000Z</time>
      </trkpt>
      <trkpt lat="45.16568" lon="5.86506">
        <ele>885.43</ele>
        <time>2019-06-03T07:50:02.000Z</time>
      </trkpt>
      <trkpt lat="45.1656" lon="5.86534">
        <ele>880.97</ele>
        <time>2019-06-03T07:50:07.000Z</time>
      </trkpt>
      <trkpt lat="45.16557" lon="5.86565">
        <ele>880.25</ele>
        <time>2019-06-03T07:50:12.000Z</time>
      </trkpt>
      <trkpt lat="45.16541" lon="5.86572">
        <ele>883.34</ele>
        <time>2019-06-03T07:50:17.000Z</time>
      </trkpt>
      <trkpt lat="45.16519" lon="5.8656">
        <ele>888.51</ele>
        <time>2019-06-03T07:50:22.000Z</time>
      </trkpt>
      <trkpt lat="45.16497" lon="5.86536">
        <ele>890.51</ele>
        <time>2019-06-03T07:50:27.000Z</time>
      </trkpt>
      <trkpt lat="45.16486" lon="5.86521">
        <ele>895.8</ele>
        <time>2019-06-03T07:50:32.000Z</time>
      </trkpt>
      <trkpt lat="45.16469" lon="5.86505">
        <ele>899.15</ele>
        <time>2019-06-03T07:50:37.000Z</time>
      </trkpt>
      <trkpt lat="45.16452" lon="5.86497">
        <ele>900.97</ele>
        <time>2019-06-03T07:50:42.000Z</time>
      </trkpt>
      <trkpt lat="45.16443" lon="5.86523">
        <ele>901.3</ele>
        <time>2019-06-03T07:50:47.000Z</time>
      </trkpt>
      <trkpt lat="45.16453" lon="5.86547">
        <ele>904.36</ele>
        <time>2019-06-03T07:50:52.000Z</time>
      </trkpt>
      <trkpt lat="45.16463" lon="5.8657">
        <ele>904.6</ele>
        <time>2019-06-03T07:50:57.000Z</time>
      </trkpt>
      <trkpt lat="45.16476" lon="5.86592">
        <ele>910.27</ele>
        <time>2019-06-03T07:51:02.000Z</time>
      </trkpt>
      <trkpt lat="45.16485" lon="5.86613">
        <ele>913.42</ele>
        <time>2019-06-03T07:51:07.000Z</time>
      </trkpt>
      <trkpt lat="45.16493" lon="5.86639">
        <ele>911.7</ele>
        <time>2019-06-03T07:51:12.000Z</time>
      </trkpt>
      <trkpt lat="45.16499" lon="5.86656">
        <ele>910.62</ele>
        <time>2019-06-03T07:51:17.000Z</time>
      </trkpt>
      <trkpt lat="45.16506" lon="5.86684">
        <ele>907.69</ele>
        <time>2019-06-03T07:51:22.000Z</time>
      </trkpt>
      <trkpt lat="45.16522" lon="5.86711">
        <ele>913.01</ele>
        <time>2019-06-03T07:51:27.000Z</time>
      </trkpt>
      <trkpt lat="45.16546" lon="5.86737">
        <ele>917.36</ele>
        <time>2019-06-03T07:51:32.000Z</time>
      </trkpt>
      <trkpt lat="45.1656" lon="5.86756">
        <ele>919.3</ele>
        <time>2019-06-03T07:51:37.000Z</time>
      </trkpt>
      <trkpt lat="45.16569" lon="5.86779">
        <ele>920.12</ele>
        <time>2019-06-03T07:51:42.000Z</time>
      </trkpt>
      <trkpt lat="45.16573" lon="5.86802">
        <ele>924.15</ele>
        <time>2019-06-03T07:51:47.000Z</time>
      </trkpt>
      <trkpt lat="45.16578" lon="5.86826">
        <ele>925.26</ele>
        <time>2019-06-03T07:51:52.000Z</time>
      </trkpt>
      <trkpt lat="45.16585" lon="5.86855">
        <ele>927.58</ele>
        <time>2019-06-03T07:51:57.000Z</time>
      </trkpt>
      <trkpt lat="45.16601" lon="5.86877">
        <ele>929.96</ele>
        <time>2019-06-03T07:52:02.000Z</time>
      </trkpt>
      <trkpt lat="45.1661" lon="5.869">
        <ele>931.1</ele>
        <time>2019-06-03T07:52:07.000Z</time>
      </trkpt>
      <trkpt lat="45.16619" lon="5.86923">
        <ele>937.06</ele>
        <time>2019-06-03T07:52:12.000Z</time>
      </trkpt>
      <trkpt lat="45.16622" lon="5.86945">
        <ele>938.26</ele>
        <time>2019-06-03T07:52:17.000Z</time>
      </trkpt>
      <trkpt lat="45.16629" lon="5.86972">
        <ele>940.96</ele>
        <time>2019-06-03T07:52:22.000Z</time>
      </trkpt>
      <trkpt lat="45.1664" lon="5.86997">
        <ele>945.21</ele>
        <time>2019-06-03T07:52:27.000Z</time>
      </trkpt>
      <trkpt lat="45.16653" lon="5.87017">
        <ele>948.26</ele>
        <time>2019-06-03T07:52:32.000Z</time>
      </trkpt>
      <trkpt lat="45.16665" lon="5.87037">
        <ele>950.44</ele>
        <time>2019-06-03T07:52:37.000Z</time>
      </trkpt>
      <trkpt lat="45.16666" lon="5.87057">
        <ele>951.85</ele>
        <time>2019-06-03T07:52:42.000Z</time>
      </trkpt>
      <trkpt lat="45.16667" lon="5.87083">
        <ele>950.33</ele>
        <time>2019-06-03T07:52:47.000Z</time>
      </trkpt>
      <trkpt lat="45.16674" lon="5.87109">
        <ele>950.11</ele>
        <time>2019-06-03T07:52:52.000Z</time>
      </trkpt>
      <trkpt lat="45.16679" lon="5.87137">
        <ele>948.89</ele>
        <time>2019-06-03T07:52:57.000Z</time>
      </trkpt>
      <trkpt lat="45.16684" lon="5.87175">
        <ele>951.69</ele>
        <time>2019-06-03T07:53:02.000Z</time>
      </trkpt>
      <trkpt lat="45.16683" lon="5.87205">
        <ele>947.4</ele>
        <time>2019-06-03T07:53:07.000Z</time>
      </trkpt>
      <trkpt lat="45.16686" lon="5.87238">
        <ele>947.4</ele>
        <time>2019-06-03T07:53:12.000Z</time>
      </trkpt>
      <trkpt lat="45.16689" lon="5.8727">
        <ele>949.41</ele>
        <time>2019-06-03T07:53:17.000Z</time>
      </trkpt>
      <trkpt lat="45.16684" lon="5.87299">
        <ele>953.09</ele>
        <time>2019-06-03T07:53:22.000Z</time>
      </trkpt>
      <trkpt lat="45.16677" lon="5.87328">
        <ele>949.92</ele>
        <time>2019-06-03T07:53:27.000Z</time>
      </trkpt>
      <trkpt lat="45.16673" lon="5.87361">
        <ele>949.99</ele>
        <time>2019-06-03T07:53:32.000Z</time>
      </trkpt>
      <trkpt lat="45.16664" lon="5.87384">
        <ele>946.14</ele>
        <time>2019-06-03T07:53:37.000Z</time>
      </trkpt>
      <trkpt lat="45.16658" lon="5.87418">
        <ele>949.73</ele>
        <time>2019-06-03T07:53:42.000Z</time>
      </trkpt>
      <trkpt lat="45.16656" lon="5.87446">
        <ele>952.91</ele>
        <time>2019-06-03T07:53:47.000Z</time>
      </trkpt>
      <trkpt lat="45.16655" lon="5.87478">
        <ele>954.7</ele>
        <time>2019-06-03T07:53:52.000Z</time>
      </trkpt>
      <trkpt lat="45.16638" lon="5.87505">
        <ele>954.16</ele>
        <time>2019-06-03T07:53:57.000Z</time>
      </trkpt>
      <trkpt lat="45.16616" lon="5.87513">
        <ele>954.87</ele>
        <time>2019-06-03T07:54:02.000Z</time>
      </trkpt>
      <trkpt lat="45.16593" lon="5.87524">
        <ele>954.68</ele>
        <time>2019-06-03T07:54:07.000Z</time>
      </trkpt>
      <trkpt lat="45.16567" lon="5.87536">
        <ele>957.58</ele>
        <time>2019-06-03T07:54:12.000Z</time>
      </trkpt>
      <trkpt lat="45.16547" lon="5.87537">
        <ele>961.15</ele>
        <time>2019-06-03T07:54:17.000Z</time>
      </trkpt>
      <trkpt lat="45.16523" lon="5.87539">
        <ele>964.18</ele>
        <time>2019-06-03T07:54:22.000Z</time>
      </trkpt>
      <trkpt lat="45.16496" lon="5.8756">
        <ele>960.35</ele>
        <time>2019-06-03T07:54:27.000Z</time>
      </trkpt>
      <trkpt lat="45.16482" lon="5.87602">
        <ele>960.07</ele>
        <time>2019-06-03T07:54:32.000Z</time>
      </trkpt>
      <trkpt lat="45.16471" lon="5.87622">
        <ele>962.57</ele>
        <time>2019-06-03T07:54:37.000Z</time>
      </trkpt>
      <trkpt lat="45.16453" lon="5.87638">
        <ele>962.19</ele>
        <time>2019-06-03T07:54:42.000Z</time>
      </trkpt>
      <trkpt lat="45.16434" lon="5.87652">
        <ele>967.54</ele>
        <time>2019-06-03T07:54:47.000Z</time>
      </trkpt>
      <trkpt lat="45.16418" lon="5.87659">
        <ele>971.61</ele>
        <time>2019-06-03T07:54:52.000Z</time>
      </trkpt>
      <trkpt lat="45.164" lon="5.8767">
        <ele>973.44</ele>
        <time>2019-06-03T07:54:57.000Z</time>
      </trkpt>
      <trkpt lat="45.16387" lon="5.87683">
        <ele>974.74</ele>
        <time>2019-06-03T07:55:02.000Z</time>
      </trkpt>
      <trkpt lat="45.16377" lon="5.87705">
        <ele>974.31</ele>
        <time>2019-06-03T07:55:07.000Z</time>
      </trkpt>
      <trkpt lat="45.16366" lon="5.87729">
        <ele>971.76</ele>
        <time>2019-06-03T07:55:12.000Z</time>
      </trkpt>
      <trkpt lat="45.16351" lon="5.87743">
        <ele>977.12</ele>
        <time>2019-06-03T07:55:17.000Z</time>
      </trkpt>
      <trkpt lat="45.16338" lon="5.87744">
        <ele>977.16</ele>
        <time>2019-06-03T07:55:22.000Z</time>
      </trkpt>
      <trkpt lat="45.16319" lon="5.87743">
        <ele>973.04</ele>
        <time>2019-06-03T07:55:27.000Z</time>
      </trkpt>
      <trkpt lat="45.1629" lon="5.87738">
        <ele>971.47</ele>
        <time>2019-06-03T07:55:32.000Z</time>
      </trkpt>
      <trkpt lat="45.1627" lon="5.87742">
        <ele>973.73</ele>
        <time>2019-06-03T07:55:37.000Z</time>
      </trkpt>
      <trkpt lat="45.16252" lon="5.87743">
        <ele>977.8</ele>
        <time>2019-06-03T07:55:42.000Z</time>
      </trkpt>
      <trkpt lat="45.16231" lon="5.87753">
        <ele>982.25</ele>
        <time>2019-06-03T07:55:47.000Z</time>
      </trkpt>
      <trkpt lat="45.16205" lon="5.87768">
        <ele>979.36</ele>
        <time>2019-06-03T07:55:52.000Z</time>
      </trkpt>
      <trkpt lat="45.16187" lon="5.87814">
        <ele>974.78</ele>
        <time>2019-06-03T07:55:57.000Z</time>
      </trkpt>
      <trkpt lat="45.16167" lon="5.87842">
        <ele>975.58</ele>
        <time>2019-06-03T07:56:02.000Z</time>
      </trkpt>
      <trkpt lat="45.16128" lon="5.87823">
        <ele>972.48</ele>
        <time>2019-06-03T07:56:07.000Z</time>
      </trkpt>
      <trkpt lat="45.16097" lon="5.87821">
        <ele>970.27</ele>
        <time>2019-06-03T07:56:12.000Z</time>
      </trkpt>
      <trkpt lat="45.1608" lon="5.87846">
        <ele>971.73</ele>
        <time>2019-06-03T07:56:17.000Z</time>
      </trkpt>
      <trkpt lat="45.16078" lon="5.87872">
        <ele>977.48</ele>
        <time>2019-06-03T07:56:22.000Z</time>
      </trkpt>
      <trkpt lat="45.16067" lon="5.87897">
        <ele>979.95</ele>
        <time>2019-06-03T07:56:27.000Z</time>
      </trkpt>
      <trkpt lat="45.16054" lon="5.87916">
        <ele>984.12</ele>
        <time>2019-06-03T07:56:32.000Z</time>
      </trkpt>
      <trkpt lat="45.16038" lon="5.87931">
        <ele>989.75</ele>
        <time>2019-06-03T07:56:37.000Z</time>
      </trkpt>
      <trkpt lat="45.16023" lon="5.87941">
        <ele>990.91</ele>
        <time>2019-06-03T07:56:42.000Z</time>
      </trkpt>
      <trkpt lat="45.16005" lon="5.87958">
        <ele>989.79</ele>
        <time>2019-06-03T07:56:47.000Z</time>
      </trkpt>
      <trkpt lat="45.15982" lon="5.87968">
        <ele>988.58</ele>
        <time>2019-06-03T07:56:52.000Z</time>
      </trkpt>
      <trkpt lat="45.15968" lon="5.87953">
        <ele>990.56</ele>
        <time>2019-06-03T07:56:57.000Z</time>
      </trkpt>
      <trkpt lat="45.15952" lon="5.87923">
        <ele>985.52</ele>
        <time>2019-06-03T07:57:02.000Z</time>
      </trkpt>
      <trkpt lat="45.15945" lon="5.87894">
        <ele>986.46</ele>
        <time>2019-06-03T07:57:07.000Z</time>
      </trkpt>
      <trkpt lat="45.1594" lon="5.87856">
        <ele>986.5</ele>
        <time>2019-06-03T07:57:12.000Z</time>
      </trkpt>
      <trkpt lat="45.15964" lon="5.87825">
        <ele>993.28</ele>
        <time>2019-06-03T07:57:17.000Z</time>
      </trkpt>
      <trkpt lat="45.15973" lon="5.87799">
        <ele>994.96</ele>
        <time>2019-06-03T07:57:22.000Z</time>
      </trkpt>
      <trkpt lat="45.15979" lon="5.87769">
        <ele>995.04</ele>
        <time>2019-06-03T07:57:27.000Z</time>
      </trkpt>
      <trkpt lat="45.15987" lon="5.87743">
        <ele>997.46</ele>
        <time>2019-06-03T07:57:32.000Z</time>
      </trkpt>
      <trkpt lat="45.16005" lon="5.87718">
        <ele>1000.01</ele>
        <time>2019-06-03T07:57:37.000Z</time>
      </trkpt>
      <trkpt lat="45.16012" lon="5.87681">
        <ele>995.49</ele>
        <time>2019-06-03T07:57:42.000Z</time>
      </trkpt>
      <trkpt lat="45.16015" lon="5.87647">
        <ele>997.95</ele>
        <time>2019-06-03T07:57:47.000Z</time>
      </trkpt>
      <trkpt lat="45.16012" lon="5.87622">
        <ele>998.79</ele>
        <time>2019-06-03T07:57:52.000Z</time>
      </trkpt>
      <trkpt lat="45.16012" lon="5.87594">
        <ele>1000.72</ele>
        <time>2019-06-03T07:57:57.000Z</time>
      </trkpt>
      <trkpt lat="45.16007" lon="5.87564">
        <ele>1004.74</ele>
        <time>2019-06-03T07:58:02.000Z</time>
      </trkpt>
      <trkpt lat="45.16001" lon="5.87543">
        <ele>1007.08</ele>
        <time>2019-06-03T07:58:07.000Z</time>
      </trkpt>
      <trkpt lat="45.15989" lon="5.87511">
        <ele>1008.55</ele>
        <time>2019-06-03T07:58:12.000Z</time>
      </trkpt>
      <trkpt lat="45.15963" lon="5.87491">
        <ele>1009.25</ele>
        <time>2019-06-03T07:58:17.000Z</time>
      </trkpt>
      <trkpt lat="45.15946" lon="5.87472">
        <ele>1010.16</ele>
        <time>2019-06-03T07:58:22.000Z</time>
      </trkpt>
      <trkpt lat="45.15932" lon="5.8746">
        <ele>1014</ele>
        <time>2019-06-03T07:58:27.000Z</time>
      </trkpt>
      <trkpt lat="45.15916" lon="5.8745">
        <ele>1014.44</ele>
        <time>2019-06-03T07:58:32.000Z</time>
      </trkpt>
      <trkpt lat="45.15898" lon="5.8743">
        <ele>1017.95</ele>
        <time>2019-06-03T07:58:37.000Z</time>
      </trkpt>
      <trkpt lat="45.15879" lon="5.87397">
        <ele>1017.39</ele>
        <time>2019-06-03T07:58:42.000Z</time>
      </trkpt>
      <trkpt lat="45.15867" lon="5.87377">
        <ele>1017.71</ele>
        <time>2019-06-03T07:58:47.000Z</time>
      </trkpt>
      <trkpt lat="45.15837" lon="5.87365">
        <ele>1015.68</ele>
        <time>2019-06-03T07:58:52.000Z</time>
      </trkpt>
      <trkpt lat="45.15817" lon="5.87365">
        <ele>1019</ele>
        <time>2019-06-03T07:58:57.000Z</time>
      </trkpt>
      <trkpt lat="45.15796" lon="5.87365">
        <ele>1020.99</ele>
        <time>2019-06-03T07:59:02.000Z</time>
      </trkpt>
      <trkpt lat="45.1577" lon="5.87368">
        <ele>1020.34</ele>
        <time>2019-06-03T07:59:07.000Z</time>
      </trkpt>
      <trkpt lat="45.15748" lon="5.87365">
        <ele>1024.53</ele>
        <time>2019-06-03T07:59:12.000Z</time>
      </trkpt>
      <trkpt lat="45.15729" lon="5.87356">
        <ele>1030.27</ele>
        <time>2019-06-03T07:59:17.000Z</time>
      </trkpt>
      <trkpt lat="45.1571" lon="5.87343">
        <ele>1031.21</ele>
        <time>2019-06-03T07:59:22.000Z</time>
      </trkpt>
      <trkpt lat="45.15684" lon="5.87344">
        <ele>1031.43</ele>
        <time>2019-06-03T07:59:27.000Z</time>
      </trkpt>
      <trkpt lat="45.15659" lon="5.87365">
        <ele>1030.8</ele>
        <time>2019-06-03T07:59:32.000Z</time>
      </trkpt>
      <trkpt lat="45.15637" lon="5.87373">
        <ele>1031.72</ele>
        <time>2019-06-03T07:59:37.000Z</time>
      </trkpt>
      <trkpt lat="45.15619" lon="5.87364">
        <ele>1032.98</ele>
        <time>2019-06-03T07:59:42.000Z</time>
      </trkpt>
      <trkpt lat="45.15595" lon="5.87368">
        <ele>1038.64</ele>
        <time>2019-06-03T07:59:47.000Z</time>
      </trkpt>
      <trkpt lat="45.1557" lon="5.87374">
        <ele>1039.1</ele>
        <time>2019-06-03T07:59:52.000Z</time>
      </trkpt>
      <trkpt lat="45.15548" lon="5.87376">
        <ele>1041.13</ele>
        <time>2019-06-03T07:59:57.000Z</time>
      </trkpt>
      <trkpt lat="45.15526" lon="5.87371">
        <ele>1042.82</ele>
        <time>2019-06-03T08:00:02.000Z</time>
      </trkpt>
      <trkpt lat="45.15512" lon="5.87367">
        <ele>1047.72</ele>
        <time>2019-06-03T08:00:07.000Z</time>
      </trkpt>
      <trkpt lat="45.15503" lon="5.87339">
        <ele>1046.71</ele>
        <time>2019-06-03T08:00:12.000Z</time>
      </trkpt>
      <trkpt lat="45.15497" lon="5.87311">
        <ele>1044.02</ele>
        <time>2019-06-03T08:00:17.000Z</time>
      </trkpt>
      <trkpt lat="45.15497" lon="5.87279">
        <ele>1044.26</ele>
        <time>2019-06-03T08:00:22.000Z</time>
      </trkpt>
      <trkpt lat="45.15501" lon="5.87251">
        <ele>1038.6</ele>
        <time>2019-06-03T08:00:27.000Z</time>
      </trkpt>
      <trkpt lat="45.15502" lon="5.87222">
        <ele>1037.71</ele>
        <time>2019-06-03T08:00:32.000Z</time>
      </trkpt>
      <trkpt lat="45.15501" lon="5.87198">
        <ele>1045.07</ele>
        <time>2019-06-03T08:00:37.000Z</time>
      </trkpt>
      <trkpt lat="45.15499" lon="5.87175">
        <ele>1044.85</ele>
        <time>2019-06-03T08:00:42.000Z</time>
      </trkpt>
      <trkpt lat="45.15487" lon="5.87151">
        <ele>1042.57</ele>
        <time>2019-06-03T08:00:47.000Z</time>
      </trkpt>
      <trkpt lat="45.15475" lon="5.87131">
        <ele>1044.35</ele>
        <time>2019-06-03T08:00:52.000Z</time>
      </trkpt>
      <trkpt lat="45.15466" lon="5.87125">
        <ele>1044.59</ele>
        <time>2019-06-03T08:01:03.000Z</time>
      </trkpt>
      <trkpt lat="45.15456" lon="5.87123">
        <ele>1045.06</ele>
        <time>2019-06-03T08:02:38.000Z</time>
      </trkpt>
      <trkpt lat="45.1544" lon="5.8712">
        <ele>1043.66</ele>
        <time>2019-06-03T08:02:43.000Z</time>
      </trkpt>
      <trkpt lat="45.15423" lon="5.87141">
        <ele>1043.69</ele>
        <time>2019-06-03T08:02:48.000Z</time>
      </trkpt>
      <trkpt lat="45.15411" lon="5.87171">
        <ele>1049.43</ele>
        <time>2019-06-03T08:02:53.000Z</time>
      </trkpt>
      <trkpt lat="45.15408" lon="5.87208">
        <ele>1055.49</ele>
        <time>2019-06-03T08:02:58.000Z</time>
      </trkpt>
      <trkpt lat="45.15411" lon="5.87248">
        <ele>1059.94</ele>
        <time>2019-06-03T08:03:03.000Z</time>
      </trkpt>
      <trkpt lat="45.1541" lon="5.87284">
        <ele>1060.96</ele>
        <time>2019-06-03T08:03:08.000Z</time>
      </trkpt>
      <trkpt lat="45.15415" lon="5.87326">
        <ele>1066.07</ele>
        <time>2019-06-03T08:03:13.000Z</time>
      </trkpt>
      <trkpt lat="45.15413" lon="5.87364">
        <ele>1066.87</ele>
        <time>2019-06-03T08:03:18.000Z</time>
      </trkpt>
      <trkpt lat="45.15405" lon="5.87398">
        <ele>1068.8</ele>
        <time>2019-06-03T08:03:23.000Z</time>
      </trkpt>
      <trkpt lat="45.15396" lon="5.87433">
        <ele>1070.74</ele>
        <time>2019-06-03T08:03:28.000Z</time>
      </trkpt>
      <trkpt lat="45.15389" lon="5.87469">
        <ele>1070.77</ele>
        <time>2019-06-03T08:03:33.000Z</time>
      </trkpt>
      <trkpt lat="45.15391" lon="5.87506">
        <ele>1073.5</ele>
        <time>2019-06-03T08:03:38.000Z</time>
      </trkpt>
      <trkpt lat="45.15398" lon="5.8754">
        <ele>1075.32</ele>
        <time>2019-06-03T08:03:43.000Z</time>
      </trkpt>
      <trkpt lat="45.15401" lon="5.87579">
        <ele>1075.5</ele>
        <time>2019-06-03T08:03:48.000Z</time>
      </trkpt>
      <trkpt lat="45.15408" lon="5.87612">
        <ele>1077.73</ele>
        <time>2019-06-03T08:03:53.000Z</time>
      </trkpt>
      <trkpt lat="45.15416" lon="5.87646">
        <ele>1082.99</ele>
        <time>2019-06-03T08:03:58.000Z</time>
      </trkpt>
      <trkpt lat="45.15413" lon="5.87682">
        <ele>1081.75</ele>
        <time>2019-06-03T08:04:03.000Z</time>
      </trkpt>
      <trkpt lat="45.15417" lon="5.87719">
        <ele>1082.76</ele>
        <time>2019-06-03T08:04:08.000Z</time>
      </trkpt>
      <trkpt lat="45.15415" lon="5.87758">
        <ele>1082.63</ele>
        <time>2019-06-03T08:04:13.000Z</time>
      </trkpt>
      <trkpt lat="45.15416" lon="5.87796">
        <ele>1084.68</ele>
        <time>2019-06-03T08:04:18.000Z</time>
      </trkpt>
      <trkpt lat="45.15412" lon="5.8783">
        <ele>1082.37</ele>
        <time>2019-06-03T08:04:23.000Z</time>
      </trkpt>
      <trkpt lat="45.15418" lon="5.87871">
        <ele>1083.91</ele>
        <time>2019-06-03T08:04:28.000Z</time>
      </trkpt>
      <trkpt lat="45.15421" lon="5.87906">
        <ele>1090.26</ele>
        <time>2019-06-03T08:04:33.000Z</time>
      </trkpt>
      <trkpt lat="45.15413" lon="5.87942">
        <ele>1084.08</ele>
        <time>2019-06-03T08:04:38.000Z</time>
      </trkpt>
      <trkpt lat="45.15411" lon="5.87978">
        <ele>1086.51</ele>
        <time>2019-06-03T08:04:43.000Z</time>
      </trkpt>
      <trkpt lat="45.15395" lon="5.88011">
        <ele>1088.01</ele>
        <time>2019-06-03T08:04:48.000Z</time>
      </trkpt>
      <trkpt lat="45.15376" lon="5.88039">
        <ele>1091.97</ele>
        <time>2019-06-03T08:04:53.000Z</time>
      </trkpt>
      <trkpt lat="45.15359" lon="5.88061">
        <ele>1093.9</ele>
        <time>2019-06-03T08:04:58.000Z</time>
      </trkpt>
      <trkpt lat="45.15349" lon="5.88092">
        <ele>1095.68</ele>
        <time>2019-06-03T08:05:03.000Z</time>
      </trkpt>
      <trkpt lat="45.15346" lon="5.88128">
        <ele>1098.93</ele>
        <time>2019-06-03T08:05:08.000Z</time>
      </trkpt>
      <trkpt lat="45.15347" lon="5.88161">
        <ele>1098.07</ele>
        <time>2019-06-03T08:05:13.000Z</time>
      </trkpt>
      <trkpt lat="45.15347" lon="5.88195">
        <ele>1102.4</ele>
        <time>2019-06-03T08:05:18.000Z</time>
      </trkpt>
      <trkpt lat="45.15339" lon="5.88229">
        <ele>1102.39</ele>
        <time>2019-06-03T08:05:23.000Z</time>
      </trkpt>
      <trkpt lat="45.1533" lon="5.88263">
        <ele>1105.31</ele>
        <time>2019-06-03T08:05:28.000Z</time>
      </trkpt>
      <trkpt lat="45.15319" lon="5.88297">
        <ele>1105.84</ele>
        <time>2019-06-03T08:05:33.000Z</time>
      </trkpt>
      <trkpt lat="45.15309" lon="5.88329">
        <ele>1109.83</ele>
        <time>2019-06-03T08:05:38.000Z</time>
      </trkpt>
      <trkpt lat="45.153" lon="5.8836">
        <ele>1110.53</ele>
        <time>2019-06-03T08:05:43.000Z</time>
      </trkpt>
      <trkpt lat="45.15296" lon="5.88393">
        <ele>1114.22</ele>
        <time>2019-06-03T08:05:48.000Z</time>
      </trkpt>
      <trkpt lat="45.15282" lon="5.88422">
        <ele>1116.37</ele>
        <time>2019-06-03T08:05:53.000Z</time>
      </trkpt>
      <trkpt lat="45.15264" lon="5.88451">
        <ele>1117.57</ele>
        <time>2019-06-03T08:05:58.000Z</time>
      </trkpt>
      <trkpt lat="45.15242" lon="5.88471">
        <ele>1115.42</ele>
        <time>2019-06-03T08:06:03.000Z</time>
      </trkpt>
      <trkpt lat="45.15221" lon="5.88496">
        <ele>1116.22</ele>
        <time>2019-06-03T08:06:08.000Z</time>
      </trkpt>
      <trkpt lat="45.15203" lon="5.88526">
        <ele>1117.22</ele>
        <time>2019-06-03T08:06:13.000Z</time>
      </trkpt>
      <trkpt lat="45.15194" lon="5.88563">
        <ele>1116.81</ele>
        <time>2019-06-03T08:06:18.000Z</time>
      </trkpt>
      <trkpt lat="45.15188" lon="5.88599">
        <ele>1120</ele>
        <time>2019-06-03T08:06:23.000Z</time>
      </trkpt>
      <trkpt lat="45.15182" lon="5.88635">
        <ele>1122.58</ele>
        <time>2019-06-03T08:06:28.000Z</time>
      </trkpt>
      <trkpt lat="45.15183" lon="5.88672">
        <ele>1130.15</ele>
        <time>2019-06-03T08:06:33.000Z</time>
      </trkpt>
      <trkpt lat="45.15161" lon="5.88688">
        <ele>1126.83</ele>
        <time>2019-06-03T08:06:38.000Z</time>
      </trkpt>
      <trkpt lat="45.15138" lon="5.88672">
        <ele>1119.1</ele>
        <time>2019-06-03T08:06:43.000Z</time>
      </trkpt>
      <trkpt lat="45.1514" lon="5.88641">
        <ele>1118.61</ele>
        <time>2019-06-03T08:06:48.000Z</time>
      </trkpt>
      <trkpt lat="45.15149" lon="5.88607">
        <ele>1120.5</ele>
        <time>2019-06-03T08:06:53.000Z</time>
      </trkpt>
      <trkpt lat="45.1516" lon="5.88572">
        <ele>1128.78</ele>
        <time>2019-06-03T08:06:58.000Z</time>
      </trkpt>
      <trkpt lat="45.15167" lon="5.88538">
        <ele>1130.84</ele>
        <time>2019-06-03T08:07:03.000Z</time>
      </trkpt>
      <trkpt lat="45.15169" lon="5.88509">
        <ele>1130.61</ele>
        <time>2019-06-03T08:07:08.000Z</time>
      </trkpt>
      <trkpt lat="45.15174" lon="5.8848">
        <ele>1133.94</ele>
        <time>2019-06-03T08:07:13.000Z</time>
      </trkpt>
      <trkpt lat="45.15179" lon="5.88448">
        <ele>1133.97</ele>
        <time>2019-06-03T08:07:18.000Z</time>
      </trkpt>
      <trkpt lat="45.1519" lon="5.88421">
        <ele>1136.73</ele>
        <time>2019-06-03T08:07:23.000Z</time>
      </trkpt>
      <trkpt lat="45.152" lon="5.88396">
        <ele>1138.46</ele>
        <time>2019-06-03T08:07:28.000Z</time>
      </trkpt>
      <trkpt lat="45.15209" lon="5.88366">
        <ele>1138.91</ele>
        <time>2019-06-03T08:07:33.000Z</time>
      </trkpt>
      <trkpt lat="45.15217" lon="5.88337">
        <ele>1142.25</ele>
        <time>2019-06-03T08:07:38.000Z</time>
      </trkpt>
      <trkpt lat="45.15212" lon="5.88307">
        <ele>1141.7</ele>
        <time>2019-06-03T08:07:43.000Z</time>
      </trkpt>
      <trkpt lat="45.152" lon="5.88273">
        <ele>1142.61</ele>
        <time>2019-06-03T08:07:48.000Z</time>
      </trkpt>
      <trkpt lat="45.15198" lon="5.88244">
        <ele>1140.99</ele>
        <time>2019-06-03T08:07:53.000Z</time>
      </trkpt>
      <trkpt lat="45.15198" lon="5.88212">
        <ele>1143.45</ele>
        <time>2019-06-03T08:07:58.000Z</time>
      </trkpt>
      <trkpt lat="45.15198" lon="5.88183">
        <ele>1147.49</ele>
        <time>2019-06-03T08:08:03.000Z</time>
      </trkpt>
      <trkpt lat="45.15193" lon="5.8815">
        <ele>1148.58</ele>
        <time>2019-06-03T08:08:08.000Z</time>
      </trkpt>
      <trkpt lat="45.15191" lon="5.88118">
        <ele>1147.84</ele>
        <time>2019-06-03T08:08:13.000Z</time>
      </trkpt>
      <trkpt lat="45.15183" lon="5.88086">
        <ele>1146.56</ele>
        <time>2019-06-03T08:08:18.000Z</time>
      </trkpt>
      <trkpt lat="45.15178" lon="5.88057">
        <ele>1148.51</ele>
        <time>2019-06-03T08:08:23.000Z</time>
      </trkpt>
      <trkpt lat="45.1517" lon="5.88027">
        <ele>1146.89</ele>
        <time>2019-06-03T08:08:28.000Z</time>
      </trkpt>
      <trkpt lat="45.15165" lon="5.87996">
        <ele>1144.89</ele>
        <time>2019-06-03T08:08:33.000Z</time>
      </trkpt>
      <trkpt lat="45.15159" lon="5.87966">
        <ele>1145.42</ele>
        <time>2019-06-03T08:08:38.000Z</time>
      </trkpt>
      <trkpt lat="45.15152" lon="5.87933">
        <ele>1147.95</ele>
        <time>2019-06-03T08:08:43.000Z</time>
      </trkpt>
      <trkpt lat="45.15144" lon="5.87901">
        <ele>1150.63</ele>
        <time>2019-06-03T08:08:48.000Z</time>
      </trkpt>
      <trkpt lat="45.15141" lon="5.87878">
        <ele>1151.07</ele>
        <time>2019-06-03T08:08:53.000Z</time>
      </trkpt>
      <trkpt lat="45.15136" lon="5.87852">
        <ele>1156.65</ele>
        <time>2019-06-03T08:08:58.000Z</time>
      </trkpt>
      <trkpt lat="45.15122" lon="5.87831">
        <ele>1154.76</ele>
        <time>2019-06-03T08:09:03.000Z</time>
      </trkpt>
      <trkpt lat="45.15104" lon="5.87795">
        <ele>1154.79</ele>
        <time>2019-06-03T08:09:08.000Z</time>
      </trkpt>
      <trkpt lat="45.15098" lon="5.87764">
        <ele>1157.8</ele>
        <time>2019-06-03T08:09:13.000Z</time>
      </trkpt>
      <trkpt lat="45.15086" lon="5.87733">
        <ele>1160.18</ele>
        <time>2019-06-03T08:09:18.000Z</time>
      </trkpt>
      <trkpt lat="45.15079" lon="5.87704">
        <ele>1168.77</ele>
        <time>2019-06-03T08:09:23.000Z</time>
      </trkpt>
      <trkpt lat="45.15072" lon="5.87671">
        <ele>1168.2</ele>
        <time>2019-06-03T08:09:28.000Z</time>
      </trkpt>
      <trkpt lat="45.15067" lon="5.87637">
        <ele>1171</ele>
        <time>2019-06-03T08:09:33.000Z</time>
      </trkpt>
      <trkpt lat="45.15071" lon="5.87607">
        <ele>1174.65</ele>
        <time>2019-06-03T08:09:38.000Z</time>
      </trkpt>
      <trkpt lat="45.15072" lon="5.87576">
        <ele>1174.37</ele>
        <time>2019-06-03T08:09:43.000Z</time>
      </trkpt>
      <trkpt lat="45.15075" lon="5.87543">
        <ele>1180.61</ele>
        <time>2019-06-03T08:09:48.000Z</time>
      </trkpt>
      <trkpt lat="45.15068" lon="5.87509">
        <ele>1179.79</ele>
        <time>2019-06-03T08:09:53.000Z</time>
      </trkpt>
      <trkpt lat="45.15057" lon="5.87477">
        <ele>1181.81</ele>
        <time>2019-06-03T08:09:58.000Z</time>
      </trkpt>
      <trkpt lat="45.15038" lon="5.87457">
        <ele>1182.65</ele>
        <time>2019-06-03T08:10:03.000Z</time>
      </trkpt>
      <trkpt lat="45.15016" lon="5.87452">
        <ele>1184.88</ele>
        <time>2019-06-03T08:10:08.000Z</time>
      </trkpt>
      <trkpt lat="45.14998" lon="5.87468">
        <ele>1185.83</ele>
        <time>2019-06-03T08:10:13.000Z</time>
      </trkpt>
      <trkpt lat="45.14981" lon="5.8749">
        <ele>1190.75</ele>
        <time>2019-06-03T08:10:18.000Z</time>
      </trkpt>
      <trkpt lat="45.14962" lon="5.8751">
        <ele>1194.3</ele>
        <time>2019-06-03T08:10:23.000Z</time>
      </trkpt>
      <trkpt lat="45.14943" lon="5.87525">
        <ele>1197.16</ele>
        <time>2019-06-03T08:10:28.000Z</time>
      </trkpt>
      <trkpt lat="45.14923" lon="5.87538">
        <ele>1199.56</ele>
        <time>2019-06-03T08:10:33.000Z</time>
      </trkpt>
      <trkpt lat="45.14901" lon="5.87549">
        <ele>1201.24</ele>
        <time>2019-06-03T08:10:38.000Z</time>
      </trkpt>
      <trkpt lat="45.1488" lon="5.87555">
        <ele>1202.77</ele>
        <time>2019-06-03T08:10:43.000Z</time>
      </trkpt>
      <trkpt lat="45.14842" lon="5.87552">
        <ele>1202.72</ele>
        <time>2019-06-03T08:10:51.000Z</time>
      </trkpt>
      <trkpt lat="45.14816" lon="5.87544">
        <ele>1205.08</ele>
        <time>2019-06-03T08:10:56.000Z</time>
      </trkpt>
      <trkpt lat="45.14794" lon="5.87539">
        <ele>1199.99</ele>
        <time>2019-06-03T08:11:01.000Z</time>
      </trkpt>
      <trkpt lat="45.14771" lon="5.87531">
        <ele>1200.87</ele>
        <time>2019-06-03T08:11:06.000Z</time>
      </trkpt>
      <trkpt lat="45.14749" lon="5.8752">
        <ele>1203.16</ele>
        <time>2019-06-03T08:11:11.000Z</time>
      </trkpt>
      <trkpt lat="45.14726" lon="5.87509">
        <ele>1208.47</ele>
        <time>2019-06-03T08:11:16.000Z</time>
      </trkpt>
      <trkpt lat="45.14708" lon="5.87506">
        <ele>1209.47</ele>
        <time>2019-06-03T08:11:21.000Z</time>
      </trkpt>
      <trkpt lat="45.14689" lon="5.87504">
        <ele>1213.97</ele>
        <time>2019-06-03T08:11:26.000Z</time>
      </trkpt>
      <trkpt lat="45.14671" lon="5.87507">
        <ele>1218.03</ele>
        <time>2019-06-03T08:11:31.000Z</time>
      </trkpt>
      <trkpt lat="45.14643" lon="5.87499">
        <ele>1219.04</ele>
        <time>2019-06-03T08:11:36.000Z</time>
      </trkpt>
      <trkpt lat="45.14618" lon="5.8749">
        <ele>1220.35</ele>
        <time>2019-06-03T08:11:41.000Z</time>
      </trkpt>
      <trkpt lat="45.14594" lon="5.8748">
        <ele>1219.55</ele>
        <time>2019-06-03T08:11:46.000Z</time>
      </trkpt>
      <trkpt lat="45.14569" lon="5.87472">
        <ele>1223.52</ele>
        <time>2019-06-03T08:11:51.000Z</time>
      </trkpt>
      <trkpt lat="45.14548" lon="5.8747">
        <ele>1226.87</ele>
        <time>2019-06-03T08:11:56.000Z</time>
      </trkpt>
      <trkpt lat="45.14526" lon="5.87466">
        <ele>1228.24</ele>
        <time>2019-06-03T08:12:01.000Z</time>
      </trkpt>
      <trkpt lat="45.14503" lon="5.8746">
        <ele>1226.42</ele>
        <time>2019-06-03T08:12:06.000Z</time>
      </trkpt>
      <trkpt lat="45.14482" lon="5.87443">
        <ele>1226.5</ele>
        <time>2019-06-03T08:12:11.000Z</time>
      </trkpt>
      <trkpt lat="45.14465" lon="5.87432">
        <ele>1221.13</ele>
        <time>2019-06-03T08:12:16.000Z</time>
      </trkpt>
      <trkpt lat="45.14448" lon="5.87415">
        <ele>1223.21</ele>
        <time>2019-06-03T08:12:21.000Z</time>
      </trkpt>
      <trkpt lat="45.14428" lon="5.87405">
        <ele>1221.74</ele>
        <time>2019-06-03T08:12:26.000Z</time>
      </trkpt>
      <trkpt lat="45.14405" lon="5.87404">
        <ele>1228.08</ele>
        <time>2019-06-03T08:12:31.000Z</time>
      </trkpt>
      <trkpt lat="45.14385" lon="5.87406">
        <ele>1230.61</ele>
        <time>2019-06-03T08:12:36.000Z</time>
      </trkpt>
      <trkpt lat="45.14363" lon="5.87413">
        <ele>1234.83</ele>
        <time>2019-06-03T08:12:41.000Z</time>
      </trkpt>
      <trkpt lat="45.14333" lon="5.87419">
        <ele>1234.88</ele>
        <time>2019-06-03T08:12:46.000Z</time>
      </trkpt>
      <trkpt lat="45.14319" lon="5.87433">
        <ele>1235.71</ele>
        <time>2019-06-03T08:12:51.000Z</time>
      </trkpt>
      <trkpt lat="45.14293" lon="5.87439">
        <ele>1236.86</ele>
        <time>2019-06-03T08:12:56.000Z</time>
      </trkpt>
      <trkpt lat="45.14272" lon="5.87448">
        <ele>1238.54</ele>
        <time>2019-06-03T08:13:01.000Z</time>
      </trkpt>
      <trkpt lat="45.14249" lon="5.87456">
        <ele>1239.87</ele>
        <time>2019-06-03T08:13:06.000Z</time>
      </trkpt>
      <trkpt lat="45.14225" lon="5.87456">
        <ele>1242.22</ele>
        <time>2019-06-03T08:13:11.000Z</time>
      </trkpt>
      <trkpt lat="45.142" lon="5.87449">
        <ele>1247.64</ele>
        <time>2019-06-03T08:13:16.000Z</time>
      </trkpt>
      <trkpt lat="45.14177" lon="5.8745">
        <ele>1251.23</ele>
        <time>2019-06-03T08:13:21.000Z</time>
      </trkpt>
      <trkpt lat="45.14156" lon="5.87451">
        <ele>1255.04</ele>
        <time>2019-06-03T08:13:26.000Z</time>
      </trkpt>
      <trkpt lat="45.14128" lon="5.87455">
        <ele>1253.65</ele>
        <time>2019-06-03T08:13:31.000Z</time>
      </trkpt>
      <trkpt lat="45.14105" lon="5.87464">
        <ele>1256.61</ele>
        <time>2019-06-03T08:13:36.000Z</time>
      </trkpt>
      <trkpt lat="45.14088" lon="5.87482">
        <ele>1257.03</ele>
        <time>2019-06-03T08:13:41.000Z</time>
      </trkpt>
      <trkpt lat="45.14072" lon="5.87501">
        <ele>1257.29</ele>
        <time>2019-06-03T08:13:46.000Z</time>
      </trkpt>
      <trkpt lat="45.1405" lon="5.87512">
        <ele>1258.47</ele>
        <time>2019-06-03T08:13:51.000Z</time>
      </trkpt>
      <trkpt lat="45.14028" lon="5.87525">
        <ele>1259.47</ele>
        <time>2019-06-03T08:13:56.000Z</time>
      </trkpt>
      <trkpt lat="45.14" lon="5.87529">
        <ele>1261.22</ele>
        <time>2019-06-03T08:14:01.000Z</time>
      </trkpt>
      <trkpt lat="45.13984" lon="5.87536">
        <ele>1263.48</ele>
        <time>2019-06-03T08:14:06.000Z</time>
      </trkpt>
      <trkpt lat="45.13969" lon="5.87526">
        <ele>1263.4</ele>
        <time>2019-06-03T08:14:11.000Z</time>
      </trkpt>
      <trkpt lat="45.13953" lon="5.87493">
        <ele>1261.11</ele>
        <time>2019-06-03T08:14:16.000Z</time>
      </trkpt>
      <trkpt lat="45.13944" lon="5.87467">
        <ele>1263.1</ele>
        <time>2019-06-03T08:14:21.000Z</time>
      </trkpt>
      <trkpt lat="45.13927" lon="5.8744">
        <ele>1262.75</ele>
        <time>2019-06-03T08:14:26.000Z</time>
      </trkpt>
      <trkpt lat="45.13908" lon="5.87418">
        <ele>1261.46</ele>
        <time>2019-06-03T08:14:31.000Z</time>
      </trkpt>
      <trkpt lat="45.13893" lon="5.87396">
        <ele>1262.65</ele>
        <time>2019-06-03T08:14:36.000Z</time>
      </trkpt>
      <trkpt lat="45.13872" lon="5.87376">
        <ele>1264.59</ele>
        <time>2019-06-03T08:14:41.000Z</time>
      </trkpt>
      <trkpt lat="45.13849" lon="5.87363">
        <ele>1267.76</ele>
        <time>2019-06-03T08:14:46.000Z</time>
      </trkpt>
      <trkpt lat="45.13831" lon="5.87368">
        <ele>1272.44</ele>
        <time>2019-06-03T08:14:51.000Z</time>
      </trkpt>
      <trkpt lat="45.13808" lon="5.87374">
        <ele>1274.52</ele>
        <time>2019-06-03T08:14:56.000Z</time>
      </trkpt>
      <trkpt lat="45.13798" lon="5.87373">
        <ele>1281.04</ele>
        <time>2019-06-03T08:15:01.000Z</time>
      </trkpt>
      <trkpt lat="45.13806" lon="5.87366">
        <ele>1306.62</ele>
        <time>2019-06-03T08:18:54.000Z</time>
      </trkpt>
      <trkpt lat="45.13796" lon="5.8737">
        <ele>1290.05</ele>
        <time>2019-06-03T08:21:58.000Z</time>
      </trkpt>
      <trkpt lat="45.13799" lon="5.87385">
        <ele>1290.59</ele>
        <time>2019-06-03T08:22:08.000Z</time>
      </trkpt>
      <trkpt lat="45.13806" lon="5.87409">
        <ele>1297.47</ele>
        <time>2019-06-03T08:22:13.000Z</time>
      </trkpt>
      <trkpt lat="45.13824" lon="5.87427">
        <ele>1297.53</ele>
        <time>2019-06-03T08:22:18.000Z</time>
      </trkpt>
      <trkpt lat="45.13842" lon="5.87424">
        <ele>1299.49</ele>
        <time>2019-06-03T08:22:23.000Z</time>
      </trkpt>
      <trkpt lat="45.13864" lon="5.87418">
        <ele>1299.26</ele>
        <time>2019-06-03T08:22:28.000Z</time>
      </trkpt>
      <trkpt lat="45.13884" lon="5.87438">
        <ele>1295.02</ele>
        <time>2019-06-03T08:22:33.000Z</time>
      </trkpt>
      <trkpt lat="45.13897" lon="5.87464">
        <ele>1293.54</ele>
        <time>2019-06-03T08:22:38.000Z</time>
      </trkpt>
      <trkpt lat="45.13907" lon="5.87492">
        <ele>1293.72</ele>
        <time>2019-06-03T08:22:43.000Z</time>
      </trkpt>
      <trkpt lat="45.13913" lon="5.87519">
        <ele>1295.63</ele>
        <time>2019-06-03T08:22:48.000Z</time>
      </trkpt>
      <trkpt lat="45.13916" lon="5.87548">
        <ele>1295.38</ele>
        <time>2019-06-03T08:22:53.000Z</time>
      </trkpt>
      <trkpt lat="45.13924" lon="5.87579">
        <ele>1298.85</ele>
        <time>2019-06-03T08:22:58.000Z</time>
      </trkpt>
      <trkpt lat="45.13935" lon="5.87605">
        <ele>1299.96</ele>
        <time>2019-06-03T08:23:03.000Z</time>
      </trkpt>
      <trkpt lat="45.13949" lon="5.87624">
        <ele>1298.98</ele>
        <time>2019-06-03T08:23:08.000Z</time>
      </trkpt>
      <trkpt lat="45.1397" lon="5.87628">
        <ele>1299.08</ele>
        <time>2019-06-03T08:23:13.000Z</time>
      </trkpt>
      <trkpt lat="45.13993" lon="5.87628">
        <ele>1302.82</ele>
        <time>2019-06-03T08:23:18.000Z</time>
      </trkpt>
      <trkpt lat="45.14014" lon="5.87618">
        <ele>1303.03</ele>
        <time>2019-06-03T08:23:23.000Z</time>
      </trkpt>
      <trkpt lat="45.14034" lon="5.87598">
        <ele>1304.57</ele>
        <time>2019-06-03T08:23:28.000Z</time>
      </trkpt>
      <trkpt lat="45.14056" lon="5.87585">
        <ele>1303.23</ele>
        <time>2019-06-03T08:23:33.000Z</time>
      </trkpt>
      <trkpt lat="45.14078" lon="5.87576">
        <ele>1304.18</ele>
        <time>2019-06-03T08:23:38.000Z</time>
      </trkpt>
      <trkpt lat="45.14102" lon="5.87579">
        <ele>1303.89</ele>
        <time>2019-06-03T08:23:43.000Z</time>
      </trkpt>
      <trkpt lat="45.14125" lon="5.8758">
        <ele>1304.07</ele>
        <time>2019-06-03T08:23:48.000Z</time>
      </trkpt>
      <trkpt lat="45.14145" lon="5.87577">
        <ele>1306.87</ele>
        <time>2019-06-03T08:23:53.000Z</time>
      </trkpt>
      <trkpt lat="45.14168" lon="5.87579">
        <ele>1307.92</ele>
        <time>2019-06-03T08:23:58.000Z</time>
      </trkpt>
      <trkpt lat="45.1419" lon="5.87588">
        <ele>1311.53</ele>
        <time>2019-06-03T08:24:03.000Z</time>
      </trkpt>
      <trkpt lat="45.14213" lon="5.87621">
        <ele>1299.46</ele>
        <time>2019-06-03T08:24:08.000Z</time>
      </trkpt>
      <trkpt lat="45.14231" lon="5.87638">
        <ele>1296.88</ele>
        <time>2019-06-03T08:24:13.000Z</time>
      </trkpt>
      <trkpt lat="45.14254" lon="5.87644">
        <ele>1297.66</ele>
        <time>2019-06-03T08:24:18.000Z</time>
      </trkpt>
      <trkpt lat="45.14277" lon="5.87656">
        <ele>1298.86</ele>
        <time>2019-06-03T08:24:23.000Z</time>
      </trkpt>
      <trkpt lat="45.143" lon="5.87659">
        <ele>1305.53</ele>
        <time>2019-06-03T08:24:28.000Z</time>
      </trkpt>
      <trkpt lat="45.14321" lon="5.87675">
        <ele>1310.19</ele>
        <time>2019-06-03T08:24:33.000Z</time>
      </trkpt>
      <trkpt lat="45.14341" lon="5.87685">
        <ele>1317.01</ele>
        <time>2019-06-03T08:24:38.000Z</time>
      </trkpt>
      <trkpt lat="45.1436" lon="5.87698">
        <ele>1318.41</ele>
        <time>2019-06-03T08:24:43.000Z</time>
      </trkpt>
      <trkpt lat="45.14382" lon="5.87704">
        <ele>1318.82</ele>
        <time>2019-06-03T08:24:48.000Z</time>
      </trkpt>
      <trkpt lat="45.14404" lon="5.87711">
        <ele>1320.59</ele>
        <time>2019-06-03T08:24:53.000Z</time>
      </trkpt>
      <trkpt lat="45.14425" lon="5.87726">
        <ele>1320.62</ele>
        <time>2019-06-03T08:24:58.000Z</time>
      </trkpt>
      <trkpt lat="45.14444" lon="5.87749">
        <ele>1322.85</ele>
        <time>2019-06-03T08:25:03.000Z</time>
      </trkpt>
      <trkpt lat="45.14467" lon="5.87769">
        <ele>1320.97</ele>
        <time>2019-06-03T08:25:08.000Z</time>
      </trkpt>
      <trkpt lat="45.14486" lon="5.87793">
        <ele>1322.22</ele>
        <time>2019-06-03T08:25:13.000Z</time>
      </trkpt>
      <trkpt lat="45.14507" lon="5.87806">
        <ele>1326.17</ele>
        <time>2019-06-03T08:25:18.000Z</time>
      </trkpt>
      <trkpt lat="45.14533" lon="5.87811">
        <ele>1326.87</ele>
        <time>2019-06-03T08:25:23.000Z</time>
      </trkpt>
      <trkpt lat="45.14558" lon="5.87822">
        <ele>1325.85</ele>
        <time>2019-06-03T08:25:28.000Z</time>
      </trkpt>
      <trkpt lat="45.14581" lon="5.87833">
        <ele>1329.57</ele>
        <time>2019-06-03T08:25:33.000Z</time>
      </trkpt>
      <trkpt lat="45.14599" lon="5.87854">
        <ele>1332.11</ele>
        <time>2019-06-03T08:25:38.000Z</time>
      </trkpt>
      <trkpt lat="45.1461" lon="5.87883">
        <ele>1335.45</ele>
        <time>2019-06-03T08:25:43.000Z</time>
      </trkpt>
      <trkpt lat="45.14614" lon="5.87914">
        <ele>1336.19</ele>
        <time>2019-06-03T08:25:48.000Z</time>
      </trkpt>
      <trkpt lat="45.14614" lon="5.87945">
        <ele>1338.02</ele>
        <time>2019-06-03T08:25:53.000Z</time>
      </trkpt>
      <trkpt lat="45.14615" lon="5.8798">
        <ele>1340.84</ele>
        <time>2019-06-03T08:25:58.000Z</time>
      </trkpt>
      <trkpt lat="45.14622" lon="5.88006">
        <ele>1340.3</ele>
        <time>2019-06-03T08:26:03.000Z</time>
      </trkpt>
      <trkpt lat="45.14631" lon="5.88037">
        <ele>1341.25</ele>
        <time>2019-06-03T08:26:08.000Z</time>
      </trkpt>
      <trkpt lat="45.14634" lon="5.88069">
        <ele>1340.48</ele>
        <time>2019-06-03T08:26:13.000Z</time>
      </trkpt>
      <trkpt lat="45.14637" lon="5.88096">
        <ele>1340.7</ele>
        <time>2019-06-03T08:26:18.000Z</time>
      </trkpt>
      <trkpt lat="45.14636" lon="5.8813">
        <ele>1343.45</ele>
        <time>2019-06-03T08:26:23.000Z</time>
      </trkpt>
      <trkpt lat="45.14638" lon="5.88163">
        <ele>1345.72</ele>
        <time>2019-06-03T08:26:28.000Z</time>
      </trkpt>
      <trkpt lat="45.14642" lon="5.88195">
        <ele>1350.46</ele>
        <time>2019-06-03T08:26:33.000Z</time>
      </trkpt>
      <trkpt lat="45.14637" lon="5.88223">
        <ele>1348.71</ele>
        <time>2019-06-03T08:26:38.000Z</time>
      </trkpt>
      <trkpt lat="45.1463" lon="5.88257">
        <ele>1348.37</ele>
        <time>2019-06-03T08:26:43.000Z</time>
      </trkpt>
      <trkpt lat="45.1463" lon="5.88293">
        <ele>1351.41</ele>
        <time>2019-06-03T08:26:48.000Z</time>
      </trkpt>
      <trkpt lat="45.14623" lon="5.88326">
        <ele>1355.1</ele>
        <time>2019-06-03T08:26:53.000Z</time>
      </trkpt>
      <trkpt lat="45.14615" lon="5.8836">
        <ele>1357.61</ele>
        <time>2019-06-03T08:26:58.000Z</time>
      </trkpt>
      <trkpt lat="45.14611" lon="5.8839">
        <ele>1361.41</ele>
        <time>2019-06-03T08:27:03.000Z</time>
      </trkpt>
      <trkpt lat="45.14603" lon="5.88427">
        <ele>1360.25</ele>
        <time>2019-06-03T08:27:08.000Z</time>
      </trkpt>
      <trkpt lat="45.14597" lon="5.8846">
        <ele>1362.06</ele>
        <time>2019-06-03T08:27:13.000Z</time>
      </trkpt>
      <trkpt lat="45.14581" lon="5.88487">
        <ele>1361.49</ele>
        <time>2019-06-03T08:27:18.000Z</time>
      </trkpt>
      <trkpt lat="45.14556" lon="5.88506">
        <ele>1359.02</ele>
        <time>2019-06-03T08:27:23.000Z</time>
      </trkpt>
      <trkpt lat="45.14539" lon="5.88526">
        <ele>1357.95</ele>
        <time>2019-06-03T08:27:28.000Z</time>
      </trkpt>
      <trkpt lat="45.14524" lon="5.88551">
        <ele>1357.08</ele>
        <time>2019-06-03T08:27:33.000Z</time>
      </trkpt>
      <trkpt lat="45.14517" lon="5.8858">
        <ele>1359.35</ele>
        <time>2019-06-03T08:27:38.000Z</time>
      </trkpt>
      <trkpt lat="45.14505" lon="5.88609">
        <ele>1357.77</ele>
        <time>2019-06-03T08:27:43.000Z</time>
      </trkpt>
      <trkpt lat="45.14495" lon="5.88634">
        <ele>1359.89</ele>
        <time>2019-06-03T08:27:48.000Z</time>
      </trkpt>
      <trkpt lat="45.14484" lon="5.88659">
        <ele>1360.73</ele>
        <time>2019-06-03T08:27:53.000Z</time>
      </trkpt>
      <trkpt lat="45.14472" lon="5.88684">
        <ele>1362.05</ele>
        <time>2019-06-03T08:27:58.000Z</time>
      </trkpt>
      <trkpt lat="45.14459" lon="5.88706">
        <ele>1363.65</ele>
        <time>2019-06-03T08:28:03.000Z</time>
      </trkpt>
      <trkpt lat="45.1444" lon="5.88719">
        <ele>1366.71</ele>
        <time>2019-06-03T08:28:08.000Z</time>
      </trkpt>
      <trkpt lat="45.14417" lon="5.88721">
        <ele>1367.29</ele>
        <time>2019-06-03T08:28:13.000Z</time>
      </trkpt>
      <trkpt lat="45.14392" lon="5.88722">
        <ele>1367.48</ele>
        <time>2019-06-03T08:28:18.000Z</time>
      </trkpt>
      <trkpt lat="45.1437" lon="5.88733">
        <ele>1372.3</ele>
        <time>2019-06-03T08:28:23.000Z</time>
      </trkpt>
      <trkpt lat="45.14349" lon="5.88742">
        <ele>1376.58</ele>
        <time>2019-06-03T08:28:28.000Z</time>
      </trkpt>
      <trkpt lat="45.14325" lon="5.88745">
        <ele>1377.29</ele>
        <time>2019-06-03T08:28:33.000Z</time>
      </trkpt>
      <trkpt lat="45.14307" lon="5.88748">
        <ele>1376.74</ele>
        <time>2019-06-03T08:28:38.000Z</time>
      </trkpt>
      <trkpt lat="45.14287" lon="5.88765">
        <ele>1380.52</ele>
        <time>2019-06-03T08:28:43.000Z</time>
      </trkpt>
      <trkpt lat="45.14263" lon="5.88771">
        <ele>1381.52</ele>
        <time>2019-06-03T08:28:48.000Z</time>
      </trkpt>
      <trkpt lat="45.1424" lon="5.88774">
        <ele>1381.61</ele>
        <time>2019-06-03T08:28:53.000Z</time>
      </trkpt>
      <trkpt lat="45.14219" lon="5.88778">
        <ele>1384.64</ele>
        <time>2019-06-03T08:28:58.000Z</time>
      </trkpt>
      <trkpt lat="45.14197" lon="5.88783">
        <ele>1383.36</ele>
        <time>2019-06-03T08:29:03.000Z</time>
      </trkpt>
      <trkpt lat="45.14175" lon="5.88795">
        <ele>1386.83</ele>
        <time>2019-06-03T08:29:08.000Z</time>
      </trkpt>
      <trkpt lat="45.14156" lon="5.88806">
        <ele>1389.98</ele>
        <time>2019-06-03T08:29:13.000Z</time>
      </trkpt>
      <trkpt lat="45.14134" lon="5.88817">
        <ele>1392.71</ele>
        <time>2019-06-03T08:29:18.000Z</time>
      </trkpt>
      <trkpt lat="45.14114" lon="5.88825">
        <ele>1391.2</ele>
        <time>2019-06-03T08:29:23.000Z</time>
      </trkpt>
      <trkpt lat="45.14097" lon="5.8883">
        <ele>1391.68</ele>
        <time>2019-06-03T08:29:28.000Z</time>
      </trkpt>
      <trkpt lat="45.14087" lon="5.88833">
        <ele>1392.24</ele>
        <time>2019-06-03T08:29:33.000Z</time>
      </trkpt>
      <trkpt lat="45.14092" lon="5.88821">
        <ele>1392.11</ele>
        <time>2019-06-03T08:31:23.000Z</time>
      </trkpt>
      <trkpt lat="45.14114" lon="5.88807">
        <ele>1393.28</ele>
        <time>2019-06-03T08:31:28.000Z</time>
      </trkpt>
      <trkpt lat="45.14137" lon="5.88784">
        <ele>1396.95</ele>
        <time>2019-06-03T08:31:33.000Z</time>
      </trkpt>
      <trkpt lat="45.14158" lon="5.88776">
        <ele>1399.67</ele>
        <time>2019-06-03T08:31:38.000Z</time>
      </trkpt>
      <trkpt lat="45.14179" lon="5.88768">
        <ele>1400.58</ele>
        <time>2019-06-03T08:31:43.000Z</time>
      </trkpt>
      <trkpt lat="45.14202" lon="5.88757">
        <ele>1399.74</ele>
        <time>2019-06-03T08:31:48.000Z</time>
      </trkpt>
      <trkpt lat="45.14229" lon="5.8875">
        <ele>1398.78</ele>
        <time>2019-06-03T08:31:53.000Z</time>
      </trkpt>
      <trkpt lat="45.14252" lon="5.88741">
        <ele>1396.82</ele>
        <time>2019-06-03T08:31:58.000Z</time>
      </trkpt>
      <trkpt lat="45.14271" lon="5.88731">
        <ele>1396.63</ele>
        <time>2019-06-03T08:32:03.000Z</time>
      </trkpt>
      <trkpt lat="45.14289" lon="5.88717">
        <ele>1396.25</ele>
        <time>2019-06-03T08:32:08.000Z</time>
      </trkpt>
      <trkpt lat="45.14307" lon="5.88707">
        <ele>1399.17</ele>
        <time>2019-06-03T08:32:13.000Z</time>
      </trkpt>
      <trkpt lat="45.14322" lon="5.88691">
        <ele>1397.59</ele>
        <time>2019-06-03T08:32:18.000Z</time>
      </trkpt>
      <trkpt lat="45.14346" lon="5.8868">
        <ele>1399.68</ele>
        <time>2019-06-03T08:32:23.000Z</time>
      </trkpt>
      <trkpt lat="45.14363" lon="5.8867">
        <ele>1400.48</ele>
        <time>2019-06-03T08:32:28.000Z</time>
      </trkpt>
      <trkpt lat="45.14379" lon="5.8866">
        <ele>1401.86</ele>
        <time>2019-06-03T08:32:33.000Z</time>
      </trkpt>
      <trkpt lat="45.14396" lon="5.88654">
        <ele>1405.44</ele>
        <time>2019-06-03T08:32:38.000Z</time>
      </trkpt>
      <trkpt lat="45.14411" lon="5.88642">
        <ele>1406.34</ele>
        <time>2019-06-03T08:32:43.000Z</time>
      </trkpt>
      <trkpt lat="45.14423" lon="5.88619">
        <ele>1409.34</ele>
        <time>2019-06-03T08:32:48.000Z</time>
      </trkpt>
      <trkpt lat="45.1444" lon="5.88593">
        <ele>1412.53</ele>
        <time>2019-06-03T08:32:53.000Z</time>
      </trkpt>
      <trkpt lat="45.14446" lon="5.88565">
        <ele>1415.71</ele>
        <time>2019-06-03T08:32:58.000Z</time>
      </trkpt>
      <trkpt lat="45.14452" lon="5.88537">
        <ele>1417.62</ele>
        <time>2019-06-03T08:33:03.000Z</time>
      </trkpt>
      <trkpt lat="45.14459" lon="5.88512">
        <ele>1422.37</ele>
        <time>2019-06-03T08:33:08.000Z</time>
      </trkpt>
      <trkpt lat="45.14465" lon="5.88483">
        <ele>1423.63</ele>
        <time>2019-06-03T08:33:13.000Z</time>
      </trkpt>
      <trkpt lat="45.14469" lon="5.88455">
        <ele>1420.41</ele>
        <time>2019-06-03T08:33:18.000Z</time>
      </trkpt>
      <trkpt lat="45.14473" lon="5.8842">
        <ele>1421.85</ele>
        <time>2019-06-03T08:33:23.000Z</time>
      </trkpt>
      <trkpt lat="45.14476" lon="5.88386">
        <ele>1419.72</ele>
        <time>2019-06-03T08:33:28.000Z</time>
      </trkpt>
      <trkpt lat="45.14486" lon="5.88359">
        <ele>1421.7</ele>
        <time>2019-06-03T08:33:33.000Z</time>
      </trkpt>
      <trkpt lat="45.14494" lon="5.8833">
        <ele>1423.57</ele>
        <time>2019-06-03T08:33:38.000Z</time>
      </trkpt>
      <trkpt lat="45.14501" lon="5.88302">
        <ele>1424.49</ele>
        <time>2019-06-03T08:33:43.000Z</time>
      </trkpt>
      <trkpt lat="45.1451" lon="5.88277">
        <ele>1427.5</ele>
        <time>2019-06-03T08:33:48.000Z</time>
      </trkpt>
      <trkpt lat="45.14517" lon="5.88252">
        <ele>1429.8</ele>
        <time>2019-06-03T08:33:53.000Z</time>
      </trkpt>
      <trkpt lat="45.1452" lon="5.88222">
        <ele>1431.27</ele>
        <time>2019-06-03T08:33:58.000Z</time>
      </trkpt>
      <trkpt lat="45.14519" lon="5.88192">
        <ele>1435.15</ele>
        <time>2019-06-03T08:34:03.000Z</time>
      </trkpt>
      <trkpt lat="45.14514" lon="5.88164">
        <ele>1434.44</ele>
        <time>2019-06-03T08:34:08.000Z</time>
      </trkpt>
      <trkpt lat="45.14501" lon="5.88134">
        <ele>1427.56</ele>
        <time>2019-06-03T08:34:13.000Z</time>
      </trkpt>
      <trkpt lat="45.14487" lon="5.88107">
        <ele>1427.69</ele>
        <time>2019-06-03T08:34:18.000Z</time>
      </trkpt>
      <trkpt lat="45.14471" lon="5.88081">
        <ele>1424.83</ele>
        <time>2019-06-03T08:34:23.000Z</time>
      </trkpt>
      <trkpt lat="45.1446" lon="5.88059">
        <ele>1422.23</ele>
        <time>2019-06-03T08:34:28.000Z</time>
      </trkpt>
      <trkpt lat="45.14445" lon="5.8804">
        <ele>1424.51</ele>
        <time>2019-06-03T08:34:33.000Z</time>
      </trkpt>
      <trkpt lat="45.14425" lon="5.88024">
        <ele>1422.59</ele>
        <time>2019-06-03T08:34:38.000Z</time>
      </trkpt>
      <trkpt lat="45.14406" lon="5.88012">
        <ele>1422.33</ele>
        <time>2019-06-03T08:34:43.000Z</time>
      </trkpt>
      <trkpt lat="45.14386" lon="5.88003">
        <ele>1423.93</ele>
        <time>2019-06-03T08:34:48.000Z</time>
      </trkpt>
      <trkpt lat="45.14366" lon="5.87997">
        <ele>1422.88</ele>
        <time>2019-06-03T08:34:53.000Z</time>
      </trkpt>
      <trkpt lat="45.14345" lon="5.87988">
        <ele>1423.77</ele>
        <time>2019-06-03T08:34:58.000Z</time>
      </trkpt>
      <trkpt lat="45.14322" lon="5.87983">
        <ele>1426.22</ele>
        <time>2019-06-03T08:35:03.000Z</time>
      </trkpt>
      <trkpt lat="45.14303" lon="5.87974">
        <ele>1424.94</ele>
        <time>2019-06-03T08:35:08.000Z</time>
      </trkpt>
      <trkpt lat="45.14278" lon="5.87971">
        <ele>1427.48</ele>
        <time>2019-06-03T08:35:13.000Z</time>
      </trkpt>
      <trkpt lat="45.14254" lon="5.87958">
        <ele>1435</ele>
        <time>2019-06-03T08:35:18.000Z</time>
      </trkpt>
      <trkpt lat="45.14233" lon="5.87951">
        <ele>1435.27</ele>
        <time>2019-06-03T08:35:23.000Z</time>
      </trkpt>
      <trkpt lat="45.14212" lon="5.87946">
        <ele>1440.04</ele>
        <time>2019-06-03T08:35:28.000Z</time>
      </trkpt>
      <trkpt lat="45.14192" lon="5.87933">
        <ele>1442.2</ele>
        <time>2019-06-03T08:35:33.000Z</time>
      </trkpt>
      <trkpt lat="45.14171" lon="5.87932">
        <ele>1441.39</ele>
        <time>2019-06-03T08:35:38.000Z</time>
      </trkpt>
      <trkpt lat="45.1415" lon="5.87937">
        <ele>1445.28</ele>
        <time>2019-06-03T08:35:43.000Z</time>
      </trkpt>
      <trkpt lat="45.14129" lon="5.87953">
        <ele>1446.3</ele>
        <time>2019-06-03T08:35:48.000Z</time>
      </trkpt>
      <trkpt lat="45.14109" lon="5.8797">
        <ele>1447.03</ele>
        <time>2019-06-03T08:35:53.000Z</time>
      </trkpt>
      <trkpt lat="45.14091" lon="5.8798">
        <ele>1443.77</ele>
        <time>2019-06-03T08:35:58.000Z</time>
      </trkpt>
      <trkpt lat="45.14069" lon="5.87988">
        <ele>1446.48</ele>
        <time>2019-06-03T08:36:03.000Z</time>
      </trkpt>
      <trkpt lat="45.14048" lon="5.88">
        <ele>1448.49</ele>
        <time>2019-06-03T08:36:08.000Z</time>
      </trkpt>
      <trkpt lat="45.14025" lon="5.88005">
        <ele>1450.14</ele>
        <time>2019-06-03T08:36:13.000Z</time>
      </trkpt>
      <trkpt lat="45.14002" lon="5.88013">
        <ele>1454.55</ele>
        <time>2019-06-03T08:36:18.000Z</time>
      </trkpt>
      <trkpt lat="45.13981" lon="5.88024">
        <ele>1455.73</ele>
        <time>2019-06-03T08:36:23.000Z</time>
      </trkpt>
      <trkpt lat="45.13959" lon="5.88036">
        <ele>1455</ele>
        <time>2019-06-03T08:36:28.000Z</time>
      </trkpt>
      <trkpt lat="45.13937" lon="5.88045">
        <ele>1455.01</ele>
        <time>2019-06-03T08:36:33.000Z</time>
      </trkpt>
      <trkpt lat="45.13912" lon="5.8805">
        <ele>1460.2</ele>
        <time>2019-06-03T08:36:38.000Z</time>
      </trkpt>
      <trkpt lat="45.13891" lon="5.88056">
        <ele>1463.43</ele>
        <time>2019-06-03T08:36:43.000Z</time>
      </trkpt>
      <trkpt lat="45.13867" lon="5.8806">
        <ele>1466.91</ele>
        <time>2019-06-03T08:36:48.000Z</time>
      </trkpt>
      <trkpt lat="45.13846" lon="5.88065">
        <ele>1465.71</ele>
        <time>2019-06-03T08:36:53.000Z</time>
      </trkpt>
      <trkpt lat="45.13823" lon="5.88064">
        <ele>1469.13</ele>
        <time>2019-06-03T08:36:58.000Z</time>
      </trkpt>
      <trkpt lat="45.13799" lon="5.8806">
        <ele>1474.37</ele>
        <time>2019-06-03T08:37:03.000Z</time>
      </trkpt>
      <trkpt lat="45.13778" lon="5.88066">
        <ele>1473.3</ele>
        <time>2019-06-03T08:37:08.000Z</time>
      </trkpt>
      <trkpt lat="45.13757" lon="5.88075">
        <ele>1472.49</ele>
        <time>2019-06-03T08:37:13.000Z</time>
      </trkpt>
      <trkpt lat="45.13738" lon="5.88083">
        <ele>1471.59</ele>
        <time>2019-06-03T08:37:18.000Z</time>
      </trkpt>
      <trkpt lat="45.13716" lon="5.88093">
        <ele>1470.48</ele>
        <time>2019-06-03T08:37:23.000Z</time>
      </trkpt>
      <trkpt lat="45.1369" lon="5.88098">
        <ele>1473.33</ele>
        <time>2019-06-03T08:37:28.000Z</time>
      </trkpt>
      <trkpt lat="45.13665" lon="5.88089">
        <ele>1478.19</ele>
        <time>2019-06-03T08:37:33.000Z</time>
      </trkpt>
      <trkpt lat="45.13643" lon="5.88083">
        <ele>1480.85</ele>
        <time>2019-06-03T08:37:38.000Z</time>
      </trkpt>
      <trkpt lat="45.13621" lon="5.88083">
        <ele>1479.88</ele>
        <time>2019-06-03T08:37:43.000Z</time>
      </trkpt>
      <trkpt lat="45.13597" lon="5.88076">
        <ele>1478.52</ele>
        <time>2019-06-03T08:37:48.000Z</time>
      </trkpt>
      <trkpt lat="45.13568" lon="5.88062">
        <ele>1483.48</ele>
        <time>2019-06-03T08:37:53.000Z</time>
      </trkpt>
      <trkpt lat="45.1355" lon="5.88053">
        <ele>1478.45</ele>
        <time>2019-06-03T08:37:58.000Z</time>
      </trkpt>
      <trkpt lat="45.13526" lon="5.88039">
        <ele>1484.05</ele>
        <time>2019-06-03T08:38:03.000Z</time>
      </trkpt>
      <trkpt lat="45.13505" lon="5.88029">
        <ele>1487.43</ele>
        <time>2019-06-03T08:38:08.000Z</time>
      </trkpt>
      <trkpt lat="45.13483" lon="5.8802">
        <ele>1492.22</ele>
        <time>2019-06-03T08:38:13.000Z</time>
      </trkpt>
      <trkpt lat="45.1346" lon="5.88008">
        <ele>1488.65</ele>
        <time>2019-06-03T08:38:18.000Z</time>
      </trkpt>
      <trkpt lat="45.13436" lon="5.87989">
        <ele>1488.11</ele>
        <time>2019-06-03T08:38:23.000Z</time>
      </trkpt>
      <trkpt lat="45.13416" lon="5.87964">
        <ele>1493.95</ele>
        <time>2019-06-03T08:38:28.000Z</time>
      </trkpt>
      <trkpt lat="45.13399" lon="5.87946">
        <ele>1500.81</ele>
        <time>2019-06-03T08:38:33.000Z</time>
      </trkpt>
      <trkpt lat="45.13382" lon="5.87921">
        <ele>1505.18</ele>
        <time>2019-06-03T08:38:38.000Z</time>
      </trkpt>
      <trkpt lat="45.13369" lon="5.8789">
        <ele>1505.38</ele>
        <time>2019-06-03T08:38:43.000Z</time>
      </trkpt>
      <trkpt lat="45.13364" lon="5.87856">
        <ele>1510.21</ele>
        <time>2019-06-03T08:38:48.000Z</time>
      </trkpt>
      <trkpt lat="45.13367" lon="5.87821">
        <ele>1513.74</ele>
        <time>2019-06-03T08:38:53.000Z</time>
      </trkpt>
      <trkpt lat="45.13375" lon="5.87789">
        <ele>1519.09</ele>
        <time>2019-06-03T08:38:58.000Z</time>
      </trkpt>
      <trkpt lat="45.13387" lon="5.87762">
        <ele>1518.65</ele>
        <time>2019-06-03T08:39:03.000Z</time>
      </trkpt>
      <trkpt lat="45.13406" lon="5.87743">
        <ele>1524.61</ele>
        <time>2019-06-03T08:39:08.000Z</time>
      </trkpt>
      <trkpt lat="45.1342" lon="5.87721">
        <ele>1529.95</ele>
        <time>2019-06-03T08:39:13.000Z</time>
      </trkpt>
      <trkpt lat="45.13426" lon="5.87691">
        <ele>1528.88</ele>
        <time>2019-06-03T08:39:18.000Z</time>
      </trkpt>
      <trkpt lat="45.13414" lon="5.87661">
        <ele>1524.96</ele>
        <time>2019-06-03T08:39:23.000Z</time>
      </trkpt>
      <trkpt lat="45.13402" lon="5.87635">
        <ele>1528.22</ele>
        <time>2019-06-03T08:39:28.000Z</time>
      </trkpt>
      <trkpt lat="45.13385" lon="5.87612">
        <ele>1527.57</ele>
        <time>2019-06-03T08:39:33.000Z</time>
      </trkpt>
      <trkpt lat="45.13369" lon="5.87598">
        <ele>1532.33</ele>
        <time>2019-06-03T08:39:38.000Z</time>
      </trkpt>
      <trkpt lat="45.13347" lon="5.87594">
        <ele>1531.26</ele>
        <time>2019-06-03T08:39:43.000Z</time>
      </trkpt>
      <trkpt lat="45.13328" lon="5.87592">
        <ele>1531.6</ele>
        <time>2019-06-03T08:39:48.000Z</time>
      </trkpt>
      <trkpt lat="45.13305" lon="5.87596">
        <ele>1527.41</ele>
        <time>2019-06-03T08:39:53.000Z</time>
      </trkpt>
      <trkpt lat="45.13288" lon="5.87604">
        <ele>1526.64</ele>
        <time>2019-06-03T08:39:58.000Z</time>
      </trkpt>
      <trkpt lat="45.13263" lon="5.87612">
        <ele>1529.07</ele>
        <time>2019-06-03T08:40:03.000Z</time>
      </trkpt>
      <trkpt lat="45.13236" lon="5.87619">
        <ele>1529.96</ele>
        <time>2019-06-03T08:40:08.000Z</time>
      </trkpt>
      <trkpt lat="45.13212" lon="5.87609">
        <ele>1533.16</ele>
        <time>2019-06-03T08:40:13.000Z</time>
      </trkpt>
      <trkpt lat="45.13196" lon="5.87581">
        <ele>1535.46</ele>
        <time>2019-06-03T08:40:18.000Z</time>
      </trkpt>
      <trkpt lat="45.13183" lon="5.87549">
        <ele>1538.62</ele>
        <time>2019-06-03T08:40:23.000Z</time>
      </trkpt>
      <trkpt lat="45.13166" lon="5.87528">
        <ele>1538.85</ele>
        <time>2019-06-03T08:40:28.000Z</time>
      </trkpt>
      <trkpt lat="45.13159" lon="5.87501">
        <ele>1541.86</ele>
        <time>2019-06-03T08:40:33.000Z</time>
      </trkpt>
      <trkpt lat="45.13155" lon="5.87477">
        <ele>1544.32</ele>
        <time>2019-06-03T08:40:38.000Z</time>
      </trkpt>
      <trkpt lat="45.13145" lon="5.87455">
        <ele>1547.76</ele>
        <time>2019-06-03T08:40:43.000Z</time>
      </trkpt>
      <trkpt lat="45.13126" lon="5.87437">
        <ele>1546.57</ele>
        <time>2019-06-03T08:40:48.000Z</time>
      </trkpt>
      <trkpt lat="45.13108" lon="5.87431">
        <ele>1540.61</ele>
        <time>2019-06-03T08:40:53.000Z</time>
      </trkpt>
      <trkpt lat="45.1308" lon="5.87425">
        <ele>1541.03</ele>
        <time>2019-06-03T08:40:58.000Z</time>
      </trkpt>
      <trkpt lat="45.1306" lon="5.87402">
        <ele>1543.64</ele>
        <time>2019-06-03T08:41:03.000Z</time>
      </trkpt>
      <trkpt lat="45.13049" lon="5.87377">
        <ele>1541.55</ele>
        <time>2019-06-03T08:41:08.000Z</time>
      </trkpt>
      <trkpt lat="45.13045" lon="5.87353">
        <ele>1548.87</ele>
        <time>2019-06-03T08:41:13.000Z</time>
      </trkpt>
      <trkpt lat="45.13034" lon="5.87329">
        <ele>1553</ele>
        <time>2019-06-03T08:41:18.000Z</time>
      </trkpt>
      <trkpt lat="45.13017" lon="5.87311">
        <ele>1560.03</ele>
        <time>2019-06-03T08:41:23.000Z</time>
      </trkpt>
      <trkpt lat="45.12993" lon="5.87304">
        <ele>1560.5</ele>
        <time>2019-06-03T08:41:28.000Z</time>
      </trkpt>
      <trkpt lat="45.12976" lon="5.87289">
        <ele>1559.27</ele>
        <time>2019-06-03T08:41:33.000Z</time>
      </trkpt>
      <trkpt lat="45.12954" lon="5.87278">
        <ele>1562.07</ele>
        <time>2019-06-03T08:41:38.000Z</time>
      </trkpt>
      <trkpt lat="45.12932" lon="5.87262">
        <ele>1562.04</ele>
        <time>2019-06-03T08:41:43.000Z</time>
      </trkpt>
      <trkpt lat="45.12915" lon="5.8725">
        <ele>1561.89</ele>
        <time>2019-06-03T08:41:48.000Z</time>
      </trkpt>
      <trkpt lat="45.12896" lon="5.87232">
        <ele>1563.42</ele>
        <time>2019-06-03T08:41:53.000Z</time>
      </trkpt>
      <trkpt lat="45.12871" lon="5.87226">
        <ele>1571.09</ele>
        <time>2019-06-03T08:41:58.000Z</time>
      </trkpt>
      <trkpt lat="45.12846" lon="5.87234">
        <ele>1572.66</ele>
        <time>2019-06-03T08:42:03.000Z</time>
      </trkpt>
      <trkpt lat="45.12823" lon="5.87239">
        <ele>1579.83</ele>
        <time>2019-06-03T08:42:08.000Z</time>
      </trkpt>
      <trkpt lat="45.12803" lon="5.87247">
        <ele>1580.94</ele>
        <time>2019-06-03T08:42:13.000Z</time>
      </trkpt>
      <trkpt lat="45.12777" lon="5.87244">
        <ele>1581.03</ele>
        <time>2019-06-03T08:42:18.000Z</time>
      </trkpt>
      <trkpt lat="45.12754" lon="5.87231">
        <ele>1581.94</ele>
        <time>2019-06-03T08:42:23.000Z</time>
      </trkpt>
      <trkpt lat="45.12739" lon="5.87211">
        <ele>1583.6</ele>
        <time>2019-06-03T08:42:28.000Z</time>
      </trkpt>
      <trkpt lat="45.12725" lon="5.87187">
        <ele>1589.21</ele>
        <time>2019-06-03T08:42:33.000Z</time>
      </trkpt>
      <trkpt lat="45.12712" lon="5.87158">
        <ele>1594.39</ele>
        <time>2019-06-03T08:42:38.000Z</time>
      </trkpt>
      <trkpt lat="45.12694" lon="5.87136">
        <ele>1594.9</ele>
        <time>2019-06-03T08:42:43.000Z</time>
      </trkpt>
      <trkpt lat="45.12675" lon="5.87134">
        <ele>1599.29</ele>
        <time>2019-06-03T08:42:48.000Z</time>
      </trkpt>
      <trkpt lat="45.12651" lon="5.87127">
        <ele>1600.14</ele>
        <time>2019-06-03T08:42:53.000Z</time>
      </trkpt>
      <trkpt lat="45.12632" lon="5.87111">
        <ele>1605.14</ele>
        <time>2019-06-03T08:42:58.000Z</time>
      </trkpt>
      <trkpt lat="45.12609" lon="5.87102">
        <ele>1607.97</ele>
        <time>2019-06-03T08:43:03.000Z</time>
      </trkpt>
      <trkpt lat="45.12587" lon="5.87099">
        <ele>1608.62</ele>
        <time>2019-06-03T08:43:08.000Z</time>
      </trkpt>
      <trkpt lat="45.12563" lon="5.87096">
        <ele>1610.71</ele>
        <time>2019-06-03T08:43:13.000Z</time>
      </trkpt>
      <trkpt lat="45.12538" lon="5.87094">
        <ele>1611.24</ele>
        <time>2019-06-03T08:43:18.000Z</time>
      </trkpt>
      <trkpt lat="45.12517" lon="5.87099">
        <ele>1606.88</ele>
        <time>2019-06-03T08:43:23.000Z</time>
      </trkpt>
      <trkpt lat="45.12495" lon="5.87105">
        <ele>1609.57</ele>
        <time>2019-06-03T08:43:28.000Z</time>
      </trkpt>
      <trkpt lat="45.12474" lon="5.87114">
        <ele>1612.46</ele>
        <time>2019-06-03T08:43:33.000Z</time>
      </trkpt>
      <trkpt lat="45.12453" lon="5.87128">
        <ele>1611.18</ele>
        <time>2019-06-03T08:43:38.000Z</time>
      </trkpt>
      <trkpt lat="45.12434" lon="5.87141">
        <ele>1609.89</ele>
        <time>2019-06-03T08:43:43.000Z</time>
      </trkpt>
      <trkpt lat="45.12422" lon="5.87164">
        <ele>1611.62</ele>
        <time>2019-06-03T08:43:48.000Z</time>
      </trkpt>
      <trkpt lat="45.12418" lon="5.87197">
        <ele>1615.02</ele>
        <time>2019-06-03T08:43:53.000Z</time>
      </trkpt>
      <trkpt lat="45.1242" lon="5.87224">
        <ele>1620.52</ele>
        <time>2019-06-03T08:43:58.000Z</time>
      </trkpt>
      <trkpt lat="45.12431" lon="5.8725">
        <ele>1623.49</ele>
        <time>2019-06-03T08:44:03.000Z</time>
      </trkpt>
      <trkpt lat="45.12445" lon="5.87274">
        <ele>1624.46</ele>
        <time>2019-06-03T08:44:08.000Z</time>
      </trkpt>
      <trkpt lat="45.12461" lon="5.87296">
        <ele>1624.16</ele>
        <time>2019-06-03T08:44:13.000Z</time>
      </trkpt>
      <trkpt lat="45.12479" lon="5.8732">
        <ele>1623.51</ele>
        <time>2019-06-03T08:44:18.000Z</time>
      </trkpt>
      <trkpt lat="45.12494" lon="5.87342">
        <ele>1625.65</ele>
        <time>2019-06-03T08:44:23.000Z</time>
      </trkpt>
      <trkpt lat="45.12506" lon="5.87371">
        <ele>1630.49</ele>
        <time>2019-06-03T08:44:28.000Z</time>
      </trkpt>
      <trkpt lat="45.12516" lon="5.87402">
        <ele>1631.9</ele>
        <time>2019-06-03T08:44:33.000Z</time>
      </trkpt>
      <trkpt lat="45.12526" lon="5.87427">
        <ele>1629.14</ele>
        <time>2019-06-03T08:44:38.000Z</time>
      </trkpt>
      <trkpt lat="45.12539" lon="5.87461">
        <ele>1628.26</ele>
        <time>2019-06-03T08:44:43.000Z</time>
      </trkpt>
      <trkpt lat="45.12545" lon="5.87488">
        <ele>1626.46</ele>
        <time>2019-06-03T08:44:48.000Z</time>
      </trkpt>
      <trkpt lat="45.12551" lon="5.87518">
        <ele>1626.87</ele>
        <time>2019-06-03T08:44:53.000Z</time>
      </trkpt>
      <trkpt lat="45.12546" lon="5.8754">
        <ele>1629.88</ele>
        <time>2019-06-03T08:44:58.000Z</time>
      </trkpt>
      <trkpt lat="45.12538" lon="5.87561">
        <ele>1633.22</ele>
        <time>2019-06-03T08:45:03.000Z</time>
      </trkpt>
      <trkpt lat="45.12527" lon="5.87584">
        <ele>1632.81</ele>
        <time>2019-06-03T08:45:08.000Z</time>
      </trkpt>
      <trkpt lat="45.1251" lon="5.8762">
        <ele>1627.1</ele>
        <time>2019-06-03T08:45:13.000Z</time>
      </trkpt>
      <trkpt lat="45.12491" lon="5.87663">
        <ele>1622.09</ele>
        <time>2019-06-03T08:45:18.000Z</time>
      </trkpt>
      <trkpt lat="45.12469" lon="5.87701">
        <ele>1622.83</ele>
        <time>2019-06-03T08:45:23.000Z</time>
      </trkpt>
      <trkpt lat="45.12441" lon="5.87723">
        <ele>1627.75</ele>
        <time>2019-06-03T08:45:28.000Z</time>
      </trkpt>
      <trkpt lat="45.12421" lon="5.87743">
        <ele>1631.49</ele>
        <time>2019-06-03T08:45:33.000Z</time>
      </trkpt>
      <trkpt lat="45.12403" lon="5.8776">
        <ele>1632.3</ele>
        <time>2019-06-03T08:45:38.000Z</time>
      </trkpt>
      <trkpt lat="45.12381" lon="5.87778">
        <ele>1639.33</ele>
        <time>2019-06-03T08:45:43.000Z</time>
      </trkpt>
      <trkpt lat="45.12358" lon="5.87792">
        <ele>1642.12</ele>
        <time>2019-06-03T08:45:48.000Z</time>
      </trkpt>
      <trkpt lat="45.12329" lon="5.87796">
        <ele>1640.19</ele>
        <time>2019-06-03T08:45:53.000Z</time>
      </trkpt>
      <trkpt lat="45.12304" lon="5.87783">
        <ele>1637.3</ele>
        <time>2019-06-03T08:45:58.000Z</time>
      </trkpt>
      <trkpt lat="45.12282" lon="5.87769">
        <ele>1637.93</ele>
        <time>2019-06-03T08:46:03.000Z</time>
      </trkpt>
      <trkpt lat="45.12254" lon="5.8775">
        <ele>1638.81</ele>
        <time>2019-06-03T08:46:08.000Z</time>
      </trkpt>
      <trkpt lat="45.12227" lon="5.87728">
        <ele>1639.14</ele>
        <time>2019-06-03T08:46:13.000Z</time>
      </trkpt>
      <trkpt lat="45.122" lon="5.877">
        <ele>1641.15</ele>
        <time>2019-06-03T08:46:18.000Z</time>
      </trkpt>
      <trkpt lat="45.12176" lon="5.87671">
        <ele>1639.88</ele>
        <time>2019-06-03T08:46:23.000Z</time>
      </trkpt>
      <trkpt lat="45.1215" lon="5.87641">
        <ele>1640.25</ele>
        <time>2019-06-03T08:46:28.000Z</time>
      </trkpt>
      <trkpt lat="45.12124" lon="5.87612">
        <ele>1643.08</ele>
        <time>2019-06-03T08:46:33.000Z</time>
      </trkpt>
      <trkpt lat="45.121" lon="5.87582">
        <ele>1649.45</ele>
        <time>2019-06-03T08:46:38.000Z</time>
      </trkpt>
      <trkpt lat="45.12077" lon="5.87555">
        <ele>1652.21</ele>
        <time>2019-06-03T08:46:43.000Z</time>
      </trkpt>
      <trkpt lat="45.12047" lon="5.87543">
        <ele>1653.17</ele>
        <time>2019-06-03T08:46:48.000Z</time>
      </trkpt>
      <trkpt lat="45.12016" lon="5.87555">
        <ele>1650.9</ele>
        <time>2019-06-03T08:46:53.000Z</time>
      </trkpt>
      <trkpt lat="45.1199" lon="5.87564">
        <ele>1651.24</ele>
        <time>2019-06-03T08:46:58.000Z</time>
      </trkpt>
      <trkpt lat="45.11967" lon="5.87563">
        <ele>1650.3</ele>
        <time>2019-06-03T08:47:03.000Z</time>
      </trkpt>
      <trkpt lat="45.11951" lon="5.87553">
        <ele>1652.53</ele>
        <time>2019-06-03T08:47:08.000Z</time>
      </trkpt>
      <trkpt lat="45.11928" lon="5.87537">
        <ele>1652.99</ele>
        <time>2019-06-03T08:47:13.000Z</time>
      </trkpt>
      <trkpt lat="45.11907" lon="5.87531">
        <ele>1651.01</ele>
        <time>2019-06-03T08:47:18.000Z</time>
      </trkpt>
      <trkpt lat="45.11886" lon="5.8752">
        <ele>1656.47</ele>
        <time>2019-06-03T08:47:23.000Z</time>
      </trkpt>
      <trkpt lat="45.11866" lon="5.87501">
        <ele>1657.68</ele>
        <time>2019-06-03T08:47:28.000Z</time>
      </trkpt>
      <trkpt lat="45.11847" lon="5.87488">
        <ele>1662.85</ele>
        <time>2019-06-03T08:47:33.000Z</time>
      </trkpt>
      <trkpt lat="45.11824" lon="5.87478">
        <ele>1665.97</ele>
        <time>2019-06-03T08:47:38.000Z</time>
      </trkpt>
      <trkpt lat="45.11799" lon="5.87474">
        <ele>1666.54</ele>
        <time>2019-06-03T08:47:43.000Z</time>
      </trkpt>
      <trkpt lat="45.11779" lon="5.87469">
        <ele>1664.58</ele>
        <time>2019-06-03T08:47:48.000Z</time>
      </trkpt>
      <trkpt lat="45.11761" lon="5.87453">
        <ele>1664.05</ele>
        <time>2019-06-03T08:47:53.000Z</time>
      </trkpt>
      <trkpt lat="45.1175" lon="5.87426">
        <ele>1669.14</ele>
        <time>2019-06-03T08:47:58.000Z</time>
      </trkpt>
      <trkpt lat="45.11746" lon="5.87407">
        <ele>1674.4</ele>
        <time>2019-06-03T08:48:03.000Z</time>
      </trkpt>
      <trkpt lat="45.11737" lon="5.87387">
        <ele>1674.42</ele>
        <time>2019-06-03T08:48:08.000Z</time>
      </trkpt>
      <trkpt lat="45.11721" lon="5.87364">
        <ele>1678.17</ele>
        <time>2019-06-03T08:48:13.000Z</time>
      </trkpt>
      <trkpt lat="45.11699" lon="5.87346">
        <ele>1679.79</ele>
        <time>2019-06-03T08:48:18.000Z</time>
      </trkpt>
      <trkpt lat="45.11677" lon="5.87328">
        <ele>1681.73</ele>
        <time>2019-06-03T08:48:23.000Z</time>
      </trkpt>
      <trkpt lat="45.11659" lon="5.8732">
        <ele>1684.48</ele>
        <time>2019-06-03T08:48:28.000Z</time>
      </trkpt>
      <trkpt lat="45.11638" lon="5.87305">
        <ele>1685.25</ele>
        <time>2019-06-03T08:48:33.000Z</time>
      </trkpt>
      <trkpt lat="45.11615" lon="5.87303">
        <ele>1681.56</ele>
        <time>2019-06-03T08:48:38.000Z</time>
      </trkpt>
      <trkpt lat="45.11591" lon="5.87304">
        <ele>1683.91</ele>
        <time>2019-06-03T08:48:43.000Z</time>
      </trkpt>
      <trkpt lat="45.11571" lon="5.87317">
        <ele>1683.77</ele>
        <time>2019-06-03T08:48:48.000Z</time>
      </trkpt>
      <trkpt lat="45.11554" lon="5.87336">
        <ele>1687.44</ele>
        <time>2019-06-03T08:48:53.000Z</time>
      </trkpt>
      <trkpt lat="45.11542" lon="5.87366">
        <ele>1688.31</ele>
        <time>2019-06-03T08:48:58.000Z</time>
      </trkpt>
      <trkpt lat="45.1153" lon="5.87393">
        <ele>1689.17</ele>
        <time>2019-06-03T08:49:03.000Z</time>
      </trkpt>
      <trkpt lat="45.11509" lon="5.87411">
        <ele>1692.07</ele>
        <time>2019-06-03T08:49:08.000Z</time>
      </trkpt>
      <trkpt lat="45.11489" lon="5.87428">
        <ele>1695.07</ele>
        <time>2019-06-03T08:49:13.000Z</time>
      </trkpt>
      <trkpt lat="45.11467" lon="5.87439">
        <ele>1698</ele>
        <time>2019-06-03T08:49:18.000Z</time>
      </trkpt>
      <trkpt lat="45.11445" lon="5.87453">
        <ele>1698.97</ele>
        <time>2019-06-03T08:49:23.000Z</time>
      </trkpt>
      <trkpt lat="45.11422" lon="5.87462">
        <ele>1701.38</ele>
        <time>2019-06-03T08:49:28.000Z</time>
      </trkpt>
      <trkpt lat="45.11396" lon="5.87471">
        <ele>1703.34</ele>
        <time>2019-06-03T08:49:33.000Z</time>
      </trkpt>
      <trkpt lat="45.11369" lon="5.87472">
        <ele>1709.13</ele>
        <time>2019-06-03T08:49:38.000Z</time>
      </trkpt>
      <trkpt lat="45.11345" lon="5.87477">
        <ele>1711.17</ele>
        <time>2019-06-03T08:49:43.000Z</time>
      </trkpt>
      <trkpt lat="45.1132" lon="5.8748">
        <ele>1713.84</ele>
        <time>2019-06-03T08:49:48.000Z</time>
      </trkpt>
      <trkpt lat="45.11295" lon="5.87477">
        <ele>1715.74</ele>
        <time>2019-06-03T08:49:53.000Z</time>
      </trkpt>
      <trkpt lat="45.1127" lon="5.87467">
        <ele>1715.46</ele>
        <time>2019-06-03T08:49:58.000Z</time>
      </trkpt>
      <trkpt lat="45.11244" lon="5.87465">
        <ele>1717.15</ele>
        <time>2019-06-03T08:50:03.000Z</time>
      </trkpt>
      <trkpt lat="45.11222" lon="5.87463">
        <ele>1715.59</ele>
        <time>2019-06-03T08:50:08.000Z</time>
      </trkpt>
      <trkpt lat="45.11201" lon="5.87463">
        <ele>1715.6</ele>
        <time>2019-06-03T08:50:13.000Z</time>
      </trkpt>
      <trkpt lat="45.11184" lon="5.87472">
        <ele>1718.69</ele>
        <time>2019-06-03T08:50:18.000Z</time>
      </trkpt>
      <trkpt lat="45.11175" lon="5.87486">
        <ele>1720.97</ele>
        <time>2019-06-03T08:50:23.000Z</time>
      </trkpt>
      <trkpt lat="45.11187" lon="5.87486">
        <ele>1724.19</ele>
        <time>2019-06-03T08:50:31.000Z</time>
      </trkpt>
      <trkpt lat="45.11196" lon="5.8749">
        <ele>1724.53</ele>
        <time>2019-06-03T08:52:09.000Z</time>
      </trkpt>
      <trkpt lat="45.11208" lon="5.87485">
        <ele>1723.32</ele>
        <time>2019-06-03T08:52:14.000Z</time>
      </trkpt>
      <trkpt lat="45.11225" lon="5.87487">
        <ele>1723.78</ele>
        <time>2019-06-03T08:52:19.000Z</time>
      </trkpt>
      <trkpt lat="45.11247" lon="5.87493">
        <ele>1726.29</ele>
        <time>2019-06-03T08:52:24.000Z</time>
      </trkpt>
      <trkpt lat="45.11269" lon="5.87506">
        <ele>1728.21</ele>
        <time>2019-06-03T08:52:29.000Z</time>
      </trkpt>
      <trkpt lat="45.11289" lon="5.87527">
        <ele>1729.69</ele>
        <time>2019-06-03T08:52:34.000Z</time>
      </trkpt>
      <trkpt lat="45.11308" lon="5.87547">
        <ele>1730.24</ele>
        <time>2019-06-03T08:52:39.000Z</time>
      </trkpt>
      <trkpt lat="45.11329" lon="5.87558">
        <ele>1732.16</ele>
        <time>2019-06-03T08:52:44.000Z</time>
      </trkpt>
      <trkpt lat="45.11349" lon="5.87568">
        <ele>1733.32</ele>
        <time>2019-06-03T08:52:49.000Z</time>
      </trkpt>
      <trkpt lat="45.11372" lon="5.87576">
        <ele>1736.45</ele>
        <time>2019-06-03T08:52:54.000Z</time>
      </trkpt>
      <trkpt lat="45.11396" lon="5.87576">
        <ele>1737.46</ele>
        <time>2019-06-03T08:52:59.000Z</time>
      </trkpt>
      <trkpt lat="45.1142" lon="5.87572">
        <ele>1741.55</ele>
        <time>2019-06-03T08:53:04.000Z</time>
      </trkpt>
      <trkpt lat="45.11445" lon="5.87574">
        <ele>1743.65</ele>
        <time>2019-06-03T08:53:09.000Z</time>
      </trkpt>
      <trkpt lat="45.11467" lon="5.87576">
        <ele>1746.62</ele>
        <time>2019-06-03T08:53:14.000Z</time>
      </trkpt>
      <trkpt lat="45.11488" lon="5.87582">
        <ele>1747.16</ele>
        <time>2019-06-03T08:53:19.000Z</time>
      </trkpt>
      <trkpt lat="45.11509" lon="5.87587">
        <ele>1749.95</ele>
        <time>2019-06-03T08:53:24.000Z</time>
      </trkpt>
      <trkpt lat="45.1153" lon="5.87601">
        <ele>1749.05</ele>
        <time>2019-06-03T08:53:29.000Z</time>
      </trkpt>
      <trkpt lat="45.11536" lon="5.87611">
        <ele>1749.48</ele>
        <time>2019-06-03T08:53:34.000Z</time>
      </trkpt>
      <trkpt lat="45.11527" lon="5.87619">
        <ele>1748.38</ele>
        <time>2019-06-03T08:53:44.000Z</time>
      </trkpt>
      <trkpt lat="45.11526" lon="5.87633">
        <ele>1745.93</ele>
        <time>2019-06-03T08:53:49.000Z</time>
      </trkpt>
      <trkpt lat="45.1154" lon="5.87618">
        <ele>1747.23</ele>
        <time>2019-06-03T08:53:54.000Z</time>
      </trkpt>
      <trkpt lat="45.11511" lon="5.87601">
        <ele>1746.67</ele>
        <time>2019-06-03T08:53:59.000Z</time>
      </trkpt>
      <trkpt lat="45.11487" lon="5.87609">
        <ele>1747.09</ele>
        <time>2019-06-03T08:54:04.000Z</time>
      </trkpt>
      <trkpt lat="45.11464" lon="5.87614">
        <ele>1748.01</ele>
        <time>2019-06-03T08:54:09.000Z</time>
      </trkpt>
      <trkpt lat="45.11444" lon="5.87622">
        <ele>1742.93</ele>
        <time>2019-06-03T08:54:14.000Z</time>
      </trkpt>
      <trkpt lat="45.11419" lon="5.87623">
        <ele>1740.51</ele>
        <time>2019-06-03T08:54:19.000Z</time>
      </trkpt>
      <trkpt lat="45.11393" lon="5.87626">
        <ele>1737.57</ele>
        <time>2019-06-03T08:54:24.000Z</time>
      </trkpt>
      <trkpt lat="45.11362" lon="5.87627">
        <ele>1736.4</ele>
        <time>2019-06-03T08:54:29.000Z</time>
      </trkpt>
      <trkpt lat="45.11327" lon="5.87623">
        <ele>1735.62</ele>
        <time>2019-06-03T08:54:34.000Z</time>
      </trkpt>
      <trkpt lat="45.11292" lon="5.87614">
        <ele>1734.56</ele>
        <time>2019-06-03T08:54:39.000Z</time>
      </trkpt>
      <trkpt lat="45.11259" lon="5.87603">
        <ele>1734.95</ele>
        <time>2019-06-03T08:54:44.000Z</time>
      </trkpt>
      <trkpt lat="45.11228" lon="5.87595">
        <ele>1733.73</ele>
        <time>2019-06-03T08:54:49.000Z</time>
      </trkpt>
      <trkpt lat="45.11198" lon="5.87592">
        <ele>1737.07</ele>
        <time>2019-06-03T08:54:54.000Z</time>
      </trkpt>
      <trkpt lat="45.11171" lon="5.87593">
        <ele>1740.32</ele>
        <time>2019-06-03T08:54:59.000Z</time>
      </trkpt>
      <trkpt lat="45.11146" lon="5.87592">
        <ele>1740.44</ele>
        <time>2019-06-03T08:55:04.000Z</time>
      </trkpt>
      <trkpt lat="45.11121" lon="5.87585">
        <ele>1741.59</ele>
        <time>2019-06-03T08:55:09.000Z</time>
      </trkpt>
      <trkpt lat="45.11092" lon="5.8758">
        <ele>1738.5</ele>
        <time>2019-06-03T08:55:14.000Z</time>
      </trkpt>
      <trkpt lat="45.11066" lon="5.87572">
        <ele>1739.27</ele>
        <time>2019-06-03T08:55:19.000Z</time>
      </trkpt>
      <trkpt lat="45.11042" lon="5.8757">
        <ele>1740.21</ele>
        <time>2019-06-03T08:55:24.000Z</time>
      </trkpt>
      <trkpt lat="45.1102" lon="5.87563">
        <ele>1741.02</ele>
        <time>2019-06-03T08:55:29.000Z</time>
      </trkpt>
      <trkpt lat="45.10996" lon="5.87558">
        <ele>1741.79</ele>
        <time>2019-06-03T08:55:34.000Z</time>
      </trkpt>
      <trkpt lat="45.10971" lon="5.87558">
        <ele>1746.99</ele>
        <time>2019-06-03T08:55:39.000Z</time>
      </trkpt>
      <trkpt lat="45.10947" lon="5.87555">
        <ele>1745.82</ele>
        <time>2019-06-03T08:55:44.000Z</time>
      </trkpt>
      <trkpt lat="45.10929" lon="5.87561">
        <ele>1745.9</ele>
        <time>2019-06-03T08:55:49.000Z</time>
      </trkpt>
      <trkpt lat="45.10912" lon="5.8757">
        <ele>1745.81</ele>
        <time>2019-06-03T08:55:54.000Z</time>
      </trkpt>
      <trkpt lat="45.10899" lon="5.87575">
        <ele>1748.9</ele>
        <time>2019-06-03T08:55:59.000Z</time>
      </trkpt>
      <trkpt lat="45.10894" lon="5.87588">
        <ele>1754.94</ele>
        <time>2019-06-03T08:56:05.000Z</time>
      </trkpt>
      <trkpt lat="45.10893" lon="5.87604">
        <ele>1754.06</ele>
        <time>2019-06-03T08:56:11.000Z</time>
      </trkpt>
      <trkpt lat="45.10887" lon="5.87614">
        <ele>1752.14</ele>
        <time>2019-06-03T08:56:17.000Z</time>
      </trkpt>
      <trkpt lat="45.10883" lon="5.87626">
        <ele>1750.67</ele>
        <time>2019-06-03T08:56:27.000Z</time>
      </trkpt>
      <trkpt lat="45.10885" lon="5.87612">
        <ele>1754.18</ele>
        <time>2019-06-03T08:56:49.000Z</time>
      </trkpt>
      <trkpt lat="45.10888" lon="5.876">
        <ele>1754.8</ele>
        <time>2019-06-03T08:56:55.000Z</time>
      </trkpt>
      <trkpt lat="45.10896" lon="5.87593">
        <ele>1751.66</ele>
        <time>2019-06-03T08:59:07.000Z</time>
      </trkpt>
      <trkpt lat="45.10892" lon="5.87579">
        <ele>1754.27</ele>
        <time>2019-06-03T08:59:38.000Z</time>
      </trkpt>
      <trkpt lat="45.10887" lon="5.87553">
        <ele>1754.9</ele>
        <time>2019-06-03T08:59:43.000Z</time>
      </trkpt>
      <trkpt lat="45.10883" lon="5.87537">
        <ele>1754.39</ele>
        <time>2019-06-03T08:59:48.000Z</time>
      </trkpt>
      <trkpt lat="45.10877" lon="5.87547">
        <ele>1752.35</ele>
        <time>2019-06-03T09:09:53.000Z</time>
      </trkpt>
      <trkpt lat="45.10866" lon="5.87551">
        <ele>1752.73</ele>
        <time>2019-06-03T09:09:59.000Z</time>
      </trkpt>
      <trkpt lat="45.10854" lon="5.8756">
        <ele>1750.25</ele>
        <time>2019-06-03T09:10:04.000Z</time>
      </trkpt>
      <trkpt lat="45.10836" lon="5.87561">
        <ele>1747.89</ele>
        <time>2019-06-03T09:10:09.000Z</time>
      </trkpt>
      <trkpt lat="45.10811" lon="5.87554">
        <ele>1745.59</ele>
        <time>2019-06-03T09:10:14.000Z</time>
      </trkpt>
      <trkpt lat="45.10802" lon="5.87549">
        <ele>1744.26</ele>
        <time>2019-06-03T09:10:19.000Z</time>
      </trkpt>
      <trkpt lat="45.10792" lon="5.87554">
        <ele>1744.47</ele>
        <time>2019-06-03T09:10:27.000Z</time>
      </trkpt>
      <trkpt lat="45.10783" lon="5.87552">
        <ele>1744.13</ele>
        <time>2019-06-03T09:10:33.000Z</time>
      </trkpt>
      <trkpt lat="45.10764" lon="5.8754">
        <ele>1736.28</ele>
        <time>2019-06-03T09:10:38.000Z</time>
      </trkpt>
      <trkpt lat="45.10787" lon="5.87519">
        <ele>1742.63</ele>
        <time>2019-06-03T09:10:43.000Z</time>
      </trkpt>
      <trkpt lat="45.10819" lon="5.87508">
        <ele>1740.99</ele>
        <time>2019-06-03T09:10:48.000Z</time>
      </trkpt>
      <trkpt lat="45.10852" lon="5.87493">
        <ele>1738.17</ele>
        <time>2019-06-03T09:10:53.000Z</time>
      </trkpt>
      <trkpt lat="45.10891" lon="5.87474">
        <ele>1736.43</ele>
        <time>2019-06-03T09:10:58.000Z</time>
      </trkpt>
      <trkpt lat="45.1092" lon="5.8746">
        <ele>1728.84</ele>
        <time>2019-06-03T09:11:03.000Z</time>
      </trkpt>
      <trkpt lat="45.10961" lon="5.87456">
        <ele>1728.39</ele>
        <time>2019-06-03T09:11:08.000Z</time>
      </trkpt>
      <trkpt lat="45.11007" lon="5.87461">
        <ele>1722.5</ele>
        <time>2019-06-03T09:11:13.000Z</time>
      </trkpt>
      <trkpt lat="45.11051" lon="5.87476">
        <ele>1722.29</ele>
        <time>2019-06-03T09:11:18.000Z</time>
      </trkpt>
      <trkpt lat="45.11079" lon="5.87471">
        <ele>1719.36</ele>
        <time>2019-06-03T09:11:23.000Z</time>
      </trkpt>
      <trkpt lat="45.11066" lon="5.87448">
        <ele>1712.77</ele>
        <time>2019-06-03T09:11:28.000Z</time>
      </trkpt>
      <trkpt lat="45.11043" lon="5.87425">
        <ele>1715.37</ele>
        <time>2019-06-03T09:11:33.000Z</time>
      </trkpt>
      <trkpt lat="45.11007" lon="5.87395">
        <ele>1713.24</ele>
        <time>2019-06-03T09:11:38.000Z</time>
      </trkpt>
      <trkpt lat="45.10963" lon="5.87368">
        <ele>1706.5</ele>
        <time>2019-06-03T09:11:43.000Z</time>
      </trkpt>
      <trkpt lat="45.10913" lon="5.87329">
        <ele>1702.55</ele>
        <time>2019-06-03T09:11:48.000Z</time>
      </trkpt>
      <trkpt lat="45.10863" lon="5.87279">
        <ele>1698.74</ele>
        <time>2019-06-03T09:11:53.000Z</time>
      </trkpt>
      <trkpt lat="45.10807" lon="5.87224">
        <ele>1697.38</ele>
        <time>2019-06-03T09:11:58.000Z</time>
      </trkpt>
      <trkpt lat="45.1074" lon="5.87177">
        <ele>1691.5</ele>
        <time>2019-06-03T09:12:03.000Z</time>
      </trkpt>
      <trkpt lat="45.10675" lon="5.8713">
        <ele>1688.98</ele>
        <time>2019-06-03T09:12:08.000Z</time>
      </trkpt>
      <trkpt lat="45.1061" lon="5.87141">
        <ele>1687.58</ele>
        <time>2019-06-03T09:12:13.000Z</time>
      </trkpt>
      <trkpt lat="45.10541" lon="5.87147">
        <ele>1680.81</ele>
        <time>2019-06-03T09:12:18.000Z</time>
      </trkpt>
      <trkpt lat="45.10474" lon="5.87119">
        <ele>1669.24</ele>
        <time>2019-06-03T09:12:23.000Z</time>
      </trkpt>
      <trkpt lat="45.10416" lon="5.87074">
        <ele>1658.33</ele>
        <time>2019-06-03T09:12:28.000Z</time>
      </trkpt>
      <trkpt lat="45.10368" lon="5.87085">
        <ele>1656.41</ele>
        <time>2019-06-03T09:12:33.000Z</time>
      </trkpt>
      <trkpt lat="45.10304" lon="5.87105">
        <ele>1650.25</ele>
        <time>2019-06-03T09:12:38.000Z</time>
      </trkpt>
      <trkpt lat="45.10241" lon="5.87089">
        <ele>1639.5</ele>
        <time>2019-06-03T09:12:43.000Z</time>
      </trkpt>
      <trkpt lat="45.10175" lon="5.87059">
        <ele>1633.16</ele>
        <time>2019-06-03T09:12:48.000Z</time>
      </trkpt>
      <trkpt lat="45.10102" lon="5.87033">
        <ele>1632.63</ele>
        <time>2019-06-03T09:12:53.000Z</time>
      </trkpt>
      <trkpt lat="45.10025" lon="5.87056">
        <ele>1624.77</ele>
        <time>2019-06-03T09:12:58.000Z</time>
      </trkpt>
      <trkpt lat="45.09954" lon="5.87004">
        <ele>1618.71</ele>
        <time>2019-06-03T09:13:03.000Z</time>
      </trkpt>
      <trkpt lat="45.09942" lon="5.86897">
        <ele>1616.26</ele>
        <time>2019-06-03T09:13:08.000Z</time>
      </trkpt>
      <trkpt lat="45.09961" lon="5.86797">
        <ele>1614.77</ele>
        <time>2019-06-03T09:13:13.000Z</time>
      </trkpt>
      <trkpt lat="45.09933" lon="5.86733">
        <ele>1610.68</ele>
        <time>2019-06-03T09:13:18.000Z</time>
      </trkpt>
      <trkpt lat="45.09864" lon="5.86737">
        <ele>1601.03</ele>
        <time>2019-06-03T09:13:23.000Z</time>
      </trkpt>
      <trkpt lat="45.09822" lon="5.86828">
        <ele>1593.14</ele>
        <time>2019-06-03T09:13:28.000Z</time>
      </trkpt>
      <trkpt lat="45.09753" lon="5.86875">
        <ele>1592.3</ele>
        <time>2019-06-03T09:13:33.000Z</time>
      </trkpt>
      <trkpt lat="45.09717" lon="5.86877">
        <ele>1589.64</ele>
        <time>2019-06-03T09:13:38.000Z</time>
      </trkpt>
      <trkpt lat="45.0972" lon="5.86787">
        <ele>1584.96</ele>
        <time>2019-06-03T09:13:43.000Z</time>
      </trkpt>
      <trkpt lat="45.09694" lon="5.86697">
        <ele>1583.87</ele>
        <time>2019-06-03T09:13:48.000Z</time>
      </trkpt>
      <trkpt lat="45.09677" lon="5.86616">
        <ele>1579.95</ele>
        <time>2019-06-03T09:13:53.000Z</time>
      </trkpt>
      <trkpt lat="45.0974" lon="5.86574">
        <ele>1571.51</ele>
        <time>2019-06-03T09:13:58.000Z</time>
      </trkpt>
      <trkpt lat="45.09783" lon="5.86494">
        <ele>1559.05</ele>
        <time>2019-06-03T09:14:03.000Z</time>
      </trkpt>
      <trkpt lat="45.09853" lon="5.86448">
        <ele>1556.73</ele>
        <time>2019-06-03T09:14:08.000Z</time>
      </trkpt>
      <trkpt lat="45.09915" lon="5.86385">
        <ele>1550.3</ele>
        <time>2019-06-03T09:14:13.000Z</time>
      </trkpt>
      <trkpt lat="45.09955" lon="5.86308">
        <ele>1548.16</ele>
        <time>2019-06-03T09:14:18.000Z</time>
      </trkpt>
      <trkpt lat="45.10019" lon="5.86278">
        <ele>1548.09</ele>
        <time>2019-06-03T09:14:23.000Z</time>
      </trkpt>
      <trkpt lat="45.1007" lon="5.86266">
        <ele>1544.83</ele>
        <time>2019-06-03T09:14:28.000Z</time>
      </trkpt>
      <trkpt lat="45.10114" lon="5.86249">
        <ele>1542.4</ele>
        <time>2019-06-03T09:14:33.000Z</time>
      </trkpt>
      <trkpt lat="45.10119" lon="5.86159">
        <ele>1542.85</ele>
        <time>2019-06-03T09:14:38.000Z</time>
      </trkpt>
      <trkpt lat="45.10126" lon="5.86059">
        <ele>1539.78</ele>
        <time>2019-06-03T09:14:43.000Z</time>
      </trkpt>
      <trkpt lat="45.10178" lon="5.86022">
        <ele>1524.75</ele>
        <time>2019-06-03T09:14:48.000Z</time>
      </trkpt>
      <trkpt lat="45.10249" lon="5.86055">
        <ele>1518.61</ele>
        <time>2019-06-03T09:14:53.000Z</time>
      </trkpt>
      <trkpt lat="45.10298" lon="5.86058">
        <ele>1512.52</ele>
        <time>2019-06-03T09:14:58.000Z</time>
      </trkpt>
      <trkpt lat="45.10256" lon="5.86006">
        <ele>1507.07</ele>
        <time>2019-06-03T09:15:03.000Z</time>
      </trkpt>
      <trkpt lat="45.10211" lon="5.8595">
        <ele>1498.47</ele>
        <time>2019-06-03T09:15:08.000Z</time>
      </trkpt>
      <trkpt lat="45.10155" lon="5.85911">
        <ele>1492.7</ele>
        <time>2019-06-03T09:15:13.000Z</time>
      </trkpt>
      <trkpt lat="45.10091" lon="5.85877">
        <ele>1490.15</ele>
        <time>2019-06-03T09:15:18.000Z</time>
      </trkpt>
      <trkpt lat="45.10018" lon="5.85867">
        <ele>1480.93</ele>
        <time>2019-06-03T09:15:23.000Z</time>
      </trkpt>
      <trkpt lat="45.09947" lon="5.85861">
        <ele>1472.78</ele>
        <time>2019-06-03T09:15:28.000Z</time>
      </trkpt>
      <trkpt lat="45.09903" lon="5.85928">
        <ele>1467.57</ele>
        <time>2019-06-03T09:15:33.000Z</time>
      </trkpt>
      <trkpt lat="45.09852" lon="5.85961">
        <ele>1468.22</ele>
        <time>2019-06-03T09:15:38.000Z</time>
      </trkpt>
      <trkpt lat="45.09784" lon="5.85973">
        <ele>1466.94</ele>
        <time>2019-06-03T09:15:43.000Z</time>
      </trkpt>
      <trkpt lat="45.09718" lon="5.85901">
        <ele>1465.09</ele>
        <time>2019-06-03T09:15:48.000Z</time>
      </trkpt>
      <trkpt lat="45.09664" lon="5.8582">
        <ele>1456.45</ele>
        <time>2019-06-03T09:15:53.000Z</time>
      </trkpt>
      <trkpt lat="45.09588" lon="5.85789">
        <ele>1449.54</ele>
        <time>2019-06-03T09:15:58.000Z</time>
      </trkpt>
      <trkpt lat="45.09504" lon="5.8579">
        <ele>1445.62</ele>
        <time>2019-06-03T09:16:03.000Z</time>
      </trkpt>
      <trkpt lat="45.09415" lon="5.85798">
        <ele>1444.7</ele>
        <time>2019-06-03T09:16:08.000Z</time>
      </trkpt>
      <trkpt lat="45.09331" lon="5.85786">
        <ele>1439.92</ele>
        <time>2019-06-03T09:16:13.000Z</time>
      </trkpt>
      <trkpt lat="45.09254" lon="5.85759">
        <ele>1425.91</ele>
        <time>2019-06-03T09:16:18.000Z</time>
      </trkpt>
      <trkpt lat="45.09168" lon="5.85757">
        <ele>1415.01</ele>
        <time>2019-06-03T09:16:23.000Z</time>
      </trkpt>
      <trkpt lat="45.09087" lon="5.85745">
        <ele>1407.22</ele>
        <time>2019-06-03T09:16:28.000Z</time>
      </trkpt>
      <trkpt lat="45.09002" lon="5.85739">
        <ele>1397.77</ele>
        <time>2019-06-03T09:16:33.000Z</time>
      </trkpt>
      <trkpt lat="45.08923" lon="5.85763">
        <ele>1393.37</ele>
        <time>2019-06-03T09:16:38.000Z</time>
      </trkpt>
      <trkpt lat="45.08886" lon="5.85771">
        <ele>1386.46</ele>
        <time>2019-06-03T09:16:43.000Z</time>
      </trkpt>
      <trkpt lat="45.0893" lon="5.85725">
        <ele>1386</ele>
        <time>2019-06-03T09:16:48.000Z</time>
      </trkpt>
      <trkpt lat="45.08974" lon="5.85678">
        <ele>1379.48</ele>
        <time>2019-06-03T09:16:53.000Z</time>
      </trkpt>
      <trkpt lat="45.09012" lon="5.85622">
        <ele>1375.92</ele>
        <time>2019-06-03T09:16:58.000Z</time>
      </trkpt>
      <trkpt lat="45.09056" lon="5.85559">
        <ele>1373.35</ele>
        <time>2019-06-03T09:17:03.000Z</time>
      </trkpt>
      <trkpt lat="45.091" lon="5.85496">
        <ele>1368.98</ele>
        <time>2019-06-03T09:17:08.000Z</time>
      </trkpt>
      <trkpt lat="45.09148" lon="5.85445">
        <ele>1361.96</ele>
        <time>2019-06-03T09:17:13.000Z</time>
      </trkpt>
      <trkpt lat="45.09188" lon="5.85423">
        <ele>1359.89</ele>
        <time>2019-06-03T09:17:18.000Z</time>
      </trkpt>
      <trkpt lat="45.09188" lon="5.85406">
        <ele>1356.32</ele>
        <time>2019-06-03T09:17:23.000Z</time>
      </trkpt>
      <trkpt lat="45.09188" lon="5.85393">
        <ele>1351.5</ele>
        <time>2019-06-03T09:17:28.000Z</time>
      </trkpt>
      <trkpt lat="45.09181" lon="5.85383">
        <ele>1348.03</ele>
        <time>2019-06-03T09:17:35.000Z</time>
      </trkpt>
      <trkpt lat="45.09171" lon="5.85387">
        <ele>1362.91</ele>
        <time>2019-06-03T09:17:58.000Z</time>
      </trkpt>
      <trkpt lat="45.09153" lon="5.85389">
        <ele>1363.03</ele>
        <time>2019-06-03T09:18:03.000Z</time>
      </trkpt>
      <trkpt lat="45.09124" lon="5.85389">
        <ele>1359.51</ele>
        <time>2019-06-03T09:18:08.000Z</time>
      </trkpt>
      <trkpt lat="45.09087" lon="5.85405">
        <ele>1356.34</ele>
        <time>2019-06-03T09:18:13.000Z</time>
      </trkpt>
      <trkpt lat="45.09042" lon="5.85436">
        <ele>1350.07</ele>
        <time>2019-06-03T09:18:18.000Z</time>
      </trkpt>
      <trkpt lat="45.09004" lon="5.85468">
        <ele>1347.5</ele>
        <time>2019-06-03T09:18:23.000Z</time>
      </trkpt>
      <trkpt lat="45.08973" lon="5.85458">
        <ele>1346.44</ele>
        <time>2019-06-03T09:18:28.000Z</time>
      </trkpt>
      <trkpt lat="45.09001" lon="5.85386">
        <ele>1344.07</ele>
        <time>2019-06-03T09:18:33.000Z</time>
      </trkpt>
      <trkpt lat="45.09054" lon="5.8535">
        <ele>1339.97</ele>
        <time>2019-06-03T09:18:38.000Z</time>
      </trkpt>
      <trkpt lat="45.09098" lon="5.85292">
        <ele>1332.84</ele>
        <time>2019-06-03T09:18:43.000Z</time>
      </trkpt>
      <trkpt lat="45.09162" lon="5.85257">
        <ele>1328.17</ele>
        <time>2019-06-03T09:18:48.000Z</time>
      </trkpt>
      <trkpt lat="45.09228" lon="5.85228">
        <ele>1325.31</ele>
        <time>2019-06-03T09:18:53.000Z</time>
      </trkpt>
      <trkpt lat="45.09295" lon="5.85209">
        <ele>1323.72</ele>
        <time>2019-06-03T09:18:58.000Z</time>
      </trkpt>
      <trkpt lat="45.09336" lon="5.85198">
        <ele>1320.34</ele>
        <time>2019-06-03T09:19:03.000Z</time>
      </trkpt>
      <trkpt lat="45.0929" lon="5.85177">
        <ele>1319.3</ele>
        <time>2019-06-03T09:19:08.000Z</time>
      </trkpt>
      <trkpt lat="45.09243" lon="5.85177">
        <ele>1314.61</ele>
        <time>2019-06-03T09:19:13.000Z</time>
      </trkpt>
      <trkpt lat="45.09189" lon="5.85173">
        <ele>1310.39</ele>
        <time>2019-06-03T09:19:18.000Z</time>
      </trkpt>
      <trkpt lat="45.09124" lon="5.85167">
        <ele>1309.44</ele>
        <time>2019-06-03T09:19:23.000Z</time>
      </trkpt>
      <trkpt lat="45.09063" lon="5.85136">
        <ele>1305.77</ele>
        <time>2019-06-03T09:19:28.000Z</time>
      </trkpt>
      <trkpt lat="45.09014" lon="5.85082">
        <ele>1299.84</ele>
        <time>2019-06-03T09:19:33.000Z</time>
      </trkpt>
      <trkpt lat="45.09005" lon="5.85012">
        <ele>1293.72</ele>
        <time>2019-06-03T09:19:38.000Z</time>
      </trkpt>
      <trkpt lat="45.09066" lon="5.85016">
        <ele>1292.05</ele>
        <time>2019-06-03T09:19:43.000Z</time>
      </trkpt>
      <trkpt lat="45.09131" lon="5.85037">
        <ele>1284.91</ele>
        <time>2019-06-03T09:19:48.000Z</time>
      </trkpt>
      <trkpt lat="45.09166" lon="5.8497">
        <ele>1286.1</ele>
        <time>2019-06-03T09:19:53.000Z</time>
      </trkpt>
      <trkpt lat="45.09154" lon="5.84872">
        <ele>1282.98</ele>
        <time>2019-06-03T09:19:58.000Z</time>
      </trkpt>
      <trkpt lat="45.09171" lon="5.84779">
        <ele>1275.6</ele>
        <time>2019-06-03T09:20:03.000Z</time>
      </trkpt>
      <trkpt lat="45.09209" lon="5.84777">
        <ele>1264.56</ele>
        <time>2019-06-03T09:20:08.000Z</time>
      </trkpt>
      <trkpt lat="45.09222" lon="5.84814">
        <ele>1259.76</ele>
        <time>2019-06-03T09:20:13.000Z</time>
      </trkpt>
      <trkpt lat="45.09242" lon="5.84853">
        <ele>1256.7</ele>
        <time>2019-06-03T09:20:18.000Z</time>
      </trkpt>
      <trkpt lat="45.09269" lon="5.84899">
        <ele>1254.08</ele>
        <time>2019-06-03T09:20:23.000Z</time>
      </trkpt>
      <trkpt lat="45.09312" lon="5.8494">
        <ele>1251.91</ele>
        <time>2019-06-03T09:20:28.000Z</time>
      </trkpt>
      <trkpt lat="45.09368" lon="5.84996">
        <ele>1250.26</ele>
        <time>2019-06-03T09:20:33.000Z</time>
      </trkpt>
      <trkpt lat="45.09434" lon="5.85024">
        <ele>1248.03</ele>
        <time>2019-06-03T09:20:38.000Z</time>
      </trkpt>
      <trkpt lat="45.09508" lon="5.85034">
        <ele>1243.49</ele>
        <time>2019-06-03T09:20:43.000Z</time>
      </trkpt>
      <trkpt lat="45.09573" lon="5.8507">
        <ele>1237.36</ele>
        <time>2019-06-03T09:20:48.000Z</time>
      </trkpt>
      <trkpt lat="45.09651" lon="5.8506">
        <ele>1230.87</ele>
        <time>2019-06-03T09:20:53.000Z</time>
      </trkpt>
      <trkpt lat="45.09732" lon="5.85059">
        <ele>1224.45</ele>
        <time>2019-06-03T09:20:58.000Z</time>
      </trkpt>
      <trkpt lat="45.0981" lon="5.85075">
        <ele>1221.98</ele>
        <time>2019-06-03T09:21:03.000Z</time>
      </trkpt>
      <trkpt lat="45.09884" lon="5.85102">
        <ele>1212.34</ele>
        <time>2019-06-03T09:21:08.000Z</time>
      </trkpt>
      <trkpt lat="45.09953" lon="5.85145">
        <ele>1198.54</ele>
        <time>2019-06-03T09:21:13.000Z</time>
      </trkpt>
      <trkpt lat="45.10011" lon="5.85178">
        <ele>1194.59</ele>
        <time>2019-06-03T09:21:18.000Z</time>
      </trkpt>
      <trkpt lat="45.10055" lon="5.85156">
        <ele>1185.59</ele>
        <time>2019-06-03T09:21:23.000Z</time>
      </trkpt>
      <trkpt lat="45.10108" lon="5.85144">
        <ele>1179.91</ele>
        <time>2019-06-03T09:21:28.000Z</time>
      </trkpt>
      <trkpt lat="45.10167" lon="5.85118">
        <ele>1176.85</ele>
        <time>2019-06-03T09:21:33.000Z</time>
      </trkpt>
      <trkpt lat="45.10233" lon="5.8514">
        <ele>1175.53</ele>
        <time>2019-06-03T09:21:38.000Z</time>
      </trkpt>
      <trkpt lat="45.10299" lon="5.85137">
        <ele>1169.98</ele>
        <time>2019-06-03T09:21:43.000Z</time>
      </trkpt>
      <trkpt lat="45.10353" lon="5.85132">
        <ele>1169.89</ele>
        <time>2019-06-03T09:21:48.000Z</time>
      </trkpt>
      <trkpt lat="45.10315" lon="5.85101">
        <ele>1165.77</ele>
        <time>2019-06-03T09:21:53.000Z</time>
      </trkpt>
      <trkpt lat="45.10264" lon="5.85092">
        <ele>1159.96</ele>
        <time>2019-06-03T09:21:58.000Z</time>
      </trkpt>
      <trkpt lat="45.10207" lon="5.85055">
        <ele>1152.67</ele>
        <time>2019-06-03T09:22:03.000Z</time>
      </trkpt>
      <trkpt lat="45.10159" lon="5.85017">
        <ele>1149.24</ele>
        <time>2019-06-03T09:22:08.000Z</time>
      </trkpt>
      <trkpt lat="45.10096" lon="5.84995">
        <ele>1142.76</ele>
        <time>2019-06-03T09:22:13.000Z</time>
      </trkpt>
      <trkpt lat="45.10023" lon="5.8499">
        <ele>1140</ele>
        <time>2019-06-03T09:22:18.000Z</time>
      </trkpt>
      <trkpt lat="45.09958" lon="5.84947">
        <ele>1137.04</ele>
        <time>2019-06-03T09:22:23.000Z</time>
      </trkpt>
      <trkpt lat="45.099" lon="5.8488">
        <ele>1129.8</ele>
        <time>2019-06-03T09:22:28.000Z</time>
      </trkpt>
      <trkpt lat="45.09857" lon="5.84846">
        <ele>1121.15</ele>
        <time>2019-06-03T09:22:33.000Z</time>
      </trkpt>
      <trkpt lat="45.09873" lon="5.84831">
        <ele>1115.46</ele>
        <time>2019-06-03T09:22:38.000Z</time>
      </trkpt>
      <trkpt lat="45.09913" lon="5.84862">
        <ele>1115.54</ele>
        <time>2019-06-03T09:22:43.000Z</time>
      </trkpt>
      <trkpt lat="45.09965" lon="5.84878">
        <ele>1109.42</ele>
        <time>2019-06-03T09:22:48.000Z</time>
      </trkpt>
      <trkpt lat="45.10008" lon="5.84862">
        <ele>1106.83</ele>
        <time>2019-06-03T09:22:53.000Z</time>
      </trkpt>
      <trkpt lat="45.10074" lon="5.84851">
        <ele>1102.04</ele>
        <time>2019-06-03T09:22:58.000Z</time>
      </trkpt>
      <trkpt lat="45.10141" lon="5.84834">
        <ele>1098.34</ele>
        <time>2019-06-03T09:23:03.000Z</time>
      </trkpt>
      <trkpt lat="45.1018" lon="5.84754">
        <ele>1095.62</ele>
        <time>2019-06-03T09:23:08.000Z</time>
      </trkpt>
      <trkpt lat="45.10194" lon="5.84674">
        <ele>1092.67</ele>
        <time>2019-06-03T09:23:13.000Z</time>
      </trkpt>
      <trkpt lat="45.10193" lon="5.84601">
        <ele>1089.58</ele>
        <time>2019-06-03T09:23:18.000Z</time>
      </trkpt>
      <trkpt lat="45.10194" lon="5.84544">
        <ele>1091.24</ele>
        <time>2019-06-03T09:23:23.000Z</time>
      </trkpt>
      <trkpt lat="45.10198" lon="5.84493">
        <ele>1089.82</ele>
        <time>2019-06-03T09:23:28.000Z</time>
      </trkpt>
      <trkpt lat="45.10211" lon="5.84435">
        <ele>1088.75</ele>
        <time>2019-06-03T09:23:33.000Z</time>
      </trkpt>
      <trkpt lat="45.10239" lon="5.84375">
        <ele>1084.45</ele>
        <time>2019-06-03T09:23:38.000Z</time>
      </trkpt>
      <trkpt lat="45.1028" lon="5.84313">
        <ele>1074.1</ele>
        <time>2019-06-03T09:23:43.000Z</time>
      </trkpt>
      <trkpt lat="45.10322" lon="5.84244">
        <ele>1068.52</ele>
        <time>2019-06-03T09:23:48.000Z</time>
      </trkpt>
      <trkpt lat="45.10374" lon="5.84213">
        <ele>1063.1</ele>
        <time>2019-06-03T09:23:53.000Z</time>
      </trkpt>
      <trkpt lat="45.10431" lon="5.84259">
        <ele>1058.37</ele>
        <time>2019-06-03T09:23:58.000Z</time>
      </trkpt>
      <trkpt lat="45.10501" lon="5.84284">
        <ele>1054.12</ele>
        <time>2019-06-03T09:24:03.000Z</time>
      </trkpt>
      <trkpt lat="45.10541" lon="5.84304">
        <ele>1052.49</ele>
        <time>2019-06-03T09:24:08.000Z</time>
      </trkpt>
      <trkpt lat="45.10571" lon="5.84304">
        <ele>1049.14</ele>
        <time>2019-06-03T09:24:13.000Z</time>
      </trkpt>
      <trkpt lat="45.10616" lon="5.84273">
        <ele>1047.25</ele>
        <time>2019-06-03T09:24:18.000Z</time>
      </trkpt>
      <trkpt lat="45.10675" lon="5.8425">
        <ele>1038.3</ele>
        <time>2019-06-03T09:24:23.000Z</time>
      </trkpt>
      <trkpt lat="45.10739" lon="5.84229">
        <ele>1030.8</ele>
        <time>2019-06-03T09:24:28.000Z</time>
      </trkpt>
      <trkpt lat="45.10817" lon="5.84228">
        <ele>1024.15</ele>
        <time>2019-06-03T09:24:33.000Z</time>
      </trkpt>
      <trkpt lat="45.10893" lon="5.8422">
        <ele>1018.24</ele>
        <time>2019-06-03T09:24:38.000Z</time>
      </trkpt>
      <trkpt lat="45.10971" lon="5.84212">
        <ele>1010.35</ele>
        <time>2019-06-03T09:24:43.000Z</time>
      </trkpt>
      <trkpt lat="45.11056" lon="5.84221">
        <ele>1003.14</ele>
        <time>2019-06-03T09:24:48.000Z</time>
      </trkpt>
      <trkpt lat="45.11138" lon="5.84257">
        <ele>998.06</ele>
        <time>2019-06-03T09:24:53.000Z</time>
      </trkpt>
      <trkpt lat="45.1121" lon="5.8421">
        <ele>989.65</ele>
        <time>2019-06-03T09:24:58.000Z</time>
      </trkpt>
      <trkpt lat="45.11284" lon="5.84212">
        <ele>977.1</ele>
        <time>2019-06-03T09:25:03.000Z</time>
      </trkpt>
      <trkpt lat="45.11362" lon="5.84207">
        <ele>971.13</ele>
        <time>2019-06-03T09:25:08.000Z</time>
      </trkpt>
      <trkpt lat="45.11438" lon="5.84252">
        <ele>965.39</ele>
        <time>2019-06-03T09:25:13.000Z</time>
      </trkpt>
      <trkpt lat="45.1152" lon="5.8427">
        <ele>958.6</ele>
        <time>2019-06-03T09:25:18.000Z</time>
      </trkpt>
      <trkpt lat="45.11604" lon="5.8428">
        <ele>956</ele>
        <time>2019-06-03T09:25:23.000Z</time>
      </trkpt>
      <trkpt lat="45.11687" lon="5.8431">
        <ele>947.87</ele>
        <time>2019-06-03T09:25:28.000Z</time>
      </trkpt>
      <trkpt lat="45.11766" lon="5.84289">
        <ele>941.12</ele>
        <time>2019-06-03T09:25:33.000Z</time>
      </trkpt>
      <trkpt lat="45.11833" lon="5.84227">
        <ele>931.27</ele>
        <time>2019-06-03T09:25:38.000Z</time>
      </trkpt>
      <trkpt lat="45.11919" lon="5.84213">
        <ele>921.22</ele>
        <time>2019-06-03T09:25:43.000Z</time>
      </trkpt>
      <trkpt lat="45.11983" lon="5.84203">
        <ele>908.62</ele>
        <time>2019-06-03T09:25:48.000Z</time>
      </trkpt>
      <trkpt lat="45.12044" lon="5.84239">
        <ele>906.3</ele>
        <time>2019-06-03T09:25:53.000Z</time>
      </trkpt>
      <trkpt lat="45.12081" lon="5.84297">
        <ele>900.48</ele>
        <time>2019-06-03T09:25:58.000Z</time>
      </trkpt>
      <trkpt lat="45.12096" lon="5.843">
        <ele>893.23</ele>
        <time>2019-06-03T09:26:03.000Z</time>
      </trkpt>
      <trkpt lat="45.12104" lon="5.84285">
        <ele>885.04</ele>
        <time>2019-06-03T09:26:18.000Z</time>
      </trkpt>
      <trkpt lat="45.12097" lon="5.84249">
        <ele>881.29</ele>
        <time>2019-06-03T09:26:23.000Z</time>
      </trkpt>
      <trkpt lat="45.1209" lon="5.84239">
        <ele>880.09</ele>
        <time>2019-06-03T09:26:28.000Z</time>
      </trkpt>
      <trkpt lat="45.12074" lon="5.84237">
        <ele>866.59</ele>
        <time>2019-06-03T09:27:17.000Z</time>
      </trkpt>
      <trkpt lat="45.12051" lon="5.842">
        <ele>860.02</ele>
        <time>2019-06-03T09:27:22.000Z</time>
      </trkpt>
      <trkpt lat="45.12017" lon="5.84168">
        <ele>859.58</ele>
        <time>2019-06-03T09:27:27.000Z</time>
      </trkpt>
      <trkpt lat="45.11973" lon="5.84144">
        <ele>858.38</ele>
        <time>2019-06-03T09:27:32.000Z</time>
      </trkpt>
      <trkpt lat="45.11914" lon="5.84121">
        <ele>858.32</ele>
        <time>2019-06-03T09:27:37.000Z</time>
      </trkpt>
      <trkpt lat="45.11857" lon="5.84103">
        <ele>855.95</ele>
        <time>2019-06-03T09:27:42.000Z</time>
      </trkpt>
      <trkpt lat="45.11798" lon="5.84122">
        <ele>852.76</ele>
        <time>2019-06-03T09:27:47.000Z</time>
      </trkpt>
      <trkpt lat="45.11719" lon="5.84025">
        <ele>848.41</ele>
        <time>2019-06-03T09:27:56.000Z</time>
      </trkpt>
      <trkpt lat="45.11687" lon="5.83933">
        <ele>839.63</ele>
        <time>2019-06-03T09:28:01.000Z</time>
      </trkpt>
      <trkpt lat="45.11667" lon="5.83843">
        <ele>833.44</ele>
        <time>2019-06-03T09:28:06.000Z</time>
      </trkpt>
      <trkpt lat="45.11515" lon="5.83765">
        <ele>826.73</ele>
        <time>2019-06-03T09:28:18.000Z</time>
      </trkpt>
      <trkpt lat="45.11438" lon="5.83762">
        <ele>817.43</ele>
        <time>2019-06-03T09:28:23.000Z</time>
      </trkpt>
      <trkpt lat="45.11389" lon="5.83685">
        <ele>807.2</ele>
        <time>2019-06-03T09:28:28.000Z</time>
      </trkpt>
      <trkpt lat="45.11335" lon="5.83621">
        <ele>800.46</ele>
        <time>2019-06-03T09:28:33.000Z</time>
      </trkpt>
      <trkpt lat="45.1127" lon="5.8359">
        <ele>794.34</ele>
        <time>2019-06-03T09:28:38.000Z</time>
      </trkpt>
      <trkpt lat="45.11257" lon="5.83544">
        <ele>787.89</ele>
        <time>2019-06-03T09:28:43.000Z</time>
      </trkpt>
      <trkpt lat="45.11296" lon="5.83532">
        <ele>786.24</ele>
        <time>2019-06-03T09:28:48.000Z</time>
      </trkpt>
      <trkpt lat="45.11346" lon="5.83555">
        <ele>780.11</ele>
        <time>2019-06-03T09:28:53.000Z</time>
      </trkpt>
      <trkpt lat="45.11394" lon="5.83515">
        <ele>774.86</ele>
        <time>2019-06-03T09:28:58.000Z</time>
      </trkpt>
      <trkpt lat="45.11448" lon="5.83518">
        <ele>769.73</ele>
        <time>2019-06-03T09:29:03.000Z</time>
      </trkpt>
      <trkpt lat="45.11508" lon="5.83553">
        <ele>765.94</ele>
        <time>2019-06-03T09:29:08.000Z</time>
      </trkpt>
      <trkpt lat="45.11577" lon="5.83583">
        <ele>762.13</ele>
        <time>2019-06-03T09:29:13.000Z</time>
      </trkpt>
      <trkpt lat="45.1165" lon="5.83578">
        <ele>755.09</ele>
        <time>2019-06-03T09:29:18.000Z</time>
      </trkpt>
      <trkpt lat="45.11719" lon="5.8361">
        <ele>748.51</ele>
        <time>2019-06-03T09:29:23.000Z</time>
      </trkpt>
      <trkpt lat="45.11788" lon="5.83638">
        <ele>746.51</ele>
        <time>2019-06-03T09:29:28.000Z</time>
      </trkpt>
      <trkpt lat="45.11827" lon="5.83714">
        <ele>740.75</ele>
        <time>2019-06-03T09:29:33.000Z</time>
      </trkpt>
      <trkpt lat="45.11891" lon="5.83728">
        <ele>735.13</ele>
        <time>2019-06-03T09:29:38.000Z</time>
      </trkpt>
      <trkpt lat="45.11934" lon="5.83679">
        <ele>725.6</ele>
        <time>2019-06-03T09:29:43.000Z</time>
      </trkpt>
      <trkpt lat="45.11984" lon="5.83668">
        <ele>717.4</ele>
        <time>2019-06-03T09:29:48.000Z</time>
      </trkpt>
      <trkpt lat="45.12044" lon="5.83703">
        <ele>712.14</ele>
        <time>2019-06-03T09:29:53.000Z</time>
      </trkpt>
      <trkpt lat="45.12061" lon="5.8369">
        <ele>706.41</ele>
        <time>2019-06-03T09:29:58.000Z</time>
      </trkpt>
      <trkpt lat="45.12018" lon="5.83669">
        <ele>702.8</ele>
        <time>2019-06-03T09:30:03.000Z</time>
      </trkpt>
      <trkpt lat="45.11969" lon="5.83646">
        <ele>695.87</ele>
        <time>2019-06-03T09:30:08.000Z</time>
      </trkpt>
      <trkpt lat="45.11928" lon="5.83587">
        <ele>691.43</ele>
        <time>2019-06-03T09:30:13.000Z</time>
      </trkpt>
      <trkpt lat="45.11869" lon="5.83585">
        <ele>681.67</ele>
        <time>2019-06-03T09:30:18.000Z</time>
      </trkpt>
      <trkpt lat="45.11828" lon="5.83525">
        <ele>675.7</ele>
        <time>2019-06-03T09:30:23.000Z</time>
      </trkpt>
      <trkpt lat="45.11808" lon="5.83429">
        <ele>669.45</ele>
        <time>2019-06-03T09:30:28.000Z</time>
      </trkpt>
      <trkpt lat="45.11751" lon="5.83379">
        <ele>666.76</ele>
        <time>2019-06-03T09:30:33.000Z</time>
      </trkpt>
      <trkpt lat="45.11692" lon="5.83315">
        <ele>660.72</ele>
        <time>2019-06-03T09:30:38.000Z</time>
      </trkpt>
      <trkpt lat="45.11632" lon="5.83257">
        <ele>656.76</ele>
        <time>2019-06-03T09:30:43.000Z</time>
      </trkpt>
      <trkpt lat="45.11577" lon="5.83207">
        <ele>650.25</ele>
        <time>2019-06-03T09:30:48.000Z</time>
      </trkpt>
      <trkpt lat="45.11534" lon="5.83127">
        <ele>641.77</ele>
        <time>2019-06-03T09:30:53.000Z</time>
      </trkpt>
      <trkpt lat="45.11483" lon="5.83082">
        <ele>633.68</ele>
        <time>2019-06-03T09:30:58.000Z</time>
      </trkpt>
      <trkpt lat="45.11428" lon="5.83053">
        <ele>629.15</ele>
        <time>2019-06-03T09:31:03.000Z</time>
      </trkpt>
      <trkpt lat="45.11375" lon="5.83015">
        <ele>627.69</ele>
        <time>2019-06-03T09:31:08.000Z</time>
      </trkpt>
      <trkpt lat="45.11318" lon="5.8297">
        <ele>628.1</ele>
        <time>2019-06-03T09:31:13.000Z</time>
      </trkpt>
      <trkpt lat="45.11307" lon="5.8291">
        <ele>622.32</ele>
        <time>2019-06-03T09:31:18.000Z</time>
      </trkpt>
      <trkpt lat="45.11361" lon="5.82896">
        <ele>618.76</ele>
        <time>2019-06-03T09:31:23.000Z</time>
      </trkpt>
      <trkpt lat="45.11423" lon="5.82884">
        <ele>612.61</ele>
        <time>2019-06-03T09:31:28.000Z</time>
      </trkpt>
      <trkpt lat="45.1149" lon="5.82875">
        <ele>604.85</ele>
        <time>2019-06-03T09:31:33.000Z</time>
      </trkpt>
      <trkpt lat="45.1156" lon="5.82877">
        <ele>599.75</ele>
        <time>2019-06-03T09:31:38.000Z</time>
      </trkpt>
      <trkpt lat="45.11628" lon="5.82879">
        <ele>599.78</ele>
        <time>2019-06-03T09:31:43.000Z</time>
      </trkpt>
      <trkpt lat="45.11691" lon="5.8287">
        <ele>590.64</ele>
        <time>2019-06-03T09:31:48.000Z</time>
      </trkpt>
      <trkpt lat="45.11736" lon="5.82871">
        <ele>581.85</ele>
        <time>2019-06-03T09:31:53.000Z</time>
      </trkpt>
      <trkpt lat="45.11773" lon="5.82878">
        <ele>576.36</ele>
        <time>2019-06-03T09:31:58.000Z</time>
      </trkpt>
      <trkpt lat="45.11808" lon="5.82885">
        <ele>573.27</ele>
        <time>2019-06-03T09:32:03.000Z</time>
      </trkpt>
      <trkpt lat="45.11841" lon="5.8289">
        <ele>566.28</ele>
        <time>2019-06-03T09:32:08.000Z</time>
      </trkpt>
      <trkpt lat="45.11872" lon="5.82886">
        <ele>562.09</ele>
        <time>2019-06-03T09:32:13.000Z</time>
      </trkpt>
      <trkpt lat="45.11903" lon="5.82875">
        <ele>562.45</ele>
        <time>2019-06-03T09:32:18.000Z</time>
      </trkpt>
      <trkpt lat="45.11941" lon="5.8286">
        <ele>561.36</ele>
        <time>2019-06-03T09:32:23.000Z</time>
      </trkpt>
      <trkpt lat="45.11964" lon="5.82852">
        <ele>563.49</ele>
        <time>2019-06-03T09:32:28.000Z</time>
      </trkpt>
      <trkpt lat="45.1198" lon="5.82847">
        <ele>559.85</ele>
        <time>2019-06-03T09:32:33.000Z</time>
      </trkpt>
      <trkpt lat="45.12006" lon="5.82853">
        <ele>558.18</ele>
        <time>2019-06-03T09:32:38.000Z</time>
      </trkpt>
      <trkpt lat="45.12021" lon="5.8286">
        <ele>554.28</ele>
        <time>2019-06-03T09:32:43.000Z</time>
      </trkpt>
      <trkpt lat="45.12045" lon="5.82863">
        <ele>551.51</ele>
        <time>2019-06-03T09:32:48.000Z</time>
      </trkpt>
      <trkpt lat="45.12068" lon="5.8287">
        <ele>548.18</ele>
        <time>2019-06-03T09:32:53.000Z</time>
      </trkpt>
      <trkpt lat="45.12097" lon="5.82893">
        <ele>548.07</ele>
        <time>2019-06-03T09:32:58.000Z</time>
      </trkpt>
      <trkpt lat="45.12127" lon="5.82917">
        <ele>548.76</ele>
        <time>2019-06-03T09:33:03.000Z</time>
      </trkpt>
      <trkpt lat="45.12159" lon="5.82931">
        <ele>545.72</ele>
        <time>2019-06-03T09:33:08.000Z</time>
      </trkpt>
      <trkpt lat="45.12193" lon="5.82946">
        <ele>544.22</ele>
        <time>2019-06-03T09:33:13.000Z</time>
      </trkpt>
      <trkpt lat="45.12222" lon="5.82961">
        <ele>545.2</ele>
        <time>2019-06-03T09:33:18.000Z</time>
      </trkpt>
      <trkpt lat="45.12242" lon="5.82972">
        <ele>544.61</ele>
        <time>2019-06-03T09:33:23.000Z</time>
      </trkpt>
      <trkpt lat="45.1225" lon="5.82985">
        <ele>542.2</ele>
        <time>2019-06-03T09:33:28.000Z</time>
      </trkpt>
      <trkpt lat="45.1226" lon="5.82982">
        <ele>546.55</ele>
        <time>2019-06-03T09:34:01.000Z</time>
      </trkpt>
      <trkpt lat="45.12269" lon="5.82978">
        <ele>549.62</ele>
        <time>2019-06-03T09:34:07.000Z</time>
      </trkpt>
      <trkpt lat="45.1226" lon="5.82987">
        <ele>546.53</ele>
        <time>2019-06-03T09:34:33.000Z</time>
      </trkpt>
      <trkpt lat="45.12271" lon="5.82991">
        <ele>547.09</ele>
        <time>2019-06-03T09:36:37.000Z</time>
      </trkpt>
      <trkpt lat="45.12283" lon="5.83001">
        <ele>543.45</ele>
        <time>2019-06-03T09:36:42.000Z</time>
      </trkpt>
      <trkpt lat="45.12302" lon="5.83011">
        <ele>543</ele>
        <time>2019-06-03T09:36:47.000Z</time>
      </trkpt>
      <trkpt lat="45.12321" lon="5.83021">
        <ele>540.42</ele>
        <time>2019-06-03T09:36:52.000Z</time>
      </trkpt>
      <trkpt lat="45.12343" lon="5.83039">
        <ele>537.1</ele>
        <time>2019-06-03T09:36:57.000Z</time>
      </trkpt>
      <trkpt lat="45.12365" lon="5.83049">
        <ele>539.58</ele>
        <time>2019-06-03T09:37:02.000Z</time>
      </trkpt>
      <trkpt lat="45.12387" lon="5.83067">
        <ele>537.84</ele>
        <time>2019-06-03T09:37:07.000Z</time>
      </trkpt>
      <trkpt lat="45.124" lon="5.83084">
        <ele>541.85</ele>
        <time>2019-06-03T09:37:12.000Z</time>
      </trkpt>
      <trkpt lat="45.12415" lon="5.83101">
        <ele>539.11</ele>
        <time>2019-06-03T09:37:17.000Z</time>
      </trkpt>
      <trkpt lat="45.12433" lon="5.83114">
        <ele>541.53</ele>
        <time>2019-06-03T09:37:22.000Z</time>
      </trkpt>
      <trkpt lat="45.12448" lon="5.83126">
        <ele>541.3</ele>
        <time>2019-06-03T09:37:27.000Z</time>
      </trkpt>
      <trkpt lat="45.12469" lon="5.83137">
        <ele>542.2</ele>
        <time>2019-06-03T09:37:32.000Z</time>
      </trkpt>
      <trkpt lat="45.12489" lon="5.83148">
        <ele>545.52</ele>
        <time>2019-06-03T09:37:37.000Z</time>
      </trkpt>
      <trkpt lat="45.12508" lon="5.83165">
        <ele>539.49</ele>
        <time>2019-06-03T09:37:42.000Z</time>
      </trkpt>
      <trkpt lat="45.12524" lon="5.83183">
        <ele>543.85</ele>
        <time>2019-06-03T09:37:47.000Z</time>
      </trkpt>
      <trkpt lat="45.12538" lon="5.83205">
        <ele>542.95</ele>
        <time>2019-06-03T09:37:52.000Z</time>
      </trkpt>
      <trkpt lat="45.12554" lon="5.83221">
        <ele>545.21</ele>
        <time>2019-06-03T09:37:57.000Z</time>
      </trkpt>
      <trkpt lat="45.12571" lon="5.83237">
        <ele>548.4</ele>
        <time>2019-06-03T09:38:02.000Z</time>
      </trkpt>
      <trkpt lat="45.12587" lon="5.83256">
        <ele>551.38</ele>
        <time>2019-06-03T09:38:07.000Z</time>
      </trkpt>
      <trkpt lat="45.12607" lon="5.83277">
        <ele>551.32</ele>
        <time>2019-06-03T09:38:12.000Z</time>
      </trkpt>
      <trkpt lat="45.12626" lon="5.83299">
        <ele>550.19</ele>
        <time>2019-06-03T09:38:17.000Z</time>
      </trkpt>
      <trkpt lat="45.12645" lon="5.83317">
        <ele>551.19</ele>
        <time>2019-06-03T09:38:22.000Z</time>
      </trkpt>
      <trkpt lat="45.1266" lon="5.83336">
        <ele>546.48</ele>
        <time>2019-06-03T09:38:27.000Z</time>
      </trkpt>
      <trkpt lat="45.1268" lon="5.83358">
        <ele>547.19</ele>
        <time>2019-06-03T09:38:32.000Z</time>
      </trkpt>
      <trkpt lat="45.1269" lon="5.83384">
        <ele>548.05</ele>
        <time>2019-06-03T09:38:37.000Z</time>
      </trkpt>
      <trkpt lat="45.12705" lon="5.83411">
        <ele>547.14</ele>
        <time>2019-06-03T09:38:42.000Z</time>
      </trkpt>
      <trkpt lat="45.12714" lon="5.83442">
        <ele>549.44</ele>
        <time>2019-06-03T09:38:47.000Z</time>
      </trkpt>
      <trkpt lat="45.12731" lon="5.83471">
        <ele>550.11</ele>
        <time>2019-06-03T09:38:52.000Z</time>
      </trkpt>
      <trkpt lat="45.12737" lon="5.83498">
        <ele>547.98</ele>
        <time>2019-06-03T09:38:57.000Z</time>
      </trkpt>
      <trkpt lat="45.12767" lon="5.83506">
        <ele>547.6</ele>
        <time>2019-06-03T09:39:02.000Z</time>
      </trkpt>
      <trkpt lat="45.12786" lon="5.83506">
        <ele>550.21</ele>
        <time>2019-06-03T09:39:07.000Z</time>
      </trkpt>
      <trkpt lat="45.12811" lon="5.83509">
        <ele>553.04</ele>
        <time>2019-06-03T09:39:12.000Z</time>
      </trkpt>
      <trkpt lat="45.1283" lon="5.83521">
        <ele>553.86</ele>
        <time>2019-06-03T09:39:17.000Z</time>
      </trkpt>
      <trkpt lat="45.12853" lon="5.83522">
        <ele>557.14</ele>
        <time>2019-06-03T09:39:22.000Z</time>
      </trkpt>
      <trkpt lat="45.12873" lon="5.8353">
        <ele>554.54</ele>
        <time>2019-06-03T09:39:27.000Z</time>
      </trkpt>
      <trkpt lat="45.12892" lon="5.83542">
        <ele>553.11</ele>
        <time>2019-06-03T09:39:32.000Z</time>
      </trkpt>
      <trkpt lat="45.12912" lon="5.83556">
        <ele>556.17</ele>
        <time>2019-06-03T09:39:37.000Z</time>
      </trkpt>
      <trkpt lat="45.1293" lon="5.83576">
        <ele>556.97</ele>
        <time>2019-06-03T09:39:42.000Z</time>
      </trkpt>
      <trkpt lat="45.12946" lon="5.83597">
        <ele>561.69</ele>
        <time>2019-06-03T09:39:47.000Z</time>
      </trkpt>
      <trkpt lat="45.12967" lon="5.83603">
        <ele>563.44</ele>
        <time>2019-06-03T09:39:52.000Z</time>
      </trkpt>
      <trkpt lat="45.12987" lon="5.83602">
        <ele>564.84</ele>
        <time>2019-06-03T09:39:57.000Z</time>
      </trkpt>
      <trkpt lat="45.13008" lon="5.83611">
        <ele>564.73</ele>
        <time>2019-06-03T09:40:02.000Z</time>
      </trkpt>
      <trkpt lat="45.13024" lon="5.83638">
        <ele>566.16</ele>
        <time>2019-06-03T09:40:07.000Z</time>
      </trkpt>
      <trkpt lat="45.13034" lon="5.83659">
        <ele>566.94</ele>
        <time>2019-06-03T09:40:12.000Z</time>
      </trkpt>
      <trkpt lat="45.13047" lon="5.83684">
        <ele>568.61</ele>
        <time>2019-06-03T09:40:17.000Z</time>
      </trkpt>
      <trkpt lat="45.13057" lon="5.83709">
        <ele>569.88</ele>
        <time>2019-06-03T09:40:22.000Z</time>
      </trkpt>
      <trkpt lat="45.13067" lon="5.83729">
        <ele>570.43</ele>
        <time>2019-06-03T09:40:27.000Z</time>
      </trkpt>
      <trkpt lat="45.13079" lon="5.83744">
        <ele>570.89</ele>
        <time>2019-06-03T09:40:32.000Z</time>
      </trkpt>
      <trkpt lat="45.13092" lon="5.83766">
        <ele>573.5</ele>
        <time>2019-06-03T09:40:37.000Z</time>
      </trkpt>
      <trkpt lat="45.13102" lon="5.83789">
        <ele>572.65</ele>
        <time>2019-06-03T09:40:42.000Z</time>
      </trkpt>
      <trkpt lat="45.13121" lon="5.83795">
        <ele>575.28</ele>
        <time>2019-06-03T09:40:47.000Z</time>
      </trkpt>
      <trkpt lat="45.13138" lon="5.83787">
        <ele>576.66</ele>
        <time>2019-06-03T09:40:52.000Z</time>
      </trkpt>
      <trkpt lat="45.13154" lon="5.83777">
        <ele>577.58</ele>
        <time>2019-06-03T09:40:57.000Z</time>
      </trkpt>
      <trkpt lat="45.13171" lon="5.83762">
        <ele>576.95</ele>
        <time>2019-06-03T09:41:02.000Z</time>
      </trkpt>
      <trkpt lat="45.13189" lon="5.83752">
        <ele>573.15</ele>
        <time>2019-06-03T09:41:07.000Z</time>
      </trkpt>
      <trkpt lat="45.13217" lon="5.83745">
        <ele>569.05</ele>
        <time>2019-06-03T09:41:12.000Z</time>
      </trkpt>
      <trkpt lat="45.13242" lon="5.83754">
        <ele>570.11</ele>
        <time>2019-06-03T09:41:17.000Z</time>
      </trkpt>
      <trkpt lat="45.13269" lon="5.83761">
        <ele>569.74</ele>
        <time>2019-06-03T09:41:22.000Z</time>
      </trkpt>
      <trkpt lat="45.13293" lon="5.83773">
        <ele>569.64</ele>
        <time>2019-06-03T09:41:27.000Z</time>
      </trkpt>
      <trkpt lat="45.13315" lon="5.83784">
        <ele>570.19</ele>
        <time>2019-06-03T09:41:32.000Z</time>
      </trkpt>
      <trkpt lat="45.13337" lon="5.8379">
        <ele>571.43</ele>
        <time>2019-06-03T09:41:37.000Z</time>
      </trkpt>
      <trkpt lat="45.13364" lon="5.83801">
        <ele>572.67</ele>
        <time>2019-06-03T09:41:42.000Z</time>
      </trkpt>
      <trkpt lat="45.1339" lon="5.83811">
        <ele>573.07</ele>
        <time>2019-06-03T09:41:47.000Z</time>
      </trkpt>
      <trkpt lat="45.13415" lon="5.83816">
        <ele>573.48</ele>
        <time>2019-06-03T09:41:52.000Z</time>
      </trkpt>
      <trkpt lat="45.13437" lon="5.8383">
        <ele>567.55</ele>
        <time>2019-06-03T09:41:57.000Z</time>
      </trkpt>
      <trkpt lat="45.13464" lon="5.8384">
        <ele>564.17</ele>
        <time>2019-06-03T09:42:02.000Z</time>
      </trkpt>
      <trkpt lat="45.13486" lon="5.83851">
        <ele>567.23</ele>
        <time>2019-06-03T09:42:07.000Z</time>
      </trkpt>
      <trkpt lat="45.13506" lon="5.83861">
        <ele>567.78</ele>
        <time>2019-06-03T09:42:12.000Z</time>
      </trkpt>
      <trkpt lat="45.13531" lon="5.83868">
        <ele>566.1</ele>
        <time>2019-06-03T09:42:17.000Z</time>
      </trkpt>
      <trkpt lat="45.13556" lon="5.83875">
        <ele>564.43</ele>
        <time>2019-06-03T09:42:22.000Z</time>
      </trkpt>
      <trkpt lat="45.13588" lon="5.83886">
        <ele>566.2</ele>
        <time>2019-06-03T09:42:27.000Z</time>
      </trkpt>
      <trkpt lat="45.13623" lon="5.83902">
        <ele>566.24</ele>
        <time>2019-06-03T09:42:32.000Z</time>
      </trkpt>
      <trkpt lat="45.13654" lon="5.83927">
        <ele>566.5</ele>
        <time>2019-06-03T09:42:37.000Z</time>
      </trkpt>
      <trkpt lat="45.13681" lon="5.83934">
        <ele>568.52</ele>
        <time>2019-06-03T09:42:42.000Z</time>
      </trkpt>
      <trkpt lat="45.13706" lon="5.83946">
        <ele>567.55</ele>
        <time>2019-06-03T09:42:47.000Z</time>
      </trkpt>
      <trkpt lat="45.13731" lon="5.83955">
        <ele>568.31</ele>
        <time>2019-06-03T09:42:52.000Z</time>
      </trkpt>
      <trkpt lat="45.13747" lon="5.83954">
        <ele>572.41</ele>
        <time>2019-06-03T09:42:57.000Z</time>
      </trkpt>
      <trkpt lat="45.13765" lon="5.83947">
        <ele>574.07</ele>
        <time>2019-06-03T09:43:02.000Z</time>
      </trkpt>
      <trkpt lat="45.13785" lon="5.83967">
        <ele>573.55</ele>
        <time>2019-06-03T09:43:07.000Z</time>
      </trkpt>
      <trkpt lat="45.13806" lon="5.83982">
        <ele>573.65</ele>
        <time>2019-06-03T09:43:12.000Z</time>
      </trkpt>
      <trkpt lat="45.13827" lon="5.83995">
        <ele>570.99</ele>
        <time>2019-06-03T09:43:17.000Z</time>
      </trkpt>
      <trkpt lat="45.13851" lon="5.84001">
        <ele>573.19</ele>
        <time>2019-06-03T09:43:22.000Z</time>
      </trkpt>
      <trkpt lat="45.13876" lon="5.84009">
        <ele>575.62</ele>
        <time>2019-06-03T09:43:27.000Z</time>
      </trkpt>
      <trkpt lat="45.13897" lon="5.84012">
        <ele>578.17</ele>
        <time>2019-06-03T09:43:32.000Z</time>
      </trkpt>
      <trkpt lat="45.13917" lon="5.84026">
        <ele>572.78</ele>
        <time>2019-06-03T09:43:37.000Z</time>
      </trkpt>
      <trkpt lat="45.13937" lon="5.84042">
        <ele>575.74</ele>
        <time>2019-06-03T09:43:42.000Z</time>
      </trkpt>
      <trkpt lat="45.13956" lon="5.84056">
        <ele>575.57</ele>
        <time>2019-06-03T09:43:47.000Z</time>
      </trkpt>
      <trkpt lat="45.13978" lon="5.84063">
        <ele>576.89</ele>
        <time>2019-06-03T09:43:52.000Z</time>
      </trkpt>
      <trkpt lat="45.14003" lon="5.84073">
        <ele>578.86</ele>
        <time>2019-06-03T09:43:57.000Z</time>
      </trkpt>
      <trkpt lat="45.14028" lon="5.84081">
        <ele>579.47</ele>
        <time>2019-06-03T09:44:02.000Z</time>
      </trkpt>
      <trkpt lat="45.14044" lon="5.84086">
        <ele>579.7</ele>
        <time>2019-06-03T09:44:07.000Z</time>
      </trkpt>
      <trkpt lat="45.1407" lon="5.84084">
        <ele>582.94</ele>
        <time>2019-06-03T09:44:12.000Z</time>
      </trkpt>
      <trkpt lat="45.14093" lon="5.84072">
        <ele>578.13</ele>
        <time>2019-06-03T09:44:17.000Z</time>
      </trkpt>
      <trkpt lat="45.14117" lon="5.84062">
        <ele>574.93</ele>
        <time>2019-06-03T09:44:22.000Z</time>
      </trkpt>
      <trkpt lat="45.14144" lon="5.84051">
        <ele>571.11</ele>
        <time>2019-06-03T09:44:27.000Z</time>
      </trkpt>
      <trkpt lat="45.14168" lon="5.84042">
        <ele>574.55</ele>
        <time>2019-06-03T09:44:32.000Z</time>
      </trkpt>
      <trkpt lat="45.14195" lon="5.8404">
        <ele>574.48</ele>
        <time>2019-06-03T09:44:37.000Z</time>
      </trkpt>
      <trkpt lat="45.14219" lon="5.84054">
        <ele>572.89</ele>
        <time>2019-06-03T09:44:42.000Z</time>
      </trkpt>
      <trkpt lat="45.14238" lon="5.84077">
        <ele>576.98</ele>
        <time>2019-06-03T09:44:47.000Z</time>
      </trkpt>
      <trkpt lat="45.1425" lon="5.84105">
        <ele>583.31</ele>
        <time>2019-06-03T09:44:52.000Z</time>
      </trkpt>
      <trkpt lat="45.1426" lon="5.84139">
        <ele>582.31</ele>
        <time>2019-06-03T09:44:57.000Z</time>
      </trkpt>
      <trkpt lat="45.14277" lon="5.84158">
        <ele>580.81</ele>
        <time>2019-06-03T09:45:02.000Z</time>
      </trkpt>
      <trkpt lat="45.14289" lon="5.84145">
        <ele>583.83</ele>
        <time>2019-06-03T09:45:07.000Z</time>
      </trkpt>
      <trkpt lat="45.14307" lon="5.8413">
        <ele>589.88</ele>
        <time>2019-06-03T09:45:12.000Z</time>
      </trkpt>
      <trkpt lat="45.14324" lon="5.84112">
        <ele>590.44</ele>
        <time>2019-06-03T09:45:17.000Z</time>
      </trkpt>
      <trkpt lat="45.14339" lon="5.84095">
        <ele>587.39</ele>
        <time>2019-06-03T09:45:22.000Z</time>
      </trkpt>
      <trkpt lat="45.14354" lon="5.84078">
        <ele>590.58</ele>
        <time>2019-06-03T09:45:27.000Z</time>
      </trkpt>
      <trkpt lat="45.14367" lon="5.8406">
        <ele>585.29</ele>
        <time>2019-06-03T09:45:32.000Z</time>
      </trkpt>
      <trkpt lat="45.1438" lon="5.8404">
        <ele>584.97</ele>
        <time>2019-06-03T09:45:37.000Z</time>
      </trkpt>
      <trkpt lat="45.14391" lon="5.84019">
        <ele>588.84</ele>
        <time>2019-06-03T09:45:42.000Z</time>
      </trkpt>
      <trkpt lat="45.14402" lon="5.83997">
        <ele>591.54</ele>
        <time>2019-06-03T09:45:47.000Z</time>
      </trkpt>
      <trkpt lat="45.1442" lon="5.83974">
        <ele>596.56</ele>
        <time>2019-06-03T09:45:52.000Z</time>
      </trkpt>
      <trkpt lat="45.14443" lon="5.83966">
        <ele>594.27</ele>
        <time>2019-06-03T09:45:57.000Z</time>
      </trkpt>
      <trkpt lat="45.14471" lon="5.8396">
        <ele>592.43</ele>
        <time>2019-06-03T09:46:02.000Z</time>
      </trkpt>
      <trkpt lat="45.14492" lon="5.83949">
        <ele>592.2</ele>
        <time>2019-06-03T09:46:07.000Z</time>
      </trkpt>
      <trkpt lat="45.14515" lon="5.83937">
        <ele>593.9</ele>
        <time>2019-06-03T09:46:12.000Z</time>
      </trkpt>
      <trkpt lat="45.14538" lon="5.83929">
        <ele>594.35</ele>
        <time>2019-06-03T09:46:17.000Z</time>
      </trkpt>
      <trkpt lat="45.14562" lon="5.83915">
        <ele>593.09</ele>
        <time>2019-06-03T09:46:22.000Z</time>
      </trkpt>
      <trkpt lat="45.14589" lon="5.83903">
        <ele>589.68</ele>
        <time>2019-06-03T09:46:27.000Z</time>
      </trkpt>
      <trkpt lat="45.14613" lon="5.83897">
        <ele>592.65</ele>
        <time>2019-06-03T09:46:32.000Z</time>
      </trkpt>
      <trkpt lat="45.14645" lon="5.83903">
        <ele>595.99</ele>
        <time>2019-06-03T09:46:37.000Z</time>
      </trkpt>
      <trkpt lat="45.14672" lon="5.83902">
        <ele>592.06</ele>
        <time>2019-06-03T09:46:42.000Z</time>
      </trkpt>
      <trkpt lat="45.14695" lon="5.83909">
        <ele>588.46</ele>
        <time>2019-06-03T09:46:47.000Z</time>
      </trkpt>
      <trkpt lat="45.14717" lon="5.83905">
        <ele>591.86</ele>
        <time>2019-06-03T09:46:52.000Z</time>
      </trkpt>
      <trkpt lat="45.14745" lon="5.83903">
        <ele>594.37</ele>
        <time>2019-06-03T09:46:57.000Z</time>
      </trkpt>
      <trkpt lat="45.14771" lon="5.83894">
        <ele>593.21</ele>
        <time>2019-06-03T09:47:02.000Z</time>
      </trkpt>
      <trkpt lat="45.14795" lon="5.83889">
        <ele>591.82</ele>
        <time>2019-06-03T09:47:07.000Z</time>
      </trkpt>
      <trkpt lat="45.14821" lon="5.83882">
        <ele>593.75</ele>
        <time>2019-06-03T09:47:12.000Z</time>
      </trkpt>
      <trkpt lat="45.14846" lon="5.83873">
        <ele>593.42</ele>
        <time>2019-06-03T09:47:17.000Z</time>
      </trkpt>
      <trkpt lat="45.1487" lon="5.83865">
        <ele>588.62</ele>
        <time>2019-06-03T09:47:22.000Z</time>
      </trkpt>
      <trkpt lat="45.149" lon="5.83851">
        <ele>590.02</ele>
        <time>2019-06-03T09:47:27.000Z</time>
      </trkpt>
      <trkpt lat="45.14926" lon="5.83843">
        <ele>589.26</ele>
        <time>2019-06-03T09:47:32.000Z</time>
      </trkpt>
      <trkpt lat="45.14955" lon="5.83832">
        <ele>589.52</ele>
        <time>2019-06-03T09:47:37.000Z</time>
      </trkpt>
      <trkpt lat="45.14992" lon="5.83819">
        <ele>587.42</ele>
        <time>2019-06-03T09:47:42.000Z</time>
      </trkpt>
      <trkpt lat="45.15028" lon="5.83795">
        <ele>589.85</ele>
        <time>2019-06-03T09:47:47.000Z</time>
      </trkpt>
      <trkpt lat="45.15057" lon="5.83763">
        <ele>589.44</ele>
        <time>2019-06-03T09:47:52.000Z</time>
      </trkpt>
      <trkpt lat="45.15079" lon="5.83735">
        <ele>586.45</ele>
        <time>2019-06-03T09:47:57.000Z</time>
      </trkpt>
      <trkpt lat="45.15093" lon="5.83715">
        <ele>586.82</ele>
        <time>2019-06-03T09:48:02.000Z</time>
      </trkpt>
      <trkpt lat="45.15113" lon="5.83725">
        <ele>586.46</ele>
        <time>2019-06-03T09:48:07.000Z</time>
      </trkpt>
      <trkpt lat="45.15129" lon="5.83737">
        <ele>587.35</ele>
        <time>2019-06-03T09:48:12.000Z</time>
      </trkpt>
      <trkpt lat="45.15147" lon="5.83748">
        <ele>589.56</ele>
        <time>2019-06-03T09:48:17.000Z</time>
      </trkpt>
      <trkpt lat="45.15166" lon="5.8376">
        <ele>592.57</ele>
        <time>2019-06-03T09:48:22.000Z</time>
      </trkpt>
      <trkpt lat="45.1518" lon="5.83777">
        <ele>594.07</ele>
        <time>2019-06-03T09:48:27.000Z</time>
      </trkpt>
      <trkpt lat="45.15187" lon="5.83803">
        <ele>596.19</ele>
        <time>2019-06-03T09:48:32.000Z</time>
      </trkpt>
      <trkpt lat="45.15188" lon="5.8382">
        <ele>592.38</ele>
        <time>2019-06-03T09:48:37.000Z</time>
      </trkpt>
      <trkpt lat="45.15193" lon="5.83808">
        <ele>587.69</ele>
        <time>2019-06-03T09:50:44.000Z</time>
      </trkpt>
      <trkpt lat="45.15203" lon="5.83806">
        <ele>599.52</ele>
        <time>2019-06-03T10:03:26.000Z</time>
      </trkpt>
      <trkpt lat="45.15214" lon="5.83803">
        <ele>591.3</ele>
        <time>2019-06-03T10:03:31.000Z</time>
      </trkpt>
      <trkpt lat="45.15223" lon="5.83808">
        <ele>594.92</ele>
        <time>2019-06-03T10:03:36.000Z</time>
      </trkpt>
      <trkpt lat="45.15232" lon="5.83832">
        <ele>598</ele>
        <time>2019-06-03T10:03:41.000Z</time>
      </trkpt>
      <trkpt lat="45.15245" lon="5.83849">
        <ele>603.77</ele>
        <time>2019-06-03T10:03:46.000Z</time>
      </trkpt>
      <trkpt lat="45.15266" lon="5.83854">
        <ele>606.84</ele>
        <time>2019-06-03T10:03:51.000Z</time>
      </trkpt>
      <trkpt lat="45.15291" lon="5.83853">
        <ele>606.87</ele>
        <time>2019-06-03T10:03:56.000Z</time>
      </trkpt>
      <trkpt lat="45.15313" lon="5.8386">
        <ele>604.5</ele>
        <time>2019-06-03T10:04:01.000Z</time>
      </trkpt>
      <trkpt lat="45.15334" lon="5.8388">
        <ele>594.78</ele>
        <time>2019-06-03T10:04:06.000Z</time>
      </trkpt>
      <trkpt lat="45.15348" lon="5.83896">
        <ele>597.48</ele>
        <time>2019-06-03T10:04:11.000Z</time>
      </trkpt>
      <trkpt lat="45.15357" lon="5.83918">
        <ele>595.61</ele>
        <time>2019-06-03T10:04:16.000Z</time>
      </trkpt>
      <trkpt lat="45.15363" lon="5.83939">
        <ele>604.89</ele>
        <time>2019-06-03T10:04:21.000Z</time>
      </trkpt>
      <trkpt lat="45.15358" lon="5.83963">
        <ele>605.81</ele>
        <time>2019-06-03T10:04:26.000Z</time>
      </trkpt>
      <trkpt lat="45.15353" lon="5.83987">
        <ele>605.55</ele>
        <time>2019-06-03T10:04:31.000Z</time>
      </trkpt>
      <trkpt lat="45.15352" lon="5.8401">
        <ele>605.32</ele>
        <time>2019-06-03T10:04:36.000Z</time>
      </trkpt>
      <trkpt lat="45.15355" lon="5.84034">
        <ele>605.81</ele>
        <time>2019-06-03T10:04:41.000Z</time>
      </trkpt>
      <trkpt lat="45.15356" lon="5.84054">
        <ele>607.47</ele>
        <time>2019-06-03T10:04:46.000Z</time>
      </trkpt>
      <trkpt lat="45.15361" lon="5.84065">
        <ele>611.72</ele>
        <time>2019-06-03T10:04:54.000Z</time>
      </trkpt>
      <trkpt lat="45.15362" lon="5.84079">
        <ele>619.01</ele>
        <time>2019-06-03T10:05:07.000Z</time>
      </trkpt>
      <trkpt lat="45.15358" lon="5.8409">
        <ele>617.64</ele>
        <time>2019-06-03T10:05:32.000Z</time>
      </trkpt>
      <trkpt lat="45.1535" lon="5.841">
        <ele>616.84</ele>
        <time>2019-06-03T10:06:25.000Z</time>
      </trkpt>
      <trkpt lat="45.1534" lon="5.84111">
        <ele>619.01</ele>
        <time>2019-06-03T10:06:30.000Z</time>
      </trkpt>
      <trkpt lat="45.15325" lon="5.84125">
        <ele>625.66</ele>
        <time>2019-06-03T10:06:35.000Z</time>
      </trkpt>
      <trkpt lat="45.15305" lon="5.84133">
        <ele>625.49</ele>
        <time>2019-06-03T10:06:40.000Z</time>
      </trkpt>
      <trkpt lat="45.15284" lon="5.84147">
        <ele>627.92</ele>
        <time>2019-06-03T10:06:45.000Z</time>
      </trkpt>
      <trkpt lat="45.15267" lon="5.84156">
        <ele>631.4</ele>
        <time>2019-06-03T10:06:50.000Z</time>
      </trkpt>
      <trkpt lat="45.15253" lon="5.84166">
        <ele>632.22</ele>
        <time>2019-06-03T10:06:55.000Z</time>
      </trkpt>
      <trkpt lat="45.15235" lon="5.84179">
        <ele>635.26</ele>
        <time>2019-06-03T10:07:00.000Z</time>
      </trkpt>
      <trkpt lat="45.15221" lon="5.84194">
        <ele>636.23</ele>
        <time>2019-06-03T10:07:05.000Z</time>
      </trkpt>
      <trkpt lat="45.15206" lon="5.84207">
        <ele>637.69</ele>
        <time>2019-06-03T10:07:10.000Z</time>
      </trkpt>
      <trkpt lat="45.15192" lon="5.84221">
        <ele>638.98</ele>
        <time>2019-06-03T10:07:15.000Z</time>
      </trkpt>
      <trkpt lat="45.15178" lon="5.84237">
        <ele>641.66</ele>
        <time>2019-06-03T10:07:20.000Z</time>
      </trkpt>
      <trkpt lat="45.15165" lon="5.84252">
        <ele>639.76</ele>
        <time>2019-06-03T10:07:25.000Z</time>
      </trkpt>
      <trkpt lat="45.15153" lon="5.84272">
        <ele>644.26</ele>
        <time>2019-06-03T10:07:30.000Z</time>
      </trkpt>
      <trkpt lat="45.15148" lon="5.84293">
        <ele>642.11</ele>
        <time>2019-06-03T10:07:35.000Z</time>
      </trkpt>
      <trkpt lat="45.15138" lon="5.84315">
        <ele>642.76</ele>
        <time>2019-06-03T10:07:40.000Z</time>
      </trkpt>
      <trkpt lat="45.15122" lon="5.84332">
        <ele>644.25</ele>
        <time>2019-06-03T10:07:45.000Z</time>
      </trkpt>
      <trkpt lat="45.15103" lon="5.8434">
        <ele>645.81</ele>
        <time>2019-06-03T10:07:50.000Z</time>
      </trkpt>
      <trkpt lat="45.15084" lon="5.84342">
        <ele>648.82</ele>
        <time>2019-06-03T10:07:55.000Z</time>
      </trkpt>
      <trkpt lat="45.1507" lon="5.84342">
        <ele>650.21</ele>
        <time>2019-06-03T10:08:00.000Z</time>
      </trkpt>
      <trkpt lat="45.15056" lon="5.8435">
        <ele>650.41</ele>
        <time>2019-06-03T10:08:05.000Z</time>
      </trkpt>
      <trkpt lat="45.15037" lon="5.84361">
        <ele>653.78</ele>
        <time>2019-06-03T10:08:10.000Z</time>
      </trkpt>
      <trkpt lat="45.15025" lon="5.84377">
        <ele>653.72</ele>
        <time>2019-06-03T10:08:15.000Z</time>
      </trkpt>
      <trkpt lat="45.15021" lon="5.84398">
        <ele>651.28</ele>
        <time>2019-06-03T10:08:20.000Z</time>
      </trkpt>
      <trkpt lat="45.1502" lon="5.84423">
        <ele>657.68</ele>
        <time>2019-06-03T10:08:25.000Z</time>
      </trkpt>
      <trkpt lat="45.15024" lon="5.84447">
        <ele>658.39</ele>
        <time>2019-06-03T10:08:30.000Z</time>
      </trkpt>
      <trkpt lat="45.15032" lon="5.84469">
        <ele>658.96</ele>
        <time>2019-06-03T10:08:35.000Z</time>
      </trkpt>
      <trkpt lat="45.15048" lon="5.84482">
        <ele>660.16</ele>
        <time>2019-06-03T10:08:40.000Z</time>
      </trkpt>
      <trkpt lat="45.15067" lon="5.84489">
        <ele>664.07</ele>
        <time>2019-06-03T10:08:45.000Z</time>
      </trkpt>
      <trkpt lat="45.15085" lon="5.84493">
        <ele>664.86</ele>
        <time>2019-06-03T10:08:50.000Z</time>
      </trkpt>
      <trkpt lat="45.15101" lon="5.845">
        <ele>666.25</ele>
        <time>2019-06-03T10:08:55.000Z</time>
      </trkpt>
      <trkpt lat="45.15118" lon="5.84507">
        <ele>674.35</ele>
        <time>2019-06-03T10:09:00.000Z</time>
      </trkpt>
      <trkpt lat="45.15135" lon="5.84516">
        <ele>674.04</ele>
        <time>2019-06-03T10:09:05.000Z</time>
      </trkpt>
      <trkpt lat="45.15152" lon="5.84528">
        <ele>674.18</ele>
        <time>2019-06-03T10:09:10.000Z</time>
      </trkpt>
      <trkpt lat="45.15168" lon="5.84541">
        <ele>677.64</ele>
        <time>2019-06-03T10:09:15.000Z</time>
      </trkpt>
      <trkpt lat="45.15183" lon="5.84551">
        <ele>679.47</ele>
        <time>2019-06-03T10:09:20.000Z</time>
      </trkpt>
      <trkpt lat="45.15194" lon="5.84565">
        <ele>678.59</ele>
        <time>2019-06-03T10:09:25.000Z</time>
      </trkpt>
      <trkpt lat="45.15208" lon="5.8458">
        <ele>679.29</ele>
        <time>2019-06-03T10:09:30.000Z</time>
      </trkpt>
      <trkpt lat="45.15223" lon="5.84599">
        <ele>677.74</ele>
        <time>2019-06-03T10:09:35.000Z</time>
      </trkpt>
      <trkpt lat="45.15236" lon="5.8462">
        <ele>675.75</ele>
        <time>2019-06-03T10:09:40.000Z</time>
      </trkpt>
      <trkpt lat="45.15247" lon="5.8464">
        <ele>679.32</ele>
        <time>2019-06-03T10:09:45.000Z</time>
      </trkpt>
      <trkpt lat="45.15255" lon="5.84659">
        <ele>690.05</ele>
        <time>2019-06-03T10:09:50.000Z</time>
      </trkpt>
      <trkpt lat="45.1526" lon="5.84681">
        <ele>697.98</ele>
        <time>2019-06-03T10:09:55.000Z</time>
      </trkpt>
      <trkpt lat="45.15262" lon="5.847">
        <ele>698.44</ele>
        <time>2019-06-03T10:10:00.000Z</time>
      </trkpt>
      <trkpt lat="45.15269" lon="5.84714">
        <ele>698.61</ele>
        <time>2019-06-03T10:10:05.000Z</time>
      </trkpt>
      <trkpt lat="45.15285" lon="5.84736">
        <ele>699.82</ele>
        <time>2019-06-03T10:10:10.000Z</time>
      </trkpt>
      <trkpt lat="45.153" lon="5.84754">
        <ele>699.35</ele>
        <time>2019-06-03T10:10:15.000Z</time>
      </trkpt>
      <trkpt lat="45.15317" lon="5.84776">
        <ele>700.02</ele>
        <time>2019-06-03T10:10:20.000Z</time>
      </trkpt>
      <trkpt lat="45.1533" lon="5.84795">
        <ele>699.86</ele>
        <time>2019-06-03T10:10:25.000Z</time>
      </trkpt>
      <trkpt lat="45.15346" lon="5.84816">
        <ele>698.43</ele>
        <time>2019-06-03T10:10:30.000Z</time>
      </trkpt>
      <trkpt lat="45.15359" lon="5.84837">
        <ele>700.67</ele>
        <time>2019-06-03T10:10:35.000Z</time>
      </trkpt>
      <trkpt lat="45.15366" lon="5.84864">
        <ele>701.61</ele>
        <time>2019-06-03T10:10:40.000Z</time>
      </trkpt>
      <trkpt lat="45.15366" lon="5.84895">
        <ele>697.75</ele>
        <time>2019-06-03T10:10:45.000Z</time>
      </trkpt>
      <trkpt lat="45.15362" lon="5.84922">
        <ele>698.83</ele>
        <time>2019-06-03T10:10:50.000Z</time>
      </trkpt>
      <trkpt lat="45.15354" lon="5.84948">
        <ele>697.09</ele>
        <time>2019-06-03T10:10:55.000Z</time>
      </trkpt>
      <trkpt lat="45.15356" lon="5.84976">
        <ele>693.9</ele>
        <time>2019-06-03T10:11:00.000Z</time>
      </trkpt>
      <trkpt lat="45.15373" lon="5.85015">
        <ele>697.95</ele>
        <time>2019-06-03T10:11:05.000Z</time>
      </trkpt>
      <trkpt lat="45.15385" lon="5.85061">
        <ele>700.41</ele>
        <time>2019-06-03T10:11:10.000Z</time>
      </trkpt>
      <trkpt lat="45.15398" lon="5.85042">
        <ele>698.15</ele>
        <time>2019-06-03T10:11:15.000Z</time>
      </trkpt>
      <trkpt lat="45.15409" lon="5.85005">
        <ele>692.74</ele>
        <time>2019-06-03T10:11:20.000Z</time>
      </trkpt>
      <trkpt lat="45.15431" lon="5.84975">
        <ele>694.85</ele>
        <time>2019-06-03T10:11:25.000Z</time>
      </trkpt>
      <trkpt lat="45.15447" lon="5.84949">
        <ele>698.64</ele>
        <time>2019-06-03T10:11:30.000Z</time>
      </trkpt>
      <trkpt lat="45.15467" lon="5.84938">
        <ele>699.04</ele>
        <time>2019-06-03T10:11:35.000Z</time>
      </trkpt>
      <trkpt lat="45.1548" lon="5.84934">
        <ele>701.96</ele>
        <time>2019-06-03T10:11:40.000Z</time>
      </trkpt>
      <trkpt lat="45.15494" lon="5.84932">
        <ele>705.99</ele>
        <time>2019-06-03T10:11:45.000Z</time>
      </trkpt>
      <trkpt lat="45.15508" lon="5.84936">
        <ele>704.75</ele>
        <time>2019-06-03T10:11:50.000Z</time>
      </trkpt>
      <trkpt lat="45.15521" lon="5.84935">
        <ele>703.36</ele>
        <time>2019-06-03T10:11:55.000Z</time>
      </trkpt>
      <trkpt lat="45.15537" lon="5.84928">
        <ele>703.06</ele>
        <time>2019-06-03T10:12:00.000Z</time>
      </trkpt>
      <trkpt lat="45.1555" lon="5.84922">
        <ele>701.86</ele>
        <time>2019-06-03T10:12:05.000Z</time>
      </trkpt>
      <trkpt lat="45.15566" lon="5.84912">
        <ele>704.85</ele>
        <time>2019-06-03T10:12:10.000Z</time>
      </trkpt>
      <trkpt lat="45.15582" lon="5.84906">
        <ele>708.01</ele>
        <time>2019-06-03T10:12:15.000Z</time>
      </trkpt>
      <trkpt lat="45.15598" lon="5.84899">
        <ele>712.99</ele>
        <time>2019-06-03T10:12:20.000Z</time>
      </trkpt>
      <trkpt lat="45.15615" lon="5.84897">
        <ele>712.43</ele>
        <time>2019-06-03T10:12:25.000Z</time>
      </trkpt>
      <trkpt lat="45.15633" lon="5.84898">
        <ele>714.81</ele>
        <time>2019-06-03T10:12:30.000Z</time>
      </trkpt>
      <trkpt lat="45.1565" lon="5.84898">
        <ele>720.23</ele>
        <time>2019-06-03T10:12:35.000Z</time>
      </trkpt>
      <trkpt lat="45.15667" lon="5.84898">
        <ele>723.44</ele>
        <time>2019-06-03T10:12:40.000Z</time>
      </trkpt>
      <trkpt lat="45.15682" lon="5.84892">
        <ele>727.89</ele>
        <time>2019-06-03T10:12:45.000Z</time>
      </trkpt>
      <trkpt lat="45.15697" lon="5.84888">
        <ele>727.14</ele>
        <time>2019-06-03T10:12:50.000Z</time>
      </trkpt>
      <trkpt lat="45.15712" lon="5.84886">
        <ele>729.32</ele>
        <time>2019-06-03T10:12:55.000Z</time>
      </trkpt>
      <trkpt lat="45.15727" lon="5.84885">
        <ele>727.21</ele>
        <time>2019-06-03T10:13:00.000Z</time>
      </trkpt>
      <trkpt lat="45.15742" lon="5.84885">
        <ele>727</ele>
        <time>2019-06-03T10:13:05.000Z</time>
      </trkpt>
      <trkpt lat="45.15759" lon="5.84891">
        <ele>727.76</ele>
        <time>2019-06-03T10:13:10.000Z</time>
      </trkpt>
      <trkpt lat="45.15776" lon="5.849">
        <ele>726.49</ele>
        <time>2019-06-03T10:13:15.000Z</time>
      </trkpt>
      <trkpt lat="45.15792" lon="5.84916">
        <ele>726.1</ele>
        <time>2019-06-03T10:13:20.000Z</time>
      </trkpt>
      <trkpt lat="45.15807" lon="5.84917">
        <ele>732.3</ele>
        <time>2019-06-03T10:13:25.000Z</time>
      </trkpt>
      <trkpt lat="45.15823" lon="5.84899">
        <ele>733.46</ele>
        <time>2019-06-03T10:13:30.000Z</time>
      </trkpt>
      <trkpt lat="45.15837" lon="5.84877">
        <ele>734.47</ele>
        <time>2019-06-03T10:13:35.000Z</time>
      </trkpt>
      <trkpt lat="45.15856" lon="5.84862">
        <ele>733.53</ele>
        <time>2019-06-03T10:13:40.000Z</time>
      </trkpt>
      <trkpt lat="45.15863" lon="5.84872">
        <ele>730.36</ele>
        <time>2019-06-03T10:13:50.000Z</time>
      </trkpt>
      <trkpt lat="45.1587" lon="5.8488">
        <ele>741.38</ele>
        <time>2019-06-03T10:16:27.000Z</time>
      </trkpt>
      <trkpt lat="45.15879" lon="5.84901">
        <ele>741.91</ele>
        <time>2019-06-03T10:16:32.000Z</time>
      </trkpt>
      <trkpt lat="45.15891" lon="5.84916">
        <ele>743.31</ele>
        <time>2019-06-03T10:16:37.000Z</time>
      </trkpt>
      <trkpt lat="45.1591" lon="5.84919">
        <ele>748.2</ele>
        <time>2019-06-03T10:16:42.000Z</time>
      </trkpt>
      <trkpt lat="45.15929" lon="5.84921">
        <ele>747.77</ele>
        <time>2019-06-03T10:16:47.000Z</time>
      </trkpt>
      <trkpt lat="45.15948" lon="5.84923">
        <ele>748.4</ele>
        <time>2019-06-03T10:16:52.000Z</time>
      </trkpt>
      <trkpt lat="45.15965" lon="5.84926">
        <ele>746.94</ele>
        <time>2019-06-03T10:16:57.000Z</time>
      </trkpt>
      <trkpt lat="45.15983" lon="5.84933">
        <ele>746.54</ele>
        <time>2019-06-03T10:17:02.000Z</time>
      </trkpt>
      <trkpt lat="45.15999" lon="5.84937">
        <ele>744.21</ele>
        <time>2019-06-03T10:17:07.000Z</time>
      </trkpt>
      <trkpt lat="45.16015" lon="5.84938">
        <ele>746.15</ele>
        <time>2019-06-03T10:17:12.000Z</time>
      </trkpt>
      <trkpt lat="45.16031" lon="5.8494">
        <ele>747.81</ele>
        <time>2019-06-03T10:17:17.000Z</time>
      </trkpt>
      <trkpt lat="45.16047" lon="5.84942">
        <ele>751.82</ele>
        <time>2019-06-03T10:17:22.000Z</time>
      </trkpt>
      <trkpt lat="45.16062" lon="5.84948">
        <ele>752.82</ele>
        <time>2019-06-03T10:17:27.000Z</time>
      </trkpt>
      <trkpt lat="45.16073" lon="5.84961">
        <ele>753.62</ele>
        <time>2019-06-03T10:17:32.000Z</time>
      </trkpt>
      <trkpt lat="45.16083" lon="5.84979">
        <ele>755.83</ele>
        <time>2019-06-03T10:17:37.000Z</time>
      </trkpt>
      <trkpt lat="45.16086" lon="5.84998">
        <ele>760.37</ele>
        <time>2019-06-03T10:17:42.000Z</time>
      </trkpt>
      <trkpt lat="45.16092" lon="5.85017">
        <ele>762.64</ele>
        <time>2019-06-03T10:17:47.000Z</time>
      </trkpt>
      <trkpt lat="45.16098" lon="5.85035">
        <ele>763.44</ele>
        <time>2019-06-03T10:17:52.000Z</time>
      </trkpt>
      <trkpt lat="45.16109" lon="5.85053">
        <ele>762.5</ele>
        <time>2019-06-03T10:17:57.000Z</time>
      </trkpt>
      <trkpt lat="45.16122" lon="5.85071">
        <ele>765.48</ele>
        <time>2019-06-03T10:18:02.000Z</time>
      </trkpt>
      <trkpt lat="45.16135" lon="5.85088">
        <ele>767.38</ele>
        <time>2019-06-03T10:18:07.000Z</time>
      </trkpt>
      <trkpt lat="45.1615" lon="5.85103">
        <ele>768.09</ele>
        <time>2019-06-03T10:18:12.000Z</time>
      </trkpt>
      <trkpt lat="45.16166" lon="5.85113">
        <ele>770.9</ele>
        <time>2019-06-03T10:18:17.000Z</time>
      </trkpt>
      <trkpt lat="45.16183" lon="5.85124">
        <ele>774.63</ele>
        <time>2019-06-03T10:18:22.000Z</time>
      </trkpt>
      <trkpt lat="45.16201" lon="5.85137">
        <ele>775.13</ele>
        <time>2019-06-03T10:18:27.000Z</time>
      </trkpt>
      <trkpt lat="45.16219" lon="5.85151">
        <ele>778.17</ele>
        <time>2019-06-03T10:18:32.000Z</time>
      </trkpt>
      <trkpt lat="45.16238" lon="5.85166">
        <ele>779.22</ele>
        <time>2019-06-03T10:18:37.000Z</time>
      </trkpt>
      <trkpt lat="45.16257" lon="5.8518">
        <ele>782.01</ele>
        <time>2019-06-03T10:18:42.000Z</time>
      </trkpt>
      <trkpt lat="45.16276" lon="5.85186">
        <ele>783.03</ele>
        <time>2019-06-03T10:18:47.000Z</time>
      </trkpt>
      <trkpt lat="45.16297" lon="5.85179">
        <ele>782.09</ele>
        <time>2019-06-03T10:18:52.000Z</time>
      </trkpt>
      <trkpt lat="45.16306" lon="5.8515">
        <ele>784.92</ele>
        <time>2019-06-03T10:18:57.000Z</time>
      </trkpt>
      <trkpt lat="45.16303" lon="5.85123">
        <ele>781.62</ele>
        <time>2019-06-03T10:19:02.000Z</time>
      </trkpt>
      <trkpt lat="45.16303" lon="5.85092">
        <ele>785.23</ele>
        <time>2019-06-03T10:19:07.000Z</time>
      </trkpt>
      <trkpt lat="45.16313" lon="5.85063">
        <ele>787.24</ele>
        <time>2019-06-03T10:19:12.000Z</time>
      </trkpt>
      <trkpt lat="45.16328" lon="5.85039">
        <ele>790.69</ele>
        <time>2019-06-03T10:19:17.000Z</time>
      </trkpt>
      <trkpt lat="45.16344" lon="5.85023">
        <ele>790.13</ele>
        <time>2019-06-03T10:19:22.000Z</time>
      </trkpt>
      <trkpt lat="45.16359" lon="5.85006">
        <ele>791.57</ele>
        <time>2019-06-03T10:19:27.000Z</time>
      </trkpt>
      <trkpt lat="45.16374" lon="5.84993">
        <ele>791.32</ele>
        <time>2019-06-03T10:19:32.000Z</time>
      </trkpt>
      <trkpt lat="45.1639" lon="5.84978">
        <ele>792.32</ele>
        <time>2019-06-03T10:19:37.000Z</time>
      </trkpt>
      <trkpt lat="45.16405" lon="5.84964">
        <ele>793.12</ele>
        <time>2019-06-03T10:19:42.000Z</time>
      </trkpt>
      <trkpt lat="45.16419" lon="5.84945">
        <ele>795.13</ele>
        <time>2019-06-03T10:19:47.000Z</time>
      </trkpt>
      <trkpt lat="45.16432" lon="5.84922">
        <ele>796.86</ele>
        <time>2019-06-03T10:19:52.000Z</time>
      </trkpt>
      <trkpt lat="45.16442" lon="5.84902">
        <ele>798.53</ele>
        <time>2019-06-03T10:19:57.000Z</time>
      </trkpt>
      <trkpt lat="45.16454" lon="5.84883">
        <ele>801.66</ele>
        <time>2019-06-03T10:20:02.000Z</time>
      </trkpt>
      <trkpt lat="45.16466" lon="5.84864">
        <ele>799.42</ele>
        <time>2019-06-03T10:20:07.000Z</time>
      </trkpt>
      <trkpt lat="45.16478" lon="5.84845">
        <ele>800.4</ele>
        <time>2019-06-03T10:20:12.000Z</time>
      </trkpt>
      <trkpt lat="45.16494" lon="5.84848">
        <ele>805.8</ele>
        <time>2019-06-03T10:20:17.000Z</time>
      </trkpt>
      <trkpt lat="45.16511" lon="5.84857">
        <ele>808.51</ele>
        <time>2019-06-03T10:20:22.000Z</time>
      </trkpt>
      <trkpt lat="45.16524" lon="5.84878">
        <ele>809.54</ele>
        <time>2019-06-03T10:20:27.000Z</time>
      </trkpt>
      <trkpt lat="45.16524" lon="5.84907">
        <ele>804.84</ele>
        <time>2019-06-03T10:20:32.000Z</time>
      </trkpt>
      <trkpt lat="45.16523" lon="5.84932">
        <ele>802.52</ele>
        <time>2019-06-03T10:20:37.000Z</time>
      </trkpt>
      <trkpt lat="45.16522" lon="5.84955">
        <ele>801.26</ele>
        <time>2019-06-03T10:20:42.000Z</time>
      </trkpt>
      <trkpt lat="45.16526" lon="5.84978">
        <ele>804.63</ele>
        <time>2019-06-03T10:20:47.000Z</time>
      </trkpt>
      <trkpt lat="45.16533" lon="5.85001">
        <ele>805.86</ele>
        <time>2019-06-03T10:20:52.000Z</time>
      </trkpt>
      <trkpt lat="45.16542" lon="5.85036">
        <ele>806.13</ele>
        <time>2019-06-03T10:20:57.000Z</time>
      </trkpt>
      <trkpt lat="45.16552" lon="5.85077">
        <ele>804.63</ele>
        <time>2019-06-03T10:21:02.000Z</time>
      </trkpt>
      <trkpt lat="45.16561" lon="5.85127">
        <ele>802.37</ele>
        <time>2019-06-03T10:21:07.000Z</time>
      </trkpt>
      <trkpt lat="45.16588" lon="5.8517">
        <ele>803.15</ele>
        <time>2019-06-03T10:21:12.000Z</time>
      </trkpt>
      <trkpt lat="45.16624" lon="5.85223">
        <ele>798.44</ele>
        <time>2019-06-03T10:21:17.000Z</time>
      </trkpt>
      <trkpt lat="45.16655" lon="5.85278">
        <ele>797.94</ele>
        <time>2019-06-03T10:21:22.000Z</time>
      </trkpt>
      <trkpt lat="45.16679" lon="5.85333">
        <ele>795.84</ele>
        <time>2019-06-03T10:21:27.000Z</time>
      </trkpt>
      <trkpt lat="45.16702" lon="5.85394">
        <ele>793.59</ele>
        <time>2019-06-03T10:21:32.000Z</time>
      </trkpt>
      <trkpt lat="45.16718" lon="5.85457">
        <ele>795.1</ele>
        <time>2019-06-03T10:21:37.000Z</time>
      </trkpt>
      <trkpt lat="45.16726" lon="5.85522">
        <ele>790.68</ele>
        <time>2019-06-03T10:21:42.000Z</time>
      </trkpt>
      <trkpt lat="45.16735" lon="5.85571">
        <ele>788.94</ele>
        <time>2019-06-03T10:21:47.000Z</time>
      </trkpt>
      <trkpt lat="45.16747" lon="5.85612">
        <ele>789.99</ele>
        <time>2019-06-03T10:21:52.000Z</time>
      </trkpt>
      <trkpt lat="45.16757" lon="5.85651">
        <ele>791.6</ele>
        <time>2019-06-03T10:21:57.000Z</time>
      </trkpt>
      <trkpt lat="45.16757" lon="5.85692">
        <ele>790.95</ele>
        <time>2019-06-03T10:22:02.000Z</time>
      </trkpt>
      <trkpt lat="45.16755" lon="5.85734">
        <ele>787.54</ele>
        <time>2019-06-03T10:22:07.000Z</time>
      </trkpt>
      <trkpt lat="45.16749" lon="5.85765">
        <ele>791.43</ele>
        <time>2019-06-03T10:22:12.000Z</time>
      </trkpt>
      <trkpt lat="45.16743" lon="5.85797">
        <ele>791.54</ele>
        <time>2019-06-03T10:22:17.000Z</time>
      </trkpt>
      <trkpt lat="45.16748" lon="5.85832">
        <ele>793.84</ele>
        <time>2019-06-03T10:22:22.000Z</time>
      </trkpt>
      <trkpt lat="45.16753" lon="5.85866">
        <ele>795.24</ele>
        <time>2019-06-03T10:22:27.000Z</time>
      </trkpt>
      <trkpt lat="45.1676" lon="5.85898">
        <ele>796.13</ele>
        <time>2019-06-03T10:22:32.000Z</time>
      </trkpt>
      <trkpt lat="45.1677" lon="5.85927">
        <ele>797.79</ele>
        <time>2019-06-03T10:22:37.000Z</time>
      </trkpt>
      <trkpt lat="45.16778" lon="5.85956">
        <ele>798.19</ele>
        <time>2019-06-03T10:22:42.000Z</time>
      </trkpt>
      <trkpt lat="45.16779" lon="5.85989">
        <ele>798.21</ele>
        <time>2019-06-03T10:22:47.000Z</time>
      </trkpt>
      <trkpt lat="45.16777" lon="5.8602">
        <ele>798.24</ele>
        <time>2019-06-03T10:22:52.000Z</time>
      </trkpt>
      <trkpt lat="45.16774" lon="5.86055">
        <ele>802.13</ele>
        <time>2019-06-03T10:22:57.000Z</time>
      </trkpt>
      <trkpt lat="45.16772" lon="5.86086">
        <ele>801.25</ele>
        <time>2019-06-03T10:23:02.000Z</time>
      </trkpt>
      <trkpt lat="45.16767" lon="5.8612">
        <ele>798.25</ele>
        <time>2019-06-03T10:23:07.000Z</time>
      </trkpt>
      <trkpt lat="45.16762" lon="5.86155">
        <ele>801.05</ele>
        <time>2019-06-03T10:23:12.000Z</time>
      </trkpt>
      <trkpt lat="45.16758" lon="5.86191">
        <ele>803.65</ele>
        <time>2019-06-03T10:23:17.000Z</time>
      </trkpt>
      <trkpt lat="45.1675" lon="5.86225">
        <ele>803.3</ele>
        <time>2019-06-03T10:23:22.000Z</time>
      </trkpt>
      <trkpt lat="45.16765" lon="5.86263">
        <ele>804.59</ele>
        <time>2019-06-03T10:23:27.000Z</time>
      </trkpt>
      <trkpt lat="45.16784" lon="5.86292">
        <ele>806.47</ele>
        <time>2019-06-03T10:23:32.000Z</time>
      </trkpt>
      <trkpt lat="45.16803" lon="5.8631">
        <ele>805.8</ele>
        <time>2019-06-03T10:23:37.000Z</time>
      </trkpt>
      <trkpt lat="45.16814" lon="5.86332">
        <ele>806.21</ele>
        <time>2019-06-03T10:23:42.000Z</time>
      </trkpt>
      <trkpt lat="45.16832" lon="5.86356">
        <ele>807.8</ele>
        <time>2019-06-03T10:23:47.000Z</time>
      </trkpt>
      <trkpt lat="45.16846" lon="5.86384">
        <ele>806.18</ele>
        <time>2019-06-03T10:23:52.000Z</time>
      </trkpt>
      <trkpt lat="45.16858" lon="5.86407">
        <ele>809.67</ele>
        <time>2019-06-03T10:23:57.000Z</time>
      </trkpt>
      <trkpt lat="45.16872" lon="5.86438">
        <ele>813.67</ele>
        <time>2019-06-03T10:24:02.000Z</time>
      </trkpt>
      <trkpt lat="45.16879" lon="5.86473">
        <ele>814.94</ele>
        <time>2019-06-03T10:24:07.000Z</time>
      </trkpt>
      <trkpt lat="45.1689" lon="5.86509">
        <ele>815.43</ele>
        <time>2019-06-03T10:24:12.000Z</time>
      </trkpt>
      <trkpt lat="45.16905" lon="5.86545">
        <ele>817.69</ele>
        <time>2019-06-03T10:24:17.000Z</time>
      </trkpt>
      <trkpt lat="45.16916" lon="5.86578">
        <ele>818.34</ele>
        <time>2019-06-03T10:24:22.000Z</time>
      </trkpt>
      <trkpt lat="45.1693" lon="5.86615">
        <ele>814.8</ele>
        <time>2019-06-03T10:24:27.000Z</time>
      </trkpt>
      <trkpt lat="45.16938" lon="5.86651">
        <ele>814.45</ele>
        <time>2019-06-03T10:24:32.000Z</time>
      </trkpt>
      <trkpt lat="45.16953" lon="5.86681">
        <ele>816.18</ele>
        <time>2019-06-03T10:24:37.000Z</time>
      </trkpt>
      <trkpt lat="45.16972" lon="5.86721">
        <ele>814.88</ele>
        <time>2019-06-03T10:24:42.000Z</time>
      </trkpt>
      <trkpt lat="45.16991" lon="5.86762">
        <ele>813.7</ele>
        <time>2019-06-03T10:24:47.000Z</time>
      </trkpt>
      <trkpt lat="45.17006" lon="5.8679">
        <ele>818.75</ele>
        <time>2019-06-03T10:24:52.000Z</time>
      </trkpt>
      <trkpt lat="45.17018" lon="5.86822">
        <ele>820.28</ele>
        <time>2019-06-03T10:24:57.000Z</time>
      </trkpt>
      <trkpt lat="45.17029" lon="5.86847">
        <ele>819.11</ele>
        <time>2019-06-03T10:25:02.000Z</time>
      </trkpt>
      <trkpt lat="45.17044" lon="5.86875">
        <ele>823.07</ele>
        <time>2019-06-03T10:25:07.000Z</time>
      </trkpt>
      <trkpt lat="45.17054" lon="5.86904">
        <ele>823.02</ele>
        <time>2019-06-03T10:25:12.000Z</time>
      </trkpt>
      <trkpt lat="45.17065" lon="5.86931">
        <ele>825.49</ele>
        <time>2019-06-03T10:25:17.000Z</time>
      </trkpt>
      <trkpt lat="45.17079" lon="5.8696">
        <ele>823.34</ele>
        <time>2019-06-03T10:25:22.000Z</time>
      </trkpt>
      <trkpt lat="45.17088" lon="5.86989">
        <ele>818.57</ele>
        <time>2019-06-03T10:25:27.000Z</time>
      </trkpt>
      <trkpt lat="45.17104" lon="5.87018">
        <ele>816.15</ele>
        <time>2019-06-03T10:25:32.000Z</time>
      </trkpt>
      <trkpt lat="45.17119" lon="5.87043">
        <ele>817.18</ele>
        <time>2019-06-03T10:25:37.000Z</time>
      </trkpt>
      <trkpt lat="45.17131" lon="5.87072">
        <ele>818.29</ele>
        <time>2019-06-03T10:25:42.000Z</time>
      </trkpt>
      <trkpt lat="45.17141" lon="5.87098">
        <ele>818.63</ele>
        <time>2019-06-03T10:25:47.000Z</time>
      </trkpt>
      <trkpt lat="45.17154" lon="5.87123">
        <ele>822.46</ele>
        <time>2019-06-03T10:25:52.000Z</time>
      </trkpt>
      <trkpt lat="45.17164" lon="5.87153">
        <ele>824.94</ele>
        <time>2019-06-03T10:25:57.000Z</time>
      </trkpt>
      <trkpt lat="45.1717" lon="5.87188">
        <ele>828.3</ele>
        <time>2019-06-03T10:26:02.000Z</time>
      </trkpt>
      <trkpt lat="45.17182" lon="5.87217">
        <ele>830.45</ele>
        <time>2019-06-03T10:26:07.000Z</time>
      </trkpt>
      <trkpt lat="45.1719" lon="5.87245">
        <ele>832.86</ele>
        <time>2019-06-03T10:26:12.000Z</time>
      </trkpt>
      <trkpt lat="45.172" lon="5.87279">
        <ele>836.95</ele>
        <time>2019-06-03T10:26:17.000Z</time>
      </trkpt>
      <trkpt lat="45.17204" lon="5.8731">
        <ele>838.47</ele>
        <time>2019-06-03T10:26:22.000Z</time>
      </trkpt>
      <trkpt lat="45.17207" lon="5.87345">
        <ele>838.91</ele>
        <time>2019-06-03T10:26:27.000Z</time>
      </trkpt>
      <trkpt lat="45.17219" lon="5.87369">
        <ele>840.81</ele>
        <time>2019-06-03T10:26:32.000Z</time>
      </trkpt>
      <trkpt lat="45.17235" lon="5.87394">
        <ele>839.11</ele>
        <time>2019-06-03T10:26:37.000Z</time>
      </trkpt>
      <trkpt lat="45.17251" lon="5.87415">
        <ele>841.71</ele>
        <time>2019-06-03T10:26:42.000Z</time>
      </trkpt>
      <trkpt lat="45.17274" lon="5.8743">
        <ele>840.77</ele>
        <time>2019-06-03T10:26:47.000Z</time>
      </trkpt>
      <trkpt lat="45.17294" lon="5.87445">
        <ele>842.4</ele>
        <time>2019-06-03T10:26:52.000Z</time>
      </trkpt>
      <trkpt lat="45.17314" lon="5.87465">
        <ele>843.63</ele>
        <time>2019-06-03T10:26:57.000Z</time>
      </trkpt>
      <trkpt lat="45.1733" lon="5.87486">
        <ele>845</ele>
        <time>2019-06-03T10:27:02.000Z</time>
      </trkpt>
      <trkpt lat="45.17345" lon="5.87513">
        <ele>846.39</ele>
        <time>2019-06-03T10:27:07.000Z</time>
      </trkpt>
      <trkpt lat="45.17357" lon="5.87545">
        <ele>843.73</ele>
        <time>2019-06-03T10:27:12.000Z</time>
      </trkpt>
      <trkpt lat="45.17364" lon="5.87577">
        <ele>844.66</ele>
        <time>2019-06-03T10:27:17.000Z</time>
      </trkpt>
      <trkpt lat="45.17372" lon="5.87607">
        <ele>846.36</ele>
        <time>2019-06-03T10:27:22.000Z</time>
      </trkpt>
      <trkpt lat="45.17372" lon="5.87636">
        <ele>844.95</ele>
        <time>2019-06-03T10:27:27.000Z</time>
      </trkpt>
      <trkpt lat="45.17365" lon="5.87664">
        <ele>841.9</ele>
        <time>2019-06-03T10:27:32.000Z</time>
      </trkpt>
      <trkpt lat="45.17354" lon="5.87692">
        <ele>837.47</ele>
        <time>2019-06-03T10:27:37.000Z</time>
      </trkpt>
      <trkpt lat="45.1734" lon="5.87717">
        <ele>838</ele>
        <time>2019-06-03T10:27:42.000Z</time>
      </trkpt>
      <trkpt lat="45.17318" lon="5.87764">
        <ele>842.66</ele>
        <time>2019-06-03T10:27:47.000Z</time>
      </trkpt>
      <trkpt lat="45.173" lon="5.87794">
        <ele>845.82</ele>
        <time>2019-06-03T10:27:52.000Z</time>
      </trkpt>
      <trkpt lat="45.17285" lon="5.87824">
        <ele>845.61</ele>
        <time>2019-06-03T10:27:57.000Z</time>
      </trkpt>
      <trkpt lat="45.17263" lon="5.8785">
        <ele>846.69</ele>
        <time>2019-06-03T10:28:02.000Z</time>
      </trkpt>
      <trkpt lat="45.17244" lon="5.87873">
        <ele>844.1</ele>
        <time>2019-06-03T10:28:07.000Z</time>
      </trkpt>
      <trkpt lat="45.17232" lon="5.87901">
        <ele>845.93</ele>
        <time>2019-06-03T10:28:12.000Z</time>
      </trkpt>
      <trkpt lat="45.17197" lon="5.87936">
        <ele>843.84</ele>
        <time>2019-06-03T10:28:17.000Z</time>
      </trkpt>
      <trkpt lat="45.1717" lon="5.87987">
        <ele>838.97</ele>
        <time>2019-06-03T10:28:22.000Z</time>
      </trkpt>
      <trkpt lat="45.17139" lon="5.88047">
        <ele>833.6</ele>
        <time>2019-06-03T10:28:27.000Z</time>
      </trkpt>
      <trkpt lat="45.17099" lon="5.88107">
        <ele>830.29</ele>
        <time>2019-06-03T10:28:32.000Z</time>
      </trkpt>
      <trkpt lat="45.1705" lon="5.88155">
        <ele>829.52</ele>
        <time>2019-06-03T10:28:37.000Z</time>
      </trkpt>
      <trkpt lat="45.16995" lon="5.88194">
        <ele>829.25</ele>
        <time>2019-06-03T10:28:42.000Z</time>
      </trkpt>
      <trkpt lat="45.16929" lon="5.88245">
        <ele>826.69</ele>
        <time>2019-06-03T10:28:47.000Z</time>
      </trkpt>
      <trkpt lat="45.16867" lon="5.88288">
        <ele>826.6</ele>
        <time>2019-06-03T10:28:52.000Z</time>
      </trkpt>
      <trkpt lat="45.16817" lon="5.8835">
        <ele>822.05</ele>
        <time>2019-06-03T10:28:57.000Z</time>
      </trkpt>
      <trkpt lat="45.16774" lon="5.88424">
        <ele>807.75</ele>
        <time>2019-06-03T10:29:02.000Z</time>
      </trkpt>
      <trkpt lat="45.16747" lon="5.88475">
        <ele>805.46</ele>
        <time>2019-06-03T10:29:07.000Z</time>
      </trkpt>
      <trkpt lat="45.16698" lon="5.8848">
        <ele>804.72</ele>
        <time>2019-06-03T10:29:12.000Z</time>
      </trkpt>
      <trkpt lat="45.16659" lon="5.88472">
        <ele>799.58</ele>
        <time>2019-06-03T10:29:17.000Z</time>
      </trkpt>
      <trkpt lat="45.16615" lon="5.88492">
        <ele>798.7</ele>
        <time>2019-06-03T10:29:22.000Z</time>
      </trkpt>
      <trkpt lat="45.16568" lon="5.88513">
        <ele>796.68</ele>
        <time>2019-06-03T10:29:27.000Z</time>
      </trkpt>
      <trkpt lat="45.16527" lon="5.88533">
        <ele>796.24</ele>
        <time>2019-06-03T10:29:32.000Z</time>
      </trkpt>
      <trkpt lat="45.16503" lon="5.88597">
        <ele>794.47</ele>
        <time>2019-06-03T10:29:37.000Z</time>
      </trkpt>
      <trkpt lat="45.1651" lon="5.88661">
        <ele>794.84</ele>
        <time>2019-06-03T10:29:42.000Z</time>
      </trkpt>
      <trkpt lat="45.16531" lon="5.88703">
        <ele>793.9</ele>
        <time>2019-06-03T10:29:47.000Z</time>
      </trkpt>
      <trkpt lat="45.16562" lon="5.88723">
        <ele>792.53</ele>
        <time>2019-06-03T10:29:52.000Z</time>
      </trkpt>
      <trkpt lat="45.16594" lon="5.88731">
        <ele>792.76</ele>
        <time>2019-06-03T10:29:57.000Z</time>
      </trkpt>
      <trkpt lat="45.16623" lon="5.88736">
        <ele>794.35</ele>
        <time>2019-06-03T10:30:02.000Z</time>
      </trkpt>
      <trkpt lat="45.16647" lon="5.88737">
        <ele>795.38</ele>
        <time>2019-06-03T10:30:07.000Z</time>
      </trkpt>
      <trkpt lat="45.16673" lon="5.88745">
        <ele>794.79</ele>
        <time>2019-06-03T10:30:12.000Z</time>
      </trkpt>
      <trkpt lat="45.16699" lon="5.88754">
        <ele>795.88</ele>
        <time>2019-06-03T10:30:17.000Z</time>
      </trkpt>
      <trkpt lat="45.16727" lon="5.88752">
        <ele>794</ele>
        <time>2019-06-03T10:30:22.000Z</time>
      </trkpt>
      <trkpt lat="45.16747" lon="5.88748">
        <ele>793.06</ele>
        <time>2019-06-03T10:30:27.000Z</time>
      </trkpt>
      <trkpt lat="45.16772" lon="5.88738">
        <ele>797.42</ele>
        <time>2019-06-03T10:30:32.000Z</time>
      </trkpt>
      <trkpt lat="45.16798" lon="5.88724">
        <ele>798.02</ele>
        <time>2019-06-03T10:30:37.000Z</time>
      </trkpt>
      <trkpt lat="45.16831" lon="5.88717">
        <ele>791.78</ele>
        <time>2019-06-03T10:30:42.000Z</time>
      </trkpt>
      <trkpt lat="45.16863" lon="5.8871">
        <ele>791.62</ele>
        <time>2019-06-03T10:30:47.000Z</time>
      </trkpt>
      <trkpt lat="45.16895" lon="5.88709">
        <ele>792.56</ele>
        <time>2019-06-03T10:30:52.000Z</time>
      </trkpt>
      <trkpt lat="45.16924" lon="5.88709">
        <ele>788.97</ele>
        <time>2019-06-03T10:30:57.000Z</time>
      </trkpt>
      <trkpt lat="45.16957" lon="5.88697">
        <ele>789.19</ele>
        <time>2019-06-03T10:31:02.000Z</time>
      </trkpt>
      <trkpt lat="45.16991" lon="5.88685">
        <ele>787.05</ele>
        <time>2019-06-03T10:31:07.000Z</time>
      </trkpt>
      <trkpt lat="45.17024" lon="5.8867">
        <ele>785.15</ele>
        <time>2019-06-03T10:31:12.000Z</time>
      </trkpt>
      <trkpt lat="45.17061" lon="5.88688">
        <ele>788.49</ele>
        <time>2019-06-03T10:31:17.000Z</time>
      </trkpt>
      <trkpt lat="45.17087" lon="5.88719">
        <ele>788.7</ele>
        <time>2019-06-03T10:31:22.000Z</time>
      </trkpt>
      <trkpt lat="45.17124" lon="5.88712">
        <ele>789.1</ele>
        <time>2019-06-03T10:31:27.000Z</time>
      </trkpt>
      <trkpt lat="45.17156" lon="5.8869">
        <ele>788.9</ele>
        <time>2019-06-03T10:31:32.000Z</time>
      </trkpt>
      <trkpt lat="45.17189" lon="5.88655">
        <ele>788.08</ele>
        <time>2019-06-03T10:31:37.000Z</time>
      </trkpt>
      <trkpt lat="45.17214" lon="5.88612">
        <ele>788.8</ele>
        <time>2019-06-03T10:31:42.000Z</time>
      </trkpt>
      <trkpt lat="45.17244" lon="5.88585">
        <ele>786.63</ele>
        <time>2019-06-03T10:31:47.000Z</time>
      </trkpt>
      <trkpt lat="45.17294" lon="5.88585">
        <ele>775.82</ele>
        <time>2019-06-03T10:31:52.000Z</time>
      </trkpt>
      <trkpt lat="45.1733" lon="5.88589">
        <ele>772</ele>
        <time>2019-06-03T10:31:57.000Z</time>
      </trkpt>
      <trkpt lat="45.17367" lon="5.88596">
        <ele>770.72</ele>
        <time>2019-06-03T10:32:02.000Z</time>
      </trkpt>
      <trkpt lat="45.17404" lon="5.88601">
        <ele>768.42</ele>
        <time>2019-06-03T10:32:07.000Z</time>
      </trkpt>
      <trkpt lat="45.17441" lon="5.88596">
        <ele>768.11</ele>
        <time>2019-06-03T10:32:12.000Z</time>
      </trkpt>
      <trkpt lat="45.17472" lon="5.88592">
        <ele>773.49</ele>
        <time>2019-06-03T10:32:17.000Z</time>
      </trkpt>
      <trkpt lat="45.1751" lon="5.8859">
        <ele>772.01</ele>
        <time>2019-06-03T10:32:22.000Z</time>
      </trkpt>
      <trkpt lat="45.17547" lon="5.8855">
        <ele>771.73</ele>
        <time>2019-06-03T10:32:27.000Z</time>
      </trkpt>
      <trkpt lat="45.17581" lon="5.88507">
        <ele>772.64</ele>
        <time>2019-06-03T10:32:32.000Z</time>
      </trkpt>
      <trkpt lat="45.17623" lon="5.88481">
        <ele>777.35</ele>
        <time>2019-06-03T10:32:37.000Z</time>
      </trkpt>
      <trkpt lat="45.17668" lon="5.88499">
        <ele>774.56</ele>
        <time>2019-06-03T10:32:42.000Z</time>
      </trkpt>
      <trkpt lat="45.17714" lon="5.88522">
        <ele>771.55</ele>
        <time>2019-06-03T10:32:47.000Z</time>
      </trkpt>
      <trkpt lat="45.17755" lon="5.88535">
        <ele>773.34</ele>
        <time>2019-06-03T10:32:52.000Z</time>
      </trkpt>
      <trkpt lat="45.17801" lon="5.8854">
        <ele>773.2</ele>
        <time>2019-06-03T10:32:57.000Z</time>
      </trkpt>
      <trkpt lat="45.17843" lon="5.88531">
        <ele>771.33</ele>
        <time>2019-06-03T10:33:02.000Z</time>
      </trkpt>
      <trkpt lat="45.17879" lon="5.88512">
        <ele>767.48</ele>
        <time>2019-06-03T10:33:07.000Z</time>
      </trkpt>
      <trkpt lat="45.17917" lon="5.8849">
        <ele>765.04</ele>
        <time>2019-06-03T10:33:12.000Z</time>
      </trkpt>
      <trkpt lat="45.17958" lon="5.88464">
        <ele>764.14</ele>
        <time>2019-06-03T10:33:17.000Z</time>
      </trkpt>
      <trkpt lat="45.18001" lon="5.88436">
        <ele>764.07</ele>
        <time>2019-06-03T10:33:22.000Z</time>
      </trkpt>
      <trkpt lat="45.18042" lon="5.88403">
        <ele>761.24</ele>
        <time>2019-06-03T10:33:27.000Z</time>
      </trkpt>
      <trkpt lat="45.18062" lon="5.88345">
        <ele>758.34</ele>
        <time>2019-06-03T10:33:32.000Z</time>
      </trkpt>
      <trkpt lat="45.18086" lon="5.88277">
        <ele>757.81</ele>
        <time>2019-06-03T10:33:37.000Z</time>
      </trkpt>
      <trkpt lat="45.18119" lon="5.88219">
        <ele>754.93</ele>
        <time>2019-06-03T10:33:42.000Z</time>
      </trkpt>
      <trkpt lat="45.18153" lon="5.88168">
        <ele>750.2</ele>
        <time>2019-06-03T10:33:47.000Z</time>
      </trkpt>
      <trkpt lat="45.18178" lon="5.88127">
        <ele>748.54</ele>
        <time>2019-06-03T10:33:52.000Z</time>
      </trkpt>
      <trkpt lat="45.18201" lon="5.8809">
        <ele>750.9</ele>
        <time>2019-06-03T10:33:57.000Z</time>
      </trkpt>
      <trkpt lat="45.18223" lon="5.88062">
        <ele>747.28</ele>
        <time>2019-06-03T10:34:02.000Z</time>
      </trkpt>
      <trkpt lat="45.18239" lon="5.88034">
        <ele>748.32</ele>
        <time>2019-06-03T10:34:07.000Z</time>
      </trkpt>
      <trkpt lat="45.18245" lon="5.88003">
        <ele>747.93</ele>
        <time>2019-06-03T10:34:12.000Z</time>
      </trkpt>
      <trkpt lat="45.18259" lon="5.87963">
        <ele>750.89</ele>
        <time>2019-06-03T10:34:17.000Z</time>
      </trkpt>
      <trkpt lat="45.18257" lon="5.87901">
        <ele>748.89</ele>
        <time>2019-06-03T10:34:22.000Z</time>
      </trkpt>
      <trkpt lat="45.18268" lon="5.87837">
        <ele>741.15</ele>
        <time>2019-06-03T10:34:27.000Z</time>
      </trkpt>
      <trkpt lat="45.18281" lon="5.87773">
        <ele>734.51</ele>
        <time>2019-06-03T10:34:32.000Z</time>
      </trkpt>
      <trkpt lat="45.18294" lon="5.87722">
        <ele>728.14</ele>
        <time>2019-06-03T10:34:37.000Z</time>
      </trkpt>
      <trkpt lat="45.18296" lon="5.87702">
        <ele>722.03</ele>
        <time>2019-06-03T10:34:42.000Z</time>
      </trkpt>
      <trkpt lat="45.18296" lon="5.87675">
        <ele>720.51</ele>
        <time>2019-06-03T10:34:47.000Z</time>
      </trkpt>
      <trkpt lat="45.18304" lon="5.87636">
        <ele>719.7</ele>
        <time>2019-06-03T10:34:52.000Z</time>
      </trkpt>
      <trkpt lat="45.18316" lon="5.87597">
        <ele>715.81</ele>
        <time>2019-06-03T10:34:57.000Z</time>
      </trkpt>
      <trkpt lat="45.18329" lon="5.87557">
        <ele>711.38</ele>
        <time>2019-06-03T10:35:02.000Z</time>
      </trkpt>
      <trkpt lat="45.18339" lon="5.87518">
        <ele>707.98</ele>
        <time>2019-06-03T10:35:07.000Z</time>
      </trkpt>
      <trkpt lat="45.1835" lon="5.87485">
        <ele>705.67</ele>
        <time>2019-06-03T10:35:12.000Z</time>
      </trkpt>
      <trkpt lat="45.18364" lon="5.87456">
        <ele>698.09</ele>
        <time>2019-06-03T10:35:17.000Z</time>
      </trkpt>
      <trkpt lat="45.18371" lon="5.87422">
        <ele>693.71</ele>
        <time>2019-06-03T10:35:22.000Z</time>
      </trkpt>
      <trkpt lat="45.18384" lon="5.87397">
        <ele>691.85</ele>
        <time>2019-06-03T10:35:27.000Z</time>
      </trkpt>
      <trkpt lat="45.18377" lon="5.87383">
        <ele>691.98</ele>
        <time>2019-06-03T10:35:32.000Z</time>
      </trkpt>
      <trkpt lat="45.18374" lon="5.87383">
        <ele>687.31</ele>
        <time>2019-06-03T10:35:50.000Z</time>
      </trkpt>
    </trkseg>
  </trk>
</gpx>